<?xml version="1.0" encoding="UTF-8" standalone="no" ?>
<gpx xmlns="http://www.topografix.com/GPX/1/1" xmlns:xsi="http://www.w3.org/2001/XMLSchema-instance" xsi:schemaLocation="http://www.topografix.com/GPX/1/1 http://www.topografix.com/GPX/1/1/gpx.xsd" version="1.1" creator="VisuGPX - https://www.visugpx.com">
  <metadata>
    <name>Col de Sosay - 2022-01-16</name>
  </metadata>
  <trk>
    <name><![CDATA[Col de Sosay - 2022-01-16]]></name>
    <trkseg>
      <trkpt lat="45.97619" lon="6.46096">
        <ele>1267.16</ele>
        <time>2022-01-16T08:01:13Z</time>
      </trkpt>
      <trkpt lat="45.97618" lon="6.46093">
        <ele>1266.67</ele>
        <time>2022-01-16T08:01:15Z</time>
      </trkpt>
      <trkpt lat="45.97629" lon="6.46043">
        <ele>1266.19</ele>
        <time>2022-01-16T08:01:37Z</time>
      </trkpt>
      <trkpt lat="45.9763" lon="6.46037">
        <ele>1266.67</ele>
        <time>2022-01-16T08:01:41Z</time>
      </trkpt>
      <trkpt lat="45.9763" lon="6.46033">
        <ele>1265.23</ele>
        <time>2022-01-16T08:01:44Z</time>
      </trkpt>
      <trkpt lat="45.97634" lon="6.46031">
        <ele>1266.19</ele>
        <time>2022-01-16T08:01:50Z</time>
      </trkpt>
      <trkpt lat="45.97638" lon="6.46039">
        <ele>1266.67</ele>
        <time>2022-01-16T08:01:58Z</time>
      </trkpt>
      <trkpt lat="45.9764" lon="6.46041">
        <ele>1267.64</ele>
        <time>2022-01-16T08:02:00Z</time>
      </trkpt>
      <trkpt lat="45.97651" lon="6.46047">
        <ele>1268.12</ele>
        <time>2022-01-16T08:02:14Z</time>
      </trkpt>
      <trkpt lat="45.97661" lon="6.46057">
        <ele>1270.04</ele>
        <time>2022-01-16T08:02:31Z</time>
      </trkpt>
      <trkpt lat="45.97667" lon="6.46053">
        <ele>1271.48</ele>
        <time>2022-01-16T08:02:48Z</time>
      </trkpt>
      <trkpt lat="45.97669" lon="6.46054">
        <ele>1272.44</ele>
        <time>2022-01-16T08:03:14Z</time>
      </trkpt>
      <trkpt lat="45.97672" lon="6.4606">
        <ele>1272.92</ele>
        <time>2022-01-16T08:03:34Z</time>
      </trkpt>
      <trkpt lat="45.97683" lon="6.46065">
        <ele>1272.92</ele>
        <time>2022-01-16T08:03:52Z</time>
      </trkpt>
      <trkpt lat="45.97683" lon="6.46066">
        <ele>1276.29</ele>
        <time>2022-01-16T08:03:54Z</time>
      </trkpt>
      <trkpt lat="45.97684" lon="6.46066">
        <ele>1274.36</ele>
        <time>2022-01-16T08:03:55Z</time>
      </trkpt>
      <trkpt lat="45.97692" lon="6.46071">
        <ele>1275.81</ele>
        <time>2022-01-16T08:04:06Z</time>
      </trkpt>
      <trkpt lat="45.97701" lon="6.46084">
        <ele>1276.77</ele>
        <time>2022-01-16T08:04:23Z</time>
      </trkpt>
      <trkpt lat="45.9771" lon="6.46086">
        <ele>1280.13</ele>
        <time>2022-01-16T08:04:38Z</time>
      </trkpt>
      <trkpt lat="45.9772" lon="6.46088">
        <ele>1283.5</ele>
        <time>2022-01-16T08:04:56Z</time>
      </trkpt>
      <trkpt lat="45.97726" lon="6.4609">
        <ele>1286.86</ele>
        <time>2022-01-16T08:05:11Z</time>
      </trkpt>
      <trkpt lat="45.97742" lon="6.46097">
        <ele>1288.78</ele>
        <time>2022-01-16T08:05:30Z</time>
      </trkpt>
      <trkpt lat="45.9775" lon="6.46098">
        <ele>1291.67</ele>
        <time>2022-01-16T08:05:50Z</time>
      </trkpt>
      <trkpt lat="45.9776" lon="6.46093">
        <ele>1294.55</ele>
        <time>2022-01-16T08:06:08Z</time>
      </trkpt>
      <trkpt lat="45.97767" lon="6.46086">
        <ele>1297.44</ele>
        <time>2022-01-16T08:06:24Z</time>
      </trkpt>
      <trkpt lat="45.97779" lon="6.46078">
        <ele>1300.8</ele>
        <time>2022-01-16T08:06:41Z</time>
      </trkpt>
      <trkpt lat="45.9779" lon="6.46076">
        <ele>1303.2</ele>
        <time>2022-01-16T08:06:59Z</time>
      </trkpt>
      <trkpt lat="45.97801" lon="6.46074">
        <ele>1306.57</ele>
        <time>2022-01-16T08:07:16Z</time>
      </trkpt>
      <trkpt lat="45.9781" lon="6.46072">
        <ele>1309.93</ele>
        <time>2022-01-16T08:07:35Z</time>
      </trkpt>
      <trkpt lat="45.97819" lon="6.46071">
        <ele>1311.38</ele>
        <time>2022-01-16T08:07:50Z</time>
      </trkpt>
      <trkpt lat="45.97827" lon="6.46069">
        <ele>1314.26</ele>
        <time>2022-01-16T08:08:05Z</time>
      </trkpt>
      <trkpt lat="45.97834" lon="6.46067">
        <ele>1317.62</ele>
        <time>2022-01-16T08:08:22Z</time>
      </trkpt>
      <trkpt lat="45.9784" lon="6.46062">
        <ele>1319.55</ele>
        <time>2022-01-16T08:08:39Z</time>
      </trkpt>
      <trkpt lat="45.97845" lon="6.46063">
        <ele>1322.43</ele>
        <time>2022-01-16T08:08:54Z</time>
      </trkpt>
      <trkpt lat="45.97852" lon="6.46065">
        <ele>1324.83</ele>
        <time>2022-01-16T08:09:11Z</time>
      </trkpt>
      <trkpt lat="45.97861" lon="6.46064">
        <ele>1328.2</ele>
        <time>2022-01-16T08:09:30Z</time>
      </trkpt>
      <trkpt lat="45.97871" lon="6.46057">
        <ele>1331.08</ele>
        <time>2022-01-16T08:09:49Z</time>
      </trkpt>
      <trkpt lat="45.97879" lon="6.46054">
        <ele>1334.45</ele>
        <time>2022-01-16T08:10:05Z</time>
      </trkpt>
      <trkpt lat="45.97886" lon="6.46045">
        <ele>1337.81</ele>
        <time>2022-01-16T08:10:26Z</time>
      </trkpt>
      <trkpt lat="45.97891" lon="6.46031">
        <ele>1341.18</ele>
        <time>2022-01-16T08:10:44Z</time>
      </trkpt>
      <trkpt lat="45.97893" lon="6.46019">
        <ele>1343.58</ele>
        <time>2022-01-16T08:11:00Z</time>
      </trkpt>
      <trkpt lat="45.97901" lon="6.46015">
        <ele>1346.46</ele>
        <time>2022-01-16T08:11:17Z</time>
      </trkpt>
      <trkpt lat="45.97908" lon="6.46003">
        <ele>1349.83</ele>
        <time>2022-01-16T08:11:38Z</time>
      </trkpt>
      <trkpt lat="45.97909" lon="6.45993">
        <ele>1352.71</ele>
        <time>2022-01-16T08:11:55Z</time>
      </trkpt>
      <trkpt lat="45.97919" lon="6.4599">
        <ele>1355.6</ele>
        <time>2022-01-16T08:12:17Z</time>
      </trkpt>
      <trkpt lat="45.97923" lon="6.45981">
        <ele>1358</ele>
        <time>2022-01-16T08:12:31Z</time>
      </trkpt>
      <trkpt lat="45.97933" lon="6.45981">
        <ele>1360.4</ele>
        <time>2022-01-16T08:12:51Z</time>
      </trkpt>
      <trkpt lat="45.97941" lon="6.45979">
        <ele>1363.29</ele>
        <time>2022-01-16T08:13:09Z</time>
      </trkpt>
      <trkpt lat="45.97943" lon="6.45972">
        <ele>1365.69</ele>
        <time>2022-01-16T08:13:26Z</time>
      </trkpt>
      <trkpt lat="45.97946" lon="6.45974">
        <ele>1368.09</ele>
        <time>2022-01-16T08:13:42Z</time>
      </trkpt>
      <trkpt lat="45.97954" lon="6.45978">
        <ele>1371.46</ele>
        <time>2022-01-16T08:14:03Z</time>
      </trkpt>
      <trkpt lat="45.97961" lon="6.45979">
        <ele>1373.86</ele>
        <time>2022-01-16T08:14:20Z</time>
      </trkpt>
      <trkpt lat="45.97968" lon="6.45977">
        <ele>1376.75</ele>
        <time>2022-01-16T08:14:38Z</time>
      </trkpt>
      <trkpt lat="45.97978" lon="6.45974">
        <ele>1379.15</ele>
        <time>2022-01-16T08:14:59Z</time>
      </trkpt>
      <trkpt lat="45.97989" lon="6.45972">
        <ele>1382.03</ele>
        <time>2022-01-16T08:15:18Z</time>
      </trkpt>
      <trkpt lat="45.97999" lon="6.4597">
        <ele>1385.4</ele>
        <time>2022-01-16T08:15:36Z</time>
      </trkpt>
      <trkpt lat="45.98011" lon="6.4597">
        <ele>1388.28</ele>
        <time>2022-01-16T08:15:59Z</time>
      </trkpt>
      <trkpt lat="45.98026" lon="6.45966">
        <ele>1391.65</ele>
        <time>2022-01-16T08:16:22Z</time>
      </trkpt>
      <trkpt lat="45.98038" lon="6.45964">
        <ele>1395.01</ele>
        <time>2022-01-16T08:16:41Z</time>
      </trkpt>
      <trkpt lat="45.98047" lon="6.45961">
        <ele>1397.89</ele>
        <time>2022-01-16T08:17:00Z</time>
      </trkpt>
      <trkpt lat="45.98055" lon="6.4596">
        <ele>1400.3</ele>
        <time>2022-01-16T08:17:17Z</time>
      </trkpt>
      <trkpt lat="45.98064" lon="6.45952">
        <ele>1402.7</ele>
        <time>2022-01-16T08:17:35Z</time>
      </trkpt>
      <trkpt lat="45.98072" lon="6.45948">
        <ele>1405.58</ele>
        <time>2022-01-16T08:17:53Z</time>
      </trkpt>
      <trkpt lat="45.98079" lon="6.45941">
        <ele>1408.47</ele>
        <time>2022-01-16T08:18:10Z</time>
      </trkpt>
      <trkpt lat="45.98085" lon="6.45931">
        <ele>1410.87</ele>
        <time>2022-01-16T08:18:28Z</time>
      </trkpt>
      <trkpt lat="45.9809" lon="6.45923">
        <ele>1412.79</ele>
        <time>2022-01-16T08:18:42Z</time>
      </trkpt>
      <trkpt lat="45.98087" lon="6.45916">
        <ele>1414.24</ele>
        <time>2022-01-16T08:19:00Z</time>
      </trkpt>
      <trkpt lat="45.98086" lon="6.45915">
        <ele>1413.28</ele>
        <time>2022-01-16T08:19:11Z</time>
      </trkpt>
      <trkpt lat="45.98086" lon="6.45916">
        <ele>1413.76</ele>
        <time>2022-01-16T08:19:43Z</time>
      </trkpt>
      <trkpt lat="45.98087" lon="6.45917">
        <ele>1415.2</ele>
        <time>2022-01-16T08:19:52Z</time>
      </trkpt>
      <trkpt lat="45.98085" lon="6.45918">
        <ele>1415.68</ele>
        <time>2022-01-16T08:20:14Z</time>
      </trkpt>
      <trkpt lat="45.98086" lon="6.45917">
        <ele>1414.72</ele>
        <time>2022-01-16T08:20:21Z</time>
      </trkpt>
      <trkpt lat="45.98083" lon="6.45905">
        <ele>1416.64</ele>
        <time>2022-01-16T08:20:36Z</time>
      </trkpt>
      <trkpt lat="45.98075" lon="6.45887">
        <ele>1419.52</ele>
        <time>2022-01-16T08:21:00Z</time>
      </trkpt>
      <trkpt lat="45.98066" lon="6.45872">
        <ele>1421.93</ele>
        <time>2022-01-16T08:21:21Z</time>
      </trkpt>
      <trkpt lat="45.98062" lon="6.45859">
        <ele>1424.33</ele>
        <time>2022-01-16T08:21:40Z</time>
      </trkpt>
      <trkpt lat="45.98058" lon="6.45846">
        <ele>1426.25</ele>
        <time>2022-01-16T08:21:56Z</time>
      </trkpt>
      <trkpt lat="45.98056" lon="6.45836">
        <ele>1429.14</ele>
        <time>2022-01-16T08:22:13Z</time>
      </trkpt>
      <trkpt lat="45.98065" lon="6.45827">
        <ele>1431.54</ele>
        <time>2022-01-16T08:22:29Z</time>
      </trkpt>
      <trkpt lat="45.98075" lon="6.45824">
        <ele>1432.5</ele>
        <time>2022-01-16T08:22:48Z</time>
      </trkpt>
      <trkpt lat="45.98088" lon="6.45815">
        <ele>1434.42</ele>
        <time>2022-01-16T08:23:07Z</time>
      </trkpt>
      <trkpt lat="45.98102" lon="6.45801">
        <ele>1435.87</ele>
        <time>2022-01-16T08:23:28Z</time>
      </trkpt>
      <trkpt lat="45.98114" lon="6.45789">
        <ele>1438.27</ele>
        <time>2022-01-16T08:23:48Z</time>
      </trkpt>
      <trkpt lat="45.98117" lon="6.45774">
        <ele>1439.71</ele>
        <time>2022-01-16T08:24:07Z</time>
      </trkpt>
      <trkpt lat="45.98121" lon="6.45758">
        <ele>1440.19</ele>
        <time>2022-01-16T08:24:25Z</time>
      </trkpt>
      <trkpt lat="45.98123" lon="6.45748">
        <ele>1443.08</ele>
        <time>2022-01-16T08:24:39Z</time>
      </trkpt>
      <trkpt lat="45.98129" lon="6.45727">
        <ele>1445</ele>
        <time>2022-01-16T08:24:59Z</time>
      </trkpt>
      <trkpt lat="45.98137" lon="6.45707">
        <ele>1447.4</ele>
        <time>2022-01-16T08:25:21Z</time>
      </trkpt>
      <trkpt lat="45.98142" lon="6.45686">
        <ele>1450.29</ele>
        <time>2022-01-16T08:25:42Z</time>
      </trkpt>
      <trkpt lat="45.98147" lon="6.4567">
        <ele>1453.17</ele>
        <time>2022-01-16T08:26:04Z</time>
      </trkpt>
      <trkpt lat="45.98155" lon="6.45655">
        <ele>1455.57</ele>
        <time>2022-01-16T08:26:24Z</time>
      </trkpt>
      <trkpt lat="45.98161" lon="6.45639">
        <ele>1457.98</ele>
        <time>2022-01-16T08:26:43Z</time>
      </trkpt>
      <trkpt lat="45.98172" lon="6.4563">
        <ele>1459.42</ele>
        <time>2022-01-16T08:27:01Z</time>
      </trkpt>
      <trkpt lat="45.98182" lon="6.45617">
        <ele>1461.34</ele>
        <time>2022-01-16T08:27:19Z</time>
      </trkpt>
      <trkpt lat="45.98191" lon="6.45606">
        <ele>1462.78</ele>
        <time>2022-01-16T08:27:37Z</time>
      </trkpt>
      <trkpt lat="45.982" lon="6.45587">
        <ele>1465.67</ele>
        <time>2022-01-16T08:28:02Z</time>
      </trkpt>
      <trkpt lat="45.98203" lon="6.45577">
        <ele>1467.59</ele>
        <time>2022-01-16T08:28:20Z</time>
      </trkpt>
      <trkpt lat="45.98206" lon="6.45571">
        <ele>1467.59</ele>
        <time>2022-01-16T08:28:26Z</time>
      </trkpt>
      <trkpt lat="45.98215" lon="6.45555">
        <ele>1469.51</ele>
        <time>2022-01-16T08:28:46Z</time>
      </trkpt>
      <trkpt lat="45.98219" lon="6.45537">
        <ele>1470.95</ele>
        <time>2022-01-16T08:29:03Z</time>
      </trkpt>
      <trkpt lat="45.98216" lon="6.45517">
        <ele>1472.88</ele>
        <time>2022-01-16T08:29:21Z</time>
      </trkpt>
      <trkpt lat="45.98217" lon="6.45505">
        <ele>1474.32</ele>
        <time>2022-01-16T08:29:35Z</time>
      </trkpt>
      <trkpt lat="45.98214" lon="6.45485">
        <ele>1476.24</ele>
        <time>2022-01-16T08:29:52Z</time>
      </trkpt>
      <trkpt lat="45.98211" lon="6.45468">
        <ele>1478.16</ele>
        <time>2022-01-16T08:30:08Z</time>
      </trkpt>
      <trkpt lat="45.98208" lon="6.4545">
        <ele>1479.13</ele>
        <time>2022-01-16T08:30:25Z</time>
      </trkpt>
      <trkpt lat="45.98201" lon="6.45435">
        <ele>1480.09</ele>
        <time>2022-01-16T08:30:41Z</time>
      </trkpt>
      <trkpt lat="45.98199" lon="6.4543">
        <ele>1480.09</ele>
        <time>2022-01-16T08:30:46Z</time>
      </trkpt>
      <trkpt lat="45.98197" lon="6.45424">
        <ele>1478.65</ele>
        <time>2022-01-16T08:30:49Z</time>
      </trkpt>
      <trkpt lat="45.98191" lon="6.45411">
        <ele>1479.61</ele>
        <time>2022-01-16T08:31:01Z</time>
      </trkpt>
      <trkpt lat="45.98186" lon="6.45395">
        <ele>1481.05</ele>
        <time>2022-01-16T08:31:20Z</time>
      </trkpt>
      <trkpt lat="45.98187" lon="6.45386">
        <ele>1481.53</ele>
        <time>2022-01-16T08:31:28Z</time>
      </trkpt>
      <trkpt lat="45.98185" lon="6.45371">
        <ele>1483.93</ele>
        <time>2022-01-16T08:31:44Z</time>
      </trkpt>
      <trkpt lat="45.98184" lon="6.45369">
        <ele>1484.89</ele>
        <time>2022-01-16T08:32:03Z</time>
      </trkpt>
      <trkpt lat="45.98186" lon="6.45371">
        <ele>1483.93</ele>
        <time>2022-01-16T08:32:39Z</time>
      </trkpt>
      <trkpt lat="45.98185" lon="6.45367">
        <ele>1483.93</ele>
        <time>2022-01-16T08:32:57Z</time>
      </trkpt>
      <trkpt lat="45.98186" lon="6.45369">
        <ele>1483.45</ele>
        <time>2022-01-16T08:33:18Z</time>
      </trkpt>
      <trkpt lat="45.98186" lon="6.4537">
        <ele>1485.37</ele>
        <time>2022-01-16T08:33:21Z</time>
      </trkpt>
      <trkpt lat="45.98182" lon="6.45363">
        <ele>1485.85</ele>
        <time>2022-01-16T08:33:37Z</time>
      </trkpt>
      <trkpt lat="45.9818" lon="6.45358">
        <ele>1485.85</ele>
        <time>2022-01-16T08:33:42Z</time>
      </trkpt>
      <trkpt lat="45.98176" lon="6.45341">
        <ele>1487.3</ele>
        <time>2022-01-16T08:33:59Z</time>
      </trkpt>
      <trkpt lat="45.98171" lon="6.4532">
        <ele>1489.7</ele>
        <time>2022-01-16T08:34:18Z</time>
      </trkpt>
      <trkpt lat="45.98168" lon="6.45311">
        <ele>1490.18</ele>
        <time>2022-01-16T08:34:27Z</time>
      </trkpt>
      <trkpt lat="45.98167" lon="6.45291">
        <ele>1492.58</ele>
        <time>2022-01-16T08:34:46Z</time>
      </trkpt>
      <trkpt lat="45.98165" lon="6.45274">
        <ele>1494.99</ele>
        <time>2022-01-16T08:35:06Z</time>
      </trkpt>
      <trkpt lat="45.98161" lon="6.45263">
        <ele>1496.91</ele>
        <time>2022-01-16T08:35:24Z</time>
      </trkpt>
      <trkpt lat="45.98161" lon="6.45261">
        <ele>1498.83</ele>
        <time>2022-01-16T08:35:26Z</time>
      </trkpt>
      <trkpt lat="45.98158" lon="6.45242">
        <ele>1501.24</ele>
        <time>2022-01-16T08:35:49Z</time>
      </trkpt>
      <trkpt lat="45.98154" lon="6.45223">
        <ele>1502.68</ele>
        <time>2022-01-16T08:36:07Z</time>
      </trkpt>
      <trkpt lat="45.98149" lon="6.45208">
        <ele>1505.08</ele>
        <time>2022-01-16T08:36:26Z</time>
      </trkpt>
      <trkpt lat="45.98142" lon="6.4519">
        <ele>1507.48</ele>
        <time>2022-01-16T08:36:46Z</time>
      </trkpt>
      <trkpt lat="45.98141" lon="6.45172">
        <ele>1510.37</ele>
        <time>2022-01-16T08:37:07Z</time>
      </trkpt>
      <trkpt lat="45.98139" lon="6.45156">
        <ele>1513.73</ele>
        <time>2022-01-16T08:37:24Z</time>
      </trkpt>
      <trkpt lat="45.98136" lon="6.45135">
        <ele>1514.69</ele>
        <time>2022-01-16T08:37:44Z</time>
      </trkpt>
      <trkpt lat="45.98136" lon="6.45133">
        <ele>1514.69</ele>
        <time>2022-01-16T08:37:46Z</time>
      </trkpt>
      <trkpt lat="45.98135" lon="6.45128">
        <ele>1514.21</ele>
        <time>2022-01-16T08:37:50Z</time>
      </trkpt>
      <trkpt lat="45.98132" lon="6.45109">
        <ele>1515.66</ele>
        <time>2022-01-16T08:38:05Z</time>
      </trkpt>
      <trkpt lat="45.9813" lon="6.45091">
        <ele>1516.62</ele>
        <time>2022-01-16T08:38:21Z</time>
      </trkpt>
      <trkpt lat="45.98125" lon="6.45073">
        <ele>1517.58</ele>
        <time>2022-01-16T08:38:38Z</time>
      </trkpt>
      <trkpt lat="45.9812" lon="6.45053">
        <ele>1518.54</ele>
        <time>2022-01-16T08:38:55Z</time>
      </trkpt>
      <trkpt lat="45.98118" lon="6.45038">
        <ele>1520.46</ele>
        <time>2022-01-16T08:39:10Z</time>
      </trkpt>
      <trkpt lat="45.98115" lon="6.45022">
        <ele>1522.39</ele>
        <time>2022-01-16T08:39:26Z</time>
      </trkpt>
      <trkpt lat="45.98118" lon="6.45005">
        <ele>1523.83</ele>
        <time>2022-01-16T08:39:43Z</time>
      </trkpt>
      <trkpt lat="45.98118" lon="6.44984">
        <ele>1525.75</ele>
        <time>2022-01-16T08:40:02Z</time>
      </trkpt>
      <trkpt lat="45.98116" lon="6.44965">
        <ele>1528.15</ele>
        <time>2022-01-16T08:40:21Z</time>
      </trkpt>
      <trkpt lat="45.98115" lon="6.44944">
        <ele>1530.56</ele>
        <time>2022-01-16T08:40:40Z</time>
      </trkpt>
      <trkpt lat="45.98115" lon="6.44924">
        <ele>1531.04</ele>
        <time>2022-01-16T08:40:59Z</time>
      </trkpt>
      <trkpt lat="45.98115" lon="6.44905">
        <ele>1533.92</ele>
        <time>2022-01-16T08:41:17Z</time>
      </trkpt>
      <trkpt lat="45.98109" lon="6.44891">
        <ele>1536.32</ele>
        <time>2022-01-16T08:41:35Z</time>
      </trkpt>
      <trkpt lat="45.98101" lon="6.44871">
        <ele>1538.73</ele>
        <time>2022-01-16T08:41:59Z</time>
      </trkpt>
      <trkpt lat="45.98097" lon="6.44858">
        <ele>1540.17</ele>
        <time>2022-01-16T08:42:16Z</time>
      </trkpt>
      <trkpt lat="45.98091" lon="6.44841">
        <ele>1542.57</ele>
        <time>2022-01-16T08:42:34Z</time>
      </trkpt>
      <trkpt lat="45.98088" lon="6.44824">
        <ele>1544.5</ele>
        <time>2022-01-16T08:42:52Z</time>
      </trkpt>
      <trkpt lat="45.98084" lon="6.44811">
        <ele>1545.94</ele>
        <time>2022-01-16T08:43:07Z</time>
      </trkpt>
      <trkpt lat="45.98083" lon="6.44808">
        <ele>1547.38</ele>
        <time>2022-01-16T08:43:11Z</time>
      </trkpt>
      <trkpt lat="45.9808" lon="6.44795">
        <ele>1548.82</ele>
        <time>2022-01-16T08:43:30Z</time>
      </trkpt>
      <trkpt lat="45.98078" lon="6.44776">
        <ele>1549.3</ele>
        <time>2022-01-16T08:43:46Z</time>
      </trkpt>
      <trkpt lat="45.98074" lon="6.44762">
        <ele>1551.71</ele>
        <time>2022-01-16T08:44:02Z</time>
      </trkpt>
      <trkpt lat="45.98072" lon="6.44746">
        <ele>1552.67</ele>
        <time>2022-01-16T08:44:18Z</time>
      </trkpt>
      <trkpt lat="45.98067" lon="6.44738">
        <ele>1554.11</ele>
        <time>2022-01-16T08:44:39Z</time>
      </trkpt>
      <trkpt lat="45.98066" lon="6.44737">
        <ele>1555.55</ele>
        <time>2022-01-16T08:45:05Z</time>
      </trkpt>
      <trkpt lat="45.98067" lon="6.44736">
        <ele>1553.63</ele>
        <time>2022-01-16T08:45:12Z</time>
      </trkpt>
      <trkpt lat="45.98067" lon="6.44736">
        <ele>1555.07</ele>
        <time>2022-01-16T08:45:15Z</time>
      </trkpt>
      <trkpt lat="45.98067" lon="6.44735">
        <ele>1555.07</ele>
        <time>2022-01-16T08:45:48Z</time>
      </trkpt>
      <trkpt lat="45.98062" lon="6.44738">
        <ele>1555.55</ele>
        <time>2022-01-16T08:46:28Z</time>
      </trkpt>
      <trkpt lat="45.98064" lon="6.44736">
        <ele>1554.11</ele>
        <time>2022-01-16T08:46:58Z</time>
      </trkpt>
      <trkpt lat="45.98064" lon="6.44736">
        <ele>1555.55</ele>
        <time>2022-01-16T08:47:00Z</time>
      </trkpt>
      <trkpt lat="45.98068" lon="6.44728">
        <ele>1555.07</ele>
        <time>2022-01-16T08:47:16Z</time>
      </trkpt>
      <trkpt lat="45.98069" lon="6.44711">
        <ele>1556.03</ele>
        <time>2022-01-16T08:47:29Z</time>
      </trkpt>
      <trkpt lat="45.98072" lon="6.44693">
        <ele>1556.51</ele>
        <time>2022-01-16T08:47:45Z</time>
      </trkpt>
      <trkpt lat="45.98073" lon="6.44679">
        <ele>1555.07</ele>
        <time>2022-01-16T08:47:52Z</time>
      </trkpt>
      <trkpt lat="45.98073" lon="6.44672">
        <ele>1556.51</ele>
        <time>2022-01-16T08:47:56Z</time>
      </trkpt>
      <trkpt lat="45.98074" lon="6.44651">
        <ele>1556.99</ele>
        <time>2022-01-16T08:48:13Z</time>
      </trkpt>
      <trkpt lat="45.98076" lon="6.44632">
        <ele>1558.92</ele>
        <time>2022-01-16T08:48:31Z</time>
      </trkpt>
      <trkpt lat="45.98082" lon="6.44615">
        <ele>1560.36</ele>
        <time>2022-01-16T08:48:50Z</time>
      </trkpt>
      <trkpt lat="45.98086" lon="6.44594">
        <ele>1562.28</ele>
        <time>2022-01-16T08:49:08Z</time>
      </trkpt>
      <trkpt lat="45.98087" lon="6.44583">
        <ele>1563.24</ele>
        <time>2022-01-16T08:49:26Z</time>
      </trkpt>
      <trkpt lat="45.98083" lon="6.44571">
        <ele>1565.16</ele>
        <time>2022-01-16T08:49:38Z</time>
      </trkpt>
      <trkpt lat="45.98083" lon="6.4455">
        <ele>1566.61</ele>
        <time>2022-01-16T08:49:56Z</time>
      </trkpt>
      <trkpt lat="45.98082" lon="6.44534">
        <ele>1566.61</ele>
        <time>2022-01-16T08:50:10Z</time>
      </trkpt>
      <trkpt lat="45.98078" lon="6.44517">
        <ele>1567.57</ele>
        <time>2022-01-16T08:50:28Z</time>
      </trkpt>
      <trkpt lat="45.98077" lon="6.44502">
        <ele>1570.93</ele>
        <time>2022-01-16T08:50:46Z</time>
      </trkpt>
      <trkpt lat="45.98076" lon="6.44489">
        <ele>1572.85</ele>
        <time>2022-01-16T08:51:01Z</time>
      </trkpt>
      <trkpt lat="45.98077" lon="6.44469">
        <ele>1576.22</ele>
        <time>2022-01-16T08:51:24Z</time>
      </trkpt>
      <trkpt lat="45.98077" lon="6.44468">
        <ele>1576.22</ele>
        <time>2022-01-16T08:51:25Z</time>
      </trkpt>
      <trkpt lat="45.98078" lon="6.44452">
        <ele>1577.66</ele>
        <time>2022-01-16T08:51:44Z</time>
      </trkpt>
      <trkpt lat="45.98076" lon="6.44434">
        <ele>1579.58</ele>
        <time>2022-01-16T08:52:01Z</time>
      </trkpt>
      <trkpt lat="45.9807" lon="6.4442">
        <ele>1581.99</ele>
        <time>2022-01-16T08:52:20Z</time>
      </trkpt>
      <trkpt lat="45.98071" lon="6.44414">
        <ele>1583.43</ele>
        <time>2022-01-16T08:52:28Z</time>
      </trkpt>
      <trkpt lat="45.98068" lon="6.44403">
        <ele>1585.35</ele>
        <time>2022-01-16T08:52:43Z</time>
      </trkpt>
      <trkpt lat="45.98065" lon="6.44391">
        <ele>1587.75</ele>
        <time>2022-01-16T08:53:02Z</time>
      </trkpt>
      <trkpt lat="45.98063" lon="6.44379">
        <ele>1590.16</ele>
        <time>2022-01-16T08:53:22Z</time>
      </trkpt>
      <trkpt lat="45.98064" lon="6.4437">
        <ele>1593.04</ele>
        <time>2022-01-16T08:53:35Z</time>
      </trkpt>
      <trkpt lat="45.98064" lon="6.44353">
        <ele>1595.45</ele>
        <time>2022-01-16T08:53:57Z</time>
      </trkpt>
      <trkpt lat="45.98067" lon="6.44338">
        <ele>1598.33</ele>
        <time>2022-01-16T08:54:17Z</time>
      </trkpt>
      <trkpt lat="45.98068" lon="6.44326">
        <ele>1600.73</ele>
        <time>2022-01-16T08:54:35Z</time>
      </trkpt>
      <trkpt lat="45.98073" lon="6.44316">
        <ele>1603.62</ele>
        <time>2022-01-16T08:54:54Z</time>
      </trkpt>
      <trkpt lat="45.98076" lon="6.44302">
        <ele>1605.54</ele>
        <time>2022-01-16T08:55:12Z</time>
      </trkpt>
      <trkpt lat="45.98078" lon="6.4429">
        <ele>1608.9</ele>
        <time>2022-01-16T08:55:29Z</time>
      </trkpt>
      <trkpt lat="45.98078" lon="6.44278">
        <ele>1610.83</ele>
        <time>2022-01-16T08:55:46Z</time>
      </trkpt>
      <trkpt lat="45.98078" lon="6.44262">
        <ele>1613.71</ele>
        <time>2022-01-16T08:56:06Z</time>
      </trkpt>
      <trkpt lat="45.98076" lon="6.44246">
        <ele>1616.11</ele>
        <time>2022-01-16T08:56:23Z</time>
      </trkpt>
      <trkpt lat="45.98076" lon="6.44233">
        <ele>1618.52</ele>
        <time>2022-01-16T08:56:42Z</time>
      </trkpt>
      <trkpt lat="45.9807" lon="6.44221">
        <ele>1621.88</ele>
        <time>2022-01-16T08:57:02Z</time>
      </trkpt>
      <trkpt lat="45.98059" lon="6.44213">
        <ele>1624.28</ele>
        <time>2022-01-16T08:57:23Z</time>
      </trkpt>
      <trkpt lat="45.98052" lon="6.442">
        <ele>1625.73</ele>
        <time>2022-01-16T08:57:41Z</time>
      </trkpt>
      <trkpt lat="45.9805" lon="6.44188">
        <ele>1629.09</ele>
        <time>2022-01-16T08:57:58Z</time>
      </trkpt>
      <trkpt lat="45.98046" lon="6.44178">
        <ele>1631.01</ele>
        <time>2022-01-16T08:58:14Z</time>
      </trkpt>
      <trkpt lat="45.98043" lon="6.44173">
        <ele>1632.46</ele>
        <time>2022-01-16T08:58:29Z</time>
      </trkpt>
      <trkpt lat="45.98037" lon="6.44166">
        <ele>1633.9</ele>
        <time>2022-01-16T08:58:48Z</time>
      </trkpt>
      <trkpt lat="45.98034" lon="6.44165">
        <ele>1636.3</ele>
        <time>2022-01-16T08:59:02Z</time>
      </trkpt>
      <trkpt lat="45.98043" lon="6.44155">
        <ele>1638.7</ele>
        <time>2022-01-16T08:59:22Z</time>
      </trkpt>
      <trkpt lat="45.98049" lon="6.44148">
        <ele>1641.11</ele>
        <time>2022-01-16T08:59:38Z</time>
      </trkpt>
      <trkpt lat="45.98051" lon="6.44142">
        <ele>1642.55</ele>
        <time>2022-01-16T08:59:55Z</time>
      </trkpt>
      <trkpt lat="45.9804" lon="6.44131">
        <ele>1645.43</ele>
        <time>2022-01-16T09:00:12Z</time>
      </trkpt>
      <trkpt lat="45.98036" lon="6.44125">
        <ele>1647.84</ele>
        <time>2022-01-16T09:00:31Z</time>
      </trkpt>
      <trkpt lat="45.98039" lon="6.44114">
        <ele>1650.24</ele>
        <time>2022-01-16T09:00:51Z</time>
      </trkpt>
      <trkpt lat="45.98036" lon="6.44108">
        <ele>1651.68</ele>
        <time>2022-01-16T09:01:05Z</time>
      </trkpt>
      <trkpt lat="45.98031" lon="6.44106">
        <ele>1655.05</ele>
        <time>2022-01-16T09:01:21Z</time>
      </trkpt>
      <trkpt lat="45.98023" lon="6.44091">
        <ele>1657.45</ele>
        <time>2022-01-16T09:01:48Z</time>
      </trkpt>
      <trkpt lat="45.98015" lon="6.44081">
        <ele>1659.85</ele>
        <time>2022-01-16T09:02:06Z</time>
      </trkpt>
      <trkpt lat="45.98014" lon="6.44076">
        <ele>1663.7</ele>
        <time>2022-01-16T09:02:21Z</time>
      </trkpt>
      <trkpt lat="45.98021" lon="6.44071">
        <ele>1665.14</ele>
        <time>2022-01-16T09:02:35Z</time>
      </trkpt>
      <trkpt lat="45.98021" lon="6.44061">
        <ele>1668.02</ele>
        <time>2022-01-16T09:02:54Z</time>
      </trkpt>
      <trkpt lat="45.98014" lon="6.44049">
        <ele>1671.87</ele>
        <time>2022-01-16T09:03:12Z</time>
      </trkpt>
      <trkpt lat="45.98022" lon="6.44043">
        <ele>1674.75</ele>
        <time>2022-01-16T09:03:32Z</time>
      </trkpt>
      <trkpt lat="45.98023" lon="6.44043">
        <ele>1674.75</ele>
        <time>2022-01-16T09:03:33Z</time>
      </trkpt>
      <trkpt lat="45.98031" lon="6.44035">
        <ele>1676.68</ele>
        <time>2022-01-16T09:03:51Z</time>
      </trkpt>
      <trkpt lat="45.9804" lon="6.44029">
        <ele>1679.56</ele>
        <time>2022-01-16T09:04:09Z</time>
      </trkpt>
      <trkpt lat="45.98044" lon="6.44019">
        <ele>1681</ele>
        <time>2022-01-16T09:04:28Z</time>
      </trkpt>
      <trkpt lat="45.98041" lon="6.44005">
        <ele>1684.37</ele>
        <time>2022-01-16T09:04:50Z</time>
      </trkpt>
      <trkpt lat="45.98034" lon="6.43994">
        <ele>1687.25</ele>
        <time>2022-01-16T09:05:09Z</time>
      </trkpt>
      <trkpt lat="45.98027" lon="6.43985">
        <ele>1689.65</ele>
        <time>2022-01-16T09:05:27Z</time>
      </trkpt>
      <trkpt lat="45.98021" lon="6.43982">
        <ele>1691.1</ele>
        <time>2022-01-16T09:05:38Z</time>
      </trkpt>
      <trkpt lat="45.98017" lon="6.4398">
        <ele>1693.98</ele>
        <time>2022-01-16T09:05:56Z</time>
      </trkpt>
      <trkpt lat="45.98024" lon="6.43969">
        <ele>1696.38</ele>
        <time>2022-01-16T09:06:16Z</time>
      </trkpt>
      <trkpt lat="45.98028" lon="6.43962">
        <ele>1698.31</ele>
        <time>2022-01-16T09:06:29Z</time>
      </trkpt>
      <trkpt lat="45.98039" lon="6.43959">
        <ele>1699.75</ele>
        <time>2022-01-16T09:06:47Z</time>
      </trkpt>
      <trkpt lat="45.98038" lon="6.43953">
        <ele>1701.67</ele>
        <time>2022-01-16T09:07:04Z</time>
      </trkpt>
      <trkpt lat="45.98029" lon="6.43943">
        <ele>1703.11</ele>
        <time>2022-01-16T09:07:20Z</time>
      </trkpt>
      <trkpt lat="45.98027" lon="6.43942">
        <ele>1704.55</ele>
        <time>2022-01-16T09:07:24Z</time>
      </trkpt>
      <trkpt lat="45.98029" lon="6.43944">
        <ele>1706</ele>
        <time>2022-01-16T09:07:37Z</time>
      </trkpt>
      <trkpt lat="45.98036" lon="6.4394">
        <ele>1706</ele>
        <time>2022-01-16T09:07:55Z</time>
      </trkpt>
      <trkpt lat="45.98036" lon="6.43938">
        <ele>1706.96</ele>
        <time>2022-01-16T09:08:08Z</time>
      </trkpt>
      <trkpt lat="45.98035" lon="6.43937">
        <ele>1708.4</ele>
        <time>2022-01-16T09:08:12Z</time>
      </trkpt>
      <trkpt lat="45.98024" lon="6.43929">
        <ele>1709.84</ele>
        <time>2022-01-16T09:08:28Z</time>
      </trkpt>
      <trkpt lat="45.98013" lon="6.43921">
        <ele>1712.25</ele>
        <time>2022-01-16T09:08:45Z</time>
      </trkpt>
      <trkpt lat="45.98007" lon="6.43918">
        <ele>1713.21</ele>
        <time>2022-01-16T09:09:03Z</time>
      </trkpt>
      <trkpt lat="45.98005" lon="6.43914">
        <ele>1715.13</ele>
        <time>2022-01-16T09:09:19Z</time>
      </trkpt>
      <trkpt lat="45.98005" lon="6.43911">
        <ele>1717.53</ele>
        <time>2022-01-16T09:09:36Z</time>
      </trkpt>
      <trkpt lat="45.97999" lon="6.43899">
        <ele>1720.9</ele>
        <time>2022-01-16T09:09:55Z</time>
      </trkpt>
      <trkpt lat="45.97996" lon="6.43893">
        <ele>1723.3</ele>
        <time>2022-01-16T09:10:14Z</time>
      </trkpt>
      <trkpt lat="45.9799" lon="6.43892">
        <ele>1726.67</ele>
        <time>2022-01-16T09:10:32Z</time>
      </trkpt>
      <trkpt lat="45.97994" lon="6.4388">
        <ele>1730.03</ele>
        <time>2022-01-16T09:10:50Z</time>
      </trkpt>
      <trkpt lat="45.98" lon="6.43873">
        <ele>1732.43</ele>
        <time>2022-01-16T09:11:08Z</time>
      </trkpt>
      <trkpt lat="45.98001" lon="6.43855">
        <ele>1735.32</ele>
        <time>2022-01-16T09:11:27Z</time>
      </trkpt>
      <trkpt lat="45.98006" lon="6.43847">
        <ele>1738.68</ele>
        <time>2022-01-16T09:11:46Z</time>
      </trkpt>
      <trkpt lat="45.9801" lon="6.43833">
        <ele>1740.6</ele>
        <time>2022-01-16T09:12:04Z</time>
      </trkpt>
      <trkpt lat="45.98012" lon="6.43815">
        <ele>1743.49</ele>
        <time>2022-01-16T09:12:23Z</time>
      </trkpt>
      <trkpt lat="45.98011" lon="6.4381">
        <ele>1743.97</ele>
        <time>2022-01-16T09:12:30Z</time>
      </trkpt>
      <trkpt lat="45.98012" lon="6.43787">
        <ele>1746.85</ele>
        <time>2022-01-16T09:12:51Z</time>
      </trkpt>
      <trkpt lat="45.98011" lon="6.43775">
        <ele>1750.7</ele>
        <time>2022-01-16T09:13:07Z</time>
      </trkpt>
      <trkpt lat="45.98011" lon="6.43767">
        <ele>1750.7</ele>
        <time>2022-01-16T09:13:15Z</time>
      </trkpt>
      <trkpt lat="45.98003" lon="6.43746">
        <ele>1753.58</ele>
        <time>2022-01-16T09:13:33Z</time>
      </trkpt>
      <trkpt lat="45.98001" lon="6.43726">
        <ele>1755.5</ele>
        <time>2022-01-16T09:13:53Z</time>
      </trkpt>
      <trkpt lat="45.97995" lon="6.43709">
        <ele>1756.47</ele>
        <time>2022-01-16T09:14:12Z</time>
      </trkpt>
      <trkpt lat="45.97988" lon="6.43693">
        <ele>1759.83</ele>
        <time>2022-01-16T09:14:29Z</time>
      </trkpt>
      <trkpt lat="45.97984" lon="6.43679">
        <ele>1760.79</ele>
        <time>2022-01-16T09:14:46Z</time>
      </trkpt>
      <trkpt lat="45.9798" lon="6.43659">
        <ele>1762.23</ele>
        <time>2022-01-16T09:15:06Z</time>
      </trkpt>
      <trkpt lat="45.97972" lon="6.43645">
        <ele>1765.12</ele>
        <time>2022-01-16T09:15:23Z</time>
      </trkpt>
      <trkpt lat="45.97971" lon="6.43634">
        <ele>1767.04</ele>
        <time>2022-01-16T09:15:41Z</time>
      </trkpt>
      <trkpt lat="45.97967" lon="6.43618">
        <ele>1769.92</ele>
        <time>2022-01-16T09:16:01Z</time>
      </trkpt>
      <trkpt lat="45.97962" lon="6.43608">
        <ele>1772.33</ele>
        <time>2022-01-16T09:16:18Z</time>
      </trkpt>
      <trkpt lat="45.97952" lon="6.43598">
        <ele>1774.73</ele>
        <time>2022-01-16T09:16:34Z</time>
      </trkpt>
      <trkpt lat="45.97954" lon="6.43596">
        <ele>1776.65</ele>
        <time>2022-01-16T09:16:51Z</time>
      </trkpt>
      <trkpt lat="45.97959" lon="6.4359">
        <ele>1778.58</ele>
        <time>2022-01-16T09:17:10Z</time>
      </trkpt>
      <trkpt lat="45.97966" lon="6.43585">
        <ele>1780.02</ele>
        <time>2022-01-16T09:17:25Z</time>
      </trkpt>
      <trkpt lat="45.97961" lon="6.43576">
        <ele>1782.42</ele>
        <time>2022-01-16T09:17:40Z</time>
      </trkpt>
      <trkpt lat="45.97956" lon="6.4357">
        <ele>1784.34</ele>
        <time>2022-01-16T09:17:57Z</time>
      </trkpt>
      <trkpt lat="45.97953" lon="6.43566">
        <ele>1785.79</ele>
        <time>2022-01-16T09:18:12Z</time>
      </trkpt>
      <trkpt lat="45.97945" lon="6.43558">
        <ele>1789.15</ele>
        <time>2022-01-16T09:18:30Z</time>
      </trkpt>
      <trkpt lat="45.97944" lon="6.43557">
        <ele>1789.15</ele>
        <time>2022-01-16T09:18:31Z</time>
      </trkpt>
      <trkpt lat="45.97939" lon="6.43551">
        <ele>1791.07</ele>
        <time>2022-01-16T09:18:50Z</time>
      </trkpt>
      <trkpt lat="45.97933" lon="6.43542">
        <ele>1793.48</ele>
        <time>2022-01-16T09:19:10Z</time>
      </trkpt>
      <trkpt lat="45.97937" lon="6.43544">
        <ele>1794.92</ele>
        <time>2022-01-16T09:19:21Z</time>
      </trkpt>
      <trkpt lat="45.97941" lon="6.43541">
        <ele>1796.84</ele>
        <time>2022-01-16T09:19:32Z</time>
      </trkpt>
      <trkpt lat="45.97941" lon="6.43531">
        <ele>1798.76</ele>
        <time>2022-01-16T09:19:50Z</time>
      </trkpt>
      <trkpt lat="45.9794" lon="6.43526">
        <ele>1800.21</ele>
        <time>2022-01-16T09:19:56Z</time>
      </trkpt>
      <trkpt lat="45.97935" lon="6.43515">
        <ele>1802.61</ele>
        <time>2022-01-16T09:20:15Z</time>
      </trkpt>
      <trkpt lat="45.97927" lon="6.43505">
        <ele>1805.49</ele>
        <time>2022-01-16T09:20:35Z</time>
      </trkpt>
      <trkpt lat="45.97918" lon="6.43494">
        <ele>1807.9</ele>
        <time>2022-01-16T09:20:55Z</time>
      </trkpt>
      <trkpt lat="45.97916" lon="6.43484">
        <ele>1811.26</ele>
        <time>2022-01-16T09:21:13Z</time>
      </trkpt>
      <trkpt lat="45.9792" lon="6.43474">
        <ele>1813.66</ele>
        <time>2022-01-16T09:21:32Z</time>
      </trkpt>
      <trkpt lat="45.97916" lon="6.43459">
        <ele>1817.03</ele>
        <time>2022-01-16T09:21:51Z</time>
      </trkpt>
      <trkpt lat="45.97911" lon="6.43444">
        <ele>1819.91</ele>
        <time>2022-01-16T09:22:06Z</time>
      </trkpt>
      <trkpt lat="45.9791" lon="6.4344">
        <ele>1820.39</ele>
        <time>2022-01-16T09:22:12Z</time>
      </trkpt>
      <trkpt lat="45.97906" lon="6.43423">
        <ele>1822.8</ele>
        <time>2022-01-16T09:22:34Z</time>
      </trkpt>
      <trkpt lat="45.97905" lon="6.43411">
        <ele>1825.2</ele>
        <time>2022-01-16T09:22:51Z</time>
      </trkpt>
      <trkpt lat="45.97904" lon="6.43405">
        <ele>1825.68</ele>
        <time>2022-01-16T09:23:00Z</time>
      </trkpt>
      <trkpt lat="45.979" lon="6.43387">
        <ele>1829.05</ele>
        <time>2022-01-16T09:23:20Z</time>
      </trkpt>
      <trkpt lat="45.97898" lon="6.43375">
        <ele>1831.45</ele>
        <time>2022-01-16T09:23:38Z</time>
      </trkpt>
      <trkpt lat="45.97897" lon="6.43363">
        <ele>1833.37</ele>
        <time>2022-01-16T09:23:56Z</time>
      </trkpt>
      <trkpt lat="45.97893" lon="6.43354">
        <ele>1835.77</ele>
        <time>2022-01-16T09:24:10Z</time>
      </trkpt>
      <trkpt lat="45.97889" lon="6.43338">
        <ele>1837.22</ele>
        <time>2022-01-16T09:24:28Z</time>
      </trkpt>
      <trkpt lat="45.97887" lon="6.43325">
        <ele>1838.18</ele>
        <time>2022-01-16T09:24:42Z</time>
      </trkpt>
      <trkpt lat="45.97884" lon="6.43307">
        <ele>1840.58</ele>
        <time>2022-01-16T09:25:00Z</time>
      </trkpt>
      <trkpt lat="45.97881" lon="6.43287">
        <ele>1842.5</ele>
        <time>2022-01-16T09:25:17Z</time>
      </trkpt>
      <trkpt lat="45.9788" lon="6.43264">
        <ele>1843.95</ele>
        <time>2022-01-16T09:25:40Z</time>
      </trkpt>
      <trkpt lat="45.97879" lon="6.43259">
        <ele>1845.39</ele>
        <time>2022-01-16T09:25:48Z</time>
      </trkpt>
      <trkpt lat="45.97875" lon="6.43247">
        <ele>1847.79</ele>
        <time>2022-01-16T09:26:03Z</time>
      </trkpt>
      <trkpt lat="45.97871" lon="6.43238">
        <ele>1851.16</ele>
        <time>2022-01-16T09:26:18Z</time>
      </trkpt>
      <trkpt lat="45.97869" lon="6.43227">
        <ele>1853.08</ele>
        <time>2022-01-16T09:26:33Z</time>
      </trkpt>
      <trkpt lat="45.97866" lon="6.43219">
        <ele>1854.52</ele>
        <time>2022-01-16T09:26:44Z</time>
      </trkpt>
      <trkpt lat="45.9786" lon="6.43206">
        <ele>1856.92</ele>
        <time>2022-01-16T09:27:03Z</time>
      </trkpt>
      <trkpt lat="45.97857" lon="6.43202">
        <ele>1857.89</ele>
        <time>2022-01-16T09:27:16Z</time>
      </trkpt>
      <trkpt lat="45.97849" lon="6.43195">
        <ele>1860.77</ele>
        <time>2022-01-16T09:27:33Z</time>
      </trkpt>
      <trkpt lat="45.97842" lon="6.43188">
        <ele>1862.21</ele>
        <time>2022-01-16T09:27:50Z</time>
      </trkpt>
      <trkpt lat="45.97839" lon="6.43185">
        <ele>1863.65</ele>
        <time>2022-01-16T09:27:55Z</time>
      </trkpt>
      <trkpt lat="45.97829" lon="6.43187">
        <ele>1865.58</ele>
        <time>2022-01-16T09:28:12Z</time>
      </trkpt>
      <trkpt lat="45.97819" lon="6.43185">
        <ele>1867.98</ele>
        <time>2022-01-16T09:28:31Z</time>
      </trkpt>
      <trkpt lat="45.97818" lon="6.43182">
        <ele>1871.34</ele>
        <time>2022-01-16T09:28:49Z</time>
      </trkpt>
      <trkpt lat="45.97816" lon="6.43173">
        <ele>1874.23</ele>
        <time>2022-01-16T09:29:05Z</time>
      </trkpt>
      <trkpt lat="45.97816" lon="6.43165">
        <ele>1874.71</ele>
        <time>2022-01-16T09:29:25Z</time>
      </trkpt>
      <trkpt lat="45.97816" lon="6.43166">
        <ele>1874.23</ele>
        <time>2022-01-16T09:29:27Z</time>
      </trkpt>
      <trkpt lat="45.97815" lon="6.43169">
        <ele>1873.27</ele>
        <time>2022-01-16T09:29:44Z</time>
      </trkpt>
      <trkpt lat="45.97815" lon="6.43167">
        <ele>1873.75</ele>
        <time>2022-01-16T09:30:09Z</time>
      </trkpt>
      <trkpt lat="45.97817" lon="6.4317">
        <ele>1873.75</ele>
        <time>2022-01-16T09:30:38Z</time>
      </trkpt>
      <trkpt lat="45.97817" lon="6.43169">
        <ele>1874.23</ele>
        <time>2022-01-16T09:31:04Z</time>
      </trkpt>
      <trkpt lat="45.97816" lon="6.4317">
        <ele>1874.23</ele>
        <time>2022-01-16T09:31:29Z</time>
      </trkpt>
      <trkpt lat="45.97816" lon="6.43169">
        <ele>1874.23</ele>
        <time>2022-01-16T09:31:56Z</time>
      </trkpt>
      <trkpt lat="45.97817" lon="6.43172">
        <ele>1874.23</ele>
        <time>2022-01-16T09:32:30Z</time>
      </trkpt>
      <trkpt lat="45.97816" lon="6.4317">
        <ele>1874.71</ele>
        <time>2022-01-16T09:32:57Z</time>
      </trkpt>
      <trkpt lat="45.97816" lon="6.43169">
        <ele>1874.71</ele>
        <time>2022-01-16T09:33:29Z</time>
      </trkpt>
      <trkpt lat="45.97816" lon="6.43169">
        <ele>1875.19</ele>
        <time>2022-01-16T09:33:44Z</time>
      </trkpt>
      <trkpt lat="45.97817" lon="6.4317">
        <ele>1874.23</ele>
        <time>2022-01-16T09:34:11Z</time>
      </trkpt>
      <trkpt lat="45.97816" lon="6.43168">
        <ele>1874.23</ele>
        <time>2022-01-16T09:34:48Z</time>
      </trkpt>
      <trkpt lat="45.97818" lon="6.43171">
        <ele>1874.23</ele>
        <time>2022-01-16T09:35:21Z</time>
      </trkpt>
      <trkpt lat="45.97818" lon="6.43169">
        <ele>1875.67</ele>
        <time>2022-01-16T09:35:47Z</time>
      </trkpt>
      <trkpt lat="45.97817" lon="6.4317">
        <ele>1875.67</ele>
        <time>2022-01-16T09:36:17Z</time>
      </trkpt>
      <trkpt lat="45.9782" lon="6.43161">
        <ele>1877.59</ele>
        <time>2022-01-16T09:36:35Z</time>
      </trkpt>
      <trkpt lat="45.97827" lon="6.43148">
        <ele>1878.55</ele>
        <time>2022-01-16T09:36:55Z</time>
      </trkpt>
      <trkpt lat="45.9783" lon="6.43141">
        <ele>1881.92</ele>
        <time>2022-01-16T09:37:08Z</time>
      </trkpt>
      <trkpt lat="45.97839" lon="6.43141">
        <ele>1882.88</ele>
        <time>2022-01-16T09:37:28Z</time>
      </trkpt>
      <trkpt lat="45.97844" lon="6.43142">
        <ele>1886.24</ele>
        <time>2022-01-16T09:37:40Z</time>
      </trkpt>
      <trkpt lat="45.97846" lon="6.43142">
        <ele>1886.72</ele>
        <time>2022-01-16T09:37:46Z</time>
      </trkpt>
      <trkpt lat="45.97854" lon="6.43138">
        <ele>1888.65</ele>
        <time>2022-01-16T09:38:05Z</time>
      </trkpt>
      <trkpt lat="45.97856" lon="6.43137">
        <ele>1890.09</ele>
        <time>2022-01-16T09:38:24Z</time>
      </trkpt>
      <trkpt lat="45.97852" lon="6.43127">
        <ele>1892.01</ele>
        <time>2022-01-16T09:38:45Z</time>
      </trkpt>
      <trkpt lat="45.97855" lon="6.43126">
        <ele>1895.86</ele>
        <time>2022-01-16T09:39:03Z</time>
      </trkpt>
      <trkpt lat="45.9786" lon="6.43125">
        <ele>1897.78</ele>
        <time>2022-01-16T09:39:20Z</time>
      </trkpt>
      <trkpt lat="45.97868" lon="6.43124">
        <ele>1900.18</ele>
        <time>2022-01-16T09:39:36Z</time>
      </trkpt>
      <trkpt lat="45.97875" lon="6.43123">
        <ele>1902.11</ele>
        <time>2022-01-16T09:39:53Z</time>
      </trkpt>
      <trkpt lat="45.97884" lon="6.43123">
        <ele>1904.03</ele>
        <time>2022-01-16T09:40:10Z</time>
      </trkpt>
      <trkpt lat="45.9789" lon="6.43127">
        <ele>1906.91</ele>
        <time>2022-01-16T09:40:26Z</time>
      </trkpt>
      <trkpt lat="45.97892" lon="6.43127">
        <ele>1905.95</ele>
        <time>2022-01-16T09:40:29Z</time>
      </trkpt>
      <trkpt lat="45.97892" lon="6.43128">
        <ele>1907.39</ele>
        <time>2022-01-16T09:40:32Z</time>
      </trkpt>
      <trkpt lat="45.97894" lon="6.43127">
        <ele>1907.87</ele>
        <time>2022-01-16T09:40:36Z</time>
      </trkpt>
      <trkpt lat="45.97902" lon="6.43129">
        <ele>1909.8</ele>
        <time>2022-01-16T09:40:52Z</time>
      </trkpt>
      <trkpt lat="45.97908" lon="6.4313">
        <ele>1912.2</ele>
        <time>2022-01-16T09:41:08Z</time>
      </trkpt>
      <trkpt lat="45.97915" lon="6.43131">
        <ele>1914.6</ele>
        <time>2022-01-16T09:41:25Z</time>
      </trkpt>
      <trkpt lat="45.97922" lon="6.43133">
        <ele>1916.53</ele>
        <time>2022-01-16T09:41:41Z</time>
      </trkpt>
      <trkpt lat="45.97928" lon="6.43135">
        <ele>1919.41</ele>
        <time>2022-01-16T09:41:58Z</time>
      </trkpt>
      <trkpt lat="45.97937" lon="6.4314">
        <ele>1921.81</ele>
        <time>2022-01-16T09:42:17Z</time>
      </trkpt>
      <trkpt lat="45.97946" lon="6.43146">
        <ele>1923.74</ele>
        <time>2022-01-16T09:42:37Z</time>
      </trkpt>
      <trkpt lat="45.97953" lon="6.43149">
        <ele>1926.62</ele>
        <time>2022-01-16T09:42:56Z</time>
      </trkpt>
      <trkpt lat="45.9796" lon="6.43153">
        <ele>1929.02</ele>
        <time>2022-01-16T09:43:15Z</time>
      </trkpt>
      <trkpt lat="45.97969" lon="6.43157">
        <ele>1931.43</ele>
        <time>2022-01-16T09:43:33Z</time>
      </trkpt>
      <trkpt lat="45.97974" lon="6.43163">
        <ele>1933.35</ele>
        <time>2022-01-16T09:43:48Z</time>
      </trkpt>
      <trkpt lat="45.97978" lon="6.43168">
        <ele>1935.27</ele>
        <time>2022-01-16T09:44:01Z</time>
      </trkpt>
      <trkpt lat="45.97985" lon="6.43172">
        <ele>1937.19</ele>
        <time>2022-01-16T09:44:18Z</time>
      </trkpt>
      <trkpt lat="45.97992" lon="6.43178">
        <ele>1940.08</ele>
        <time>2022-01-16T09:44:36Z</time>
      </trkpt>
      <trkpt lat="45.97999" lon="6.43184">
        <ele>1942</ele>
        <time>2022-01-16T09:44:53Z</time>
      </trkpt>
      <trkpt lat="45.98006" lon="6.43187">
        <ele>1944.4</ele>
        <time>2022-01-16T09:45:10Z</time>
      </trkpt>
      <trkpt lat="45.98012" lon="6.43191">
        <ele>1945.36</ele>
        <time>2022-01-16T09:45:24Z</time>
      </trkpt>
      <trkpt lat="45.98019" lon="6.43196">
        <ele>1948.73</ele>
        <time>2022-01-16T09:45:41Z</time>
      </trkpt>
      <trkpt lat="45.98026" lon="6.43203">
        <ele>1950.17</ele>
        <time>2022-01-16T09:45:58Z</time>
      </trkpt>
      <trkpt lat="45.98033" lon="6.43209">
        <ele>1952.57</ele>
        <time>2022-01-16T09:46:17Z</time>
      </trkpt>
      <trkpt lat="45.98041" lon="6.43214">
        <ele>1954.5</ele>
        <time>2022-01-16T09:46:34Z</time>
      </trkpt>
      <trkpt lat="45.98047" lon="6.43218">
        <ele>1956.9</ele>
        <time>2022-01-16T09:46:51Z</time>
      </trkpt>
      <trkpt lat="45.98055" lon="6.43224">
        <ele>1958.82</ele>
        <time>2022-01-16T09:47:09Z</time>
      </trkpt>
      <trkpt lat="45.98058" lon="6.43226">
        <ele>1959.3</ele>
        <time>2022-01-16T09:47:27Z</time>
      </trkpt>
      <trkpt lat="45.98063" lon="6.43227">
        <ele>1958.82</ele>
        <time>2022-01-16T09:47:52Z</time>
      </trkpt>
      <trkpt lat="45.9807" lon="6.43233">
        <ele>1960.27</ele>
        <time>2022-01-16T09:48:07Z</time>
      </trkpt>
      <trkpt lat="45.98073" lon="6.43235">
        <ele>1960.27</ele>
        <time>2022-01-16T09:48:12Z</time>
      </trkpt>
      <trkpt lat="45.9808" lon="6.43243">
        <ele>1960.75</ele>
        <time>2022-01-16T09:48:26Z</time>
      </trkpt>
      <trkpt lat="45.98087" lon="6.43256">
        <ele>1962.19</ele>
        <time>2022-01-16T09:48:46Z</time>
      </trkpt>
      <trkpt lat="45.98097" lon="6.43265">
        <ele>1961.71</ele>
        <time>2022-01-16T09:49:05Z</time>
      </trkpt>
      <trkpt lat="45.98101" lon="6.4327">
        <ele>1963.15</ele>
        <time>2022-01-16T09:49:14Z</time>
      </trkpt>
      <trkpt lat="45.98109" lon="6.4328">
        <ele>1964.11</ele>
        <time>2022-01-16T09:49:31Z</time>
      </trkpt>
      <trkpt lat="45.98111" lon="6.43286">
        <ele>1964.59</ele>
        <time>2022-01-16T09:49:49Z</time>
      </trkpt>
      <trkpt lat="45.98119" lon="6.43291">
        <ele>1965.07</ele>
        <time>2022-01-16T09:50:05Z</time>
      </trkpt>
      <trkpt lat="45.98126" lon="6.43303">
        <ele>1965.55</ele>
        <time>2022-01-16T09:50:25Z</time>
      </trkpt>
      <trkpt lat="45.98131" lon="6.43308">
        <ele>1964.59</ele>
        <time>2022-01-16T09:50:36Z</time>
      </trkpt>
      <trkpt lat="45.98139" lon="6.43315">
        <ele>1964.11</ele>
        <time>2022-01-16T09:50:54Z</time>
      </trkpt>
      <trkpt lat="45.98146" lon="6.4332">
        <ele>1967.48</ele>
        <time>2022-01-16T09:51:11Z</time>
      </trkpt>
      <trkpt lat="45.9815" lon="6.43323">
        <ele>1966.51</ele>
        <time>2022-01-16T09:51:29Z</time>
      </trkpt>
      <trkpt lat="45.98152" lon="6.43329">
        <ele>1966.03</ele>
        <time>2022-01-16T09:51:50Z</time>
      </trkpt>
      <trkpt lat="45.98154" lon="6.43333">
        <ele>1966.03</ele>
        <time>2022-01-16T09:52:14Z</time>
      </trkpt>
      <trkpt lat="45.98158" lon="6.43336">
        <ele>1966.51</ele>
        <time>2022-01-16T09:52:33Z</time>
      </trkpt>
      <trkpt lat="45.98159" lon="6.43336">
        <ele>1965.55</ele>
        <time>2022-01-16T09:52:38Z</time>
      </trkpt>
      <trkpt lat="45.98167" lon="6.43345">
        <ele>1965.55</ele>
        <time>2022-01-16T09:53:00Z</time>
      </trkpt>
      <trkpt lat="45.98165" lon="6.43349">
        <ele>1964.11</ele>
        <time>2022-01-16T09:53:12Z</time>
      </trkpt>
      <trkpt lat="45.98165" lon="6.43351">
        <ele>1962.67</ele>
        <time>2022-01-16T09:53:28Z</time>
      </trkpt>
      <trkpt lat="45.98165" lon="6.43352">
        <ele>1963.63</ele>
        <time>2022-01-16T09:53:30Z</time>
      </trkpt>
      <trkpt lat="45.98166" lon="6.43352">
        <ele>1961.71</ele>
        <time>2022-01-16T09:53:44Z</time>
      </trkpt>
      <trkpt lat="45.98167" lon="6.43355">
        <ele>1961.71</ele>
        <time>2022-01-16T09:53:55Z</time>
      </trkpt>
      <trkpt lat="45.98165" lon="6.43356">
        <ele>1961.23</ele>
        <time>2022-01-16T09:54:00Z</time>
      </trkpt>
      <trkpt lat="45.98167" lon="6.43356">
        <ele>1961.71</ele>
        <time>2022-01-16T09:54:24Z</time>
      </trkpt>
      <trkpt lat="45.98166" lon="6.43356">
        <ele>1962.67</ele>
        <time>2022-01-16T09:54:44Z</time>
      </trkpt>
      <trkpt lat="45.98166" lon="6.43356">
        <ele>1958.82</ele>
        <time>2022-01-16T09:54:57Z</time>
      </trkpt>
      <trkpt lat="45.98166" lon="6.43357">
        <ele>1963.15</ele>
        <time>2022-01-16T09:54:59Z</time>
      </trkpt>
      <trkpt lat="45.98168" lon="6.43355">
        <ele>1958.82</ele>
        <time>2022-01-16T09:55:04Z</time>
      </trkpt>
      <trkpt lat="45.98169" lon="6.4336">
        <ele>1960.27</ele>
        <time>2022-01-16T09:55:09Z</time>
      </trkpt>
      <trkpt lat="45.98174" lon="6.4337">
        <ele>1956.9</ele>
        <time>2022-01-16T09:55:25Z</time>
      </trkpt>
      <trkpt lat="45.98175" lon="6.43371">
        <ele>1960.75</ele>
        <time>2022-01-16T09:55:31Z</time>
      </trkpt>
      <trkpt lat="45.98175" lon="6.43371">
        <ele>1960.75</ele>
        <time>2022-01-16T09:55:32Z</time>
      </trkpt>
      <trkpt lat="45.98175" lon="6.43372">
        <ele>1957.86</ele>
        <time>2022-01-16T09:55:33Z</time>
      </trkpt>
      <trkpt lat="45.98175" lon="6.43374">
        <ele>1956.9</ele>
        <time>2022-01-16T09:55:35Z</time>
      </trkpt>
      <trkpt lat="45.98175" lon="6.43375">
        <ele>1958.82</ele>
        <time>2022-01-16T09:55:38Z</time>
      </trkpt>
      <trkpt lat="45.98176" lon="6.43377">
        <ele>1954.5</ele>
        <time>2022-01-16T09:55:41Z</time>
      </trkpt>
      <trkpt lat="45.98176" lon="6.43377">
        <ele>1957.86</ele>
        <time>2022-01-16T09:55:42Z</time>
      </trkpt>
      <trkpt lat="45.98178" lon="6.43379">
        <ele>1956.9</ele>
        <time>2022-01-16T09:55:58Z</time>
      </trkpt>
      <trkpt lat="45.98177" lon="6.43379">
        <ele>1956.9</ele>
        <time>2022-01-16T09:55:59Z</time>
      </trkpt>
      <trkpt lat="45.9818" lon="6.43377">
        <ele>1955.46</ele>
        <time>2022-01-16T09:56:23Z</time>
      </trkpt>
      <trkpt lat="45.9818" lon="6.43376">
        <ele>1956.9</ele>
        <time>2022-01-16T09:56:29Z</time>
      </trkpt>
      <trkpt lat="45.98181" lon="6.43376">
        <ele>1954.98</ele>
        <time>2022-01-16T09:56:31Z</time>
      </trkpt>
      <trkpt lat="45.98181" lon="6.43381">
        <ele>1956.42</ele>
        <time>2022-01-16T09:56:38Z</time>
      </trkpt>
      <trkpt lat="45.9818" lon="6.43381">
        <ele>1954.98</ele>
        <time>2022-01-16T09:56:41Z</time>
      </trkpt>
      <trkpt lat="45.9818" lon="6.43383">
        <ele>1954.5</ele>
        <time>2022-01-16T09:57:04Z</time>
      </trkpt>
      <trkpt lat="45.9818" lon="6.43383">
        <ele>1954.5</ele>
        <time>2022-01-16T09:57:27Z</time>
      </trkpt>
      <trkpt lat="45.98181" lon="6.43383">
        <ele>1954.5</ele>
        <time>2022-01-16T09:57:52Z</time>
      </trkpt>
      <trkpt lat="45.98179" lon="6.43385">
        <ele>1954.5</ele>
        <time>2022-01-16T09:58:12Z</time>
      </trkpt>
      <trkpt lat="45.9818" lon="6.43385">
        <ele>1955.94</ele>
        <time>2022-01-16T09:58:17Z</time>
      </trkpt>
      <trkpt lat="45.9818" lon="6.43384">
        <ele>1954.98</ele>
        <time>2022-01-16T09:58:25Z</time>
      </trkpt>
      <trkpt lat="45.98182" lon="6.43384">
        <ele>1954.98</ele>
        <time>2022-01-16T09:58:45Z</time>
      </trkpt>
      <trkpt lat="45.9818" lon="6.43386">
        <ele>1955.94</ele>
        <time>2022-01-16T09:58:50Z</time>
      </trkpt>
      <trkpt lat="45.98182" lon="6.4338">
        <ele>1955.46</ele>
        <time>2022-01-16T09:59:19Z</time>
      </trkpt>
      <trkpt lat="45.98181" lon="6.43384">
        <ele>1955.46</ele>
        <time>2022-01-16T09:59:49Z</time>
      </trkpt>
      <trkpt lat="45.98181" lon="6.43381">
        <ele>1955.46</ele>
        <time>2022-01-16T10:00:29Z</time>
      </trkpt>
      <trkpt lat="45.98177" lon="6.43389">
        <ele>1955.46</ele>
        <time>2022-01-16T10:01:05Z</time>
      </trkpt>
      <trkpt lat="45.98178" lon="6.43389">
        <ele>1955.46</ele>
        <time>2022-01-16T10:01:38Z</time>
      </trkpt>
      <trkpt lat="45.98186" lon="6.43389">
        <ele>1956.9</ele>
        <time>2022-01-16T10:01:53Z</time>
      </trkpt>
      <trkpt lat="45.98192" lon="6.43399">
        <ele>1956.9</ele>
        <time>2022-01-16T10:02:09Z</time>
      </trkpt>
      <trkpt lat="45.982" lon="6.43411">
        <ele>1956.9</ele>
        <time>2022-01-16T10:02:30Z</time>
      </trkpt>
      <trkpt lat="45.98205" lon="6.43419">
        <ele>1956.42</ele>
        <time>2022-01-16T10:02:42Z</time>
      </trkpt>
      <trkpt lat="45.98212" lon="6.43436">
        <ele>1956.42</ele>
        <time>2022-01-16T10:03:03Z</time>
      </trkpt>
      <trkpt lat="45.98216" lon="6.43444">
        <ele>1954.02</ele>
        <time>2022-01-16T10:03:15Z</time>
      </trkpt>
      <trkpt lat="45.98222" lon="6.43454">
        <ele>1955.46</ele>
        <time>2022-01-16T10:03:33Z</time>
      </trkpt>
      <trkpt lat="45.98228" lon="6.43459">
        <ele>1955.94</ele>
        <time>2022-01-16T10:03:52Z</time>
      </trkpt>
      <trkpt lat="45.98229" lon="6.43459">
        <ele>1957.38</ele>
        <time>2022-01-16T10:04:13Z</time>
      </trkpt>
      <trkpt lat="45.98229" lon="6.43459">
        <ele>1955.94</ele>
        <time>2022-01-16T10:04:43Z</time>
      </trkpt>
      <trkpt lat="45.98229" lon="6.43459">
        <ele>1955.46</ele>
        <time>2022-01-16T10:04:45Z</time>
      </trkpt>
      <trkpt lat="45.98229" lon="6.43464">
        <ele>1956.42</ele>
        <time>2022-01-16T10:05:10Z</time>
      </trkpt>
      <trkpt lat="45.9823" lon="6.43465">
        <ele>1955.46</ele>
        <time>2022-01-16T10:05:21Z</time>
      </trkpt>
      <trkpt lat="45.98231" lon="6.43468">
        <ele>1954.5</ele>
        <time>2022-01-16T10:05:39Z</time>
      </trkpt>
      <trkpt lat="45.98232" lon="6.43469">
        <ele>1954.02</ele>
        <time>2022-01-16T10:06:03Z</time>
      </trkpt>
      <trkpt lat="45.98232" lon="6.43468">
        <ele>1954.5</ele>
        <time>2022-01-16T10:06:29Z</time>
      </trkpt>
      <trkpt lat="45.98232" lon="6.43469">
        <ele>1954.98</ele>
        <time>2022-01-16T10:06:52Z</time>
      </trkpt>
      <trkpt lat="45.98232" lon="6.43469">
        <ele>1953.54</ele>
        <time>2022-01-16T10:06:56Z</time>
      </trkpt>
      <trkpt lat="45.98232" lon="6.43469">
        <ele>1954.98</ele>
        <time>2022-01-16T10:06:59Z</time>
      </trkpt>
      <trkpt lat="45.98232" lon="6.43469">
        <ele>1954.5</ele>
        <time>2022-01-16T10:07:15Z</time>
      </trkpt>
      <trkpt lat="45.98231" lon="6.43469">
        <ele>1954.5</ele>
        <time>2022-01-16T10:08:05Z</time>
      </trkpt>
      <trkpt lat="45.98231" lon="6.43468">
        <ele>1954.98</ele>
        <time>2022-01-16T10:08:49Z</time>
      </trkpt>
      <trkpt lat="45.98231" lon="6.4347">
        <ele>1952.57</ele>
        <time>2022-01-16T10:09:24Z</time>
      </trkpt>
      <trkpt lat="45.98231" lon="6.4347">
        <ele>1955.46</ele>
        <time>2022-01-16T10:09:27Z</time>
      </trkpt>
      <trkpt lat="45.98231" lon="6.43471">
        <ele>1952.09</ele>
        <time>2022-01-16T10:09:36Z</time>
      </trkpt>
      <trkpt lat="45.98231" lon="6.43471">
        <ele>1954.5</ele>
        <time>2022-01-16T10:10:01Z</time>
      </trkpt>
      <trkpt lat="45.98231" lon="6.43471">
        <ele>1955.46</ele>
        <time>2022-01-16T10:10:08Z</time>
      </trkpt>
      <trkpt lat="45.9823" lon="6.4347">
        <ele>1953.06</ele>
        <time>2022-01-16T10:10:39Z</time>
      </trkpt>
      <trkpt lat="45.98231" lon="6.43469">
        <ele>1954.5</ele>
        <time>2022-01-16T10:10:43Z</time>
      </trkpt>
      <trkpt lat="45.98231" lon="6.4347">
        <ele>1955.46</ele>
        <time>2022-01-16T10:11:08Z</time>
      </trkpt>
      <trkpt lat="45.98231" lon="6.4347">
        <ele>1954.5</ele>
        <time>2022-01-16T10:11:33Z</time>
      </trkpt>
      <trkpt lat="45.98232" lon="6.43472">
        <ele>1954.98</ele>
        <time>2022-01-16T10:11:55Z</time>
      </trkpt>
      <trkpt lat="45.98233" lon="6.43473">
        <ele>1952.09</ele>
        <time>2022-01-16T10:12:03Z</time>
      </trkpt>
      <trkpt lat="45.98232" lon="6.43474">
        <ele>1953.06</ele>
        <time>2022-01-16T10:12:45Z</time>
      </trkpt>
      <trkpt lat="45.98233" lon="6.43473">
        <ele>1954.02</ele>
        <time>2022-01-16T10:13:19Z</time>
      </trkpt>
      <trkpt lat="45.98233" lon="6.43471">
        <ele>1955.46</ele>
        <time>2022-01-16T10:13:29Z</time>
      </trkpt>
      <trkpt lat="45.98233" lon="6.43472">
        <ele>1954.02</ele>
        <time>2022-01-16T10:14:02Z</time>
      </trkpt>
      <trkpt lat="45.98233" lon="6.43473">
        <ele>1955.46</ele>
        <time>2022-01-16T10:14:07Z</time>
      </trkpt>
      <trkpt lat="45.98233" lon="6.43472">
        <ele>1955.46</ele>
        <time>2022-01-16T10:14:26Z</time>
      </trkpt>
      <trkpt lat="45.98234" lon="6.43471">
        <ele>1955.46</ele>
        <time>2022-01-16T10:14:36Z</time>
      </trkpt>
      <trkpt lat="45.98234" lon="6.43467">
        <ele>1954.02</ele>
        <time>2022-01-16T10:14:38Z</time>
      </trkpt>
      <trkpt lat="45.98236" lon="6.43453">
        <ele>1952.57</ele>
        <time>2022-01-16T10:14:47Z</time>
      </trkpt>
      <trkpt lat="45.98238" lon="6.43449">
        <ele>1950.65</ele>
        <time>2022-01-16T10:14:50Z</time>
      </trkpt>
      <trkpt lat="45.98238" lon="6.43448">
        <ele>1949.69</ele>
        <time>2022-01-16T10:14:52Z</time>
      </trkpt>
      <trkpt lat="45.98239" lon="6.43448">
        <ele>1948.73</ele>
        <time>2022-01-16T10:14:57Z</time>
      </trkpt>
      <trkpt lat="45.98242" lon="6.4345">
        <ele>1948.25</ele>
        <time>2022-01-16T10:14:59Z</time>
      </trkpt>
      <trkpt lat="45.98242" lon="6.43453">
        <ele>1946.33</ele>
        <time>2022-01-16T10:15:00Z</time>
      </trkpt>
      <trkpt lat="45.98243" lon="6.43455">
        <ele>1945.36</ele>
        <time>2022-01-16T10:15:01Z</time>
      </trkpt>
      <trkpt lat="45.98243" lon="6.43457">
        <ele>1945.36</ele>
        <time>2022-01-16T10:15:02Z</time>
      </trkpt>
      <trkpt lat="45.98243" lon="6.43459">
        <ele>1944.4</ele>
        <time>2022-01-16T10:15:03Z</time>
      </trkpt>
      <trkpt lat="45.98244" lon="6.43461">
        <ele>1943.92</ele>
        <time>2022-01-16T10:15:04Z</time>
      </trkpt>
      <trkpt lat="45.98245" lon="6.43462">
        <ele>1943.44</ele>
        <time>2022-01-16T10:15:05Z</time>
      </trkpt>
      <trkpt lat="45.9825" lon="6.43457">
        <ele>1940.08</ele>
        <time>2022-01-16T10:15:07Z</time>
      </trkpt>
      <trkpt lat="45.98256" lon="6.43441">
        <ele>1938.16</ele>
        <time>2022-01-16T10:15:13Z</time>
      </trkpt>
      <trkpt lat="45.98255" lon="6.43458">
        <ele>1932.39</ele>
        <time>2022-01-16T10:15:18Z</time>
      </trkpt>
      <trkpt lat="45.98258" lon="6.43462">
        <ele>1928.06</ele>
        <time>2022-01-16T10:15:22Z</time>
      </trkpt>
      <trkpt lat="45.98264" lon="6.43464">
        <ele>1924.7</ele>
        <time>2022-01-16T10:15:27Z</time>
      </trkpt>
      <trkpt lat="45.98269" lon="6.43455">
        <ele>1921.81</ele>
        <time>2022-01-16T10:15:29Z</time>
      </trkpt>
      <trkpt lat="45.9827" lon="6.43449">
        <ele>1920.37</ele>
        <time>2022-01-16T10:15:31Z</time>
      </trkpt>
      <trkpt lat="45.98271" lon="6.43444">
        <ele>1920.37</ele>
        <time>2022-01-16T10:15:51Z</time>
      </trkpt>
      <trkpt lat="45.98274" lon="6.4343">
        <ele>1917.49</ele>
        <time>2022-01-16T10:15:57Z</time>
      </trkpt>
      <trkpt lat="45.98275" lon="6.43433">
        <ele>1916.53</ele>
        <time>2022-01-16T10:15:59Z</time>
      </trkpt>
      <trkpt lat="45.98278" lon="6.43437">
        <ele>1913.16</ele>
        <time>2022-01-16T10:16:01Z</time>
      </trkpt>
      <trkpt lat="45.98285" lon="6.43428">
        <ele>1909.8</ele>
        <time>2022-01-16T10:16:06Z</time>
      </trkpt>
      <trkpt lat="45.98287" lon="6.43435">
        <ele>1906.43</ele>
        <time>2022-01-16T10:16:10Z</time>
      </trkpt>
      <trkpt lat="45.98286" lon="6.43437">
        <ele>1905.95</ele>
        <time>2022-01-16T10:16:11Z</time>
      </trkpt>
      <trkpt lat="45.98285" lon="6.43439">
        <ele>1906.43</ele>
        <time>2022-01-16T10:16:14Z</time>
      </trkpt>
      <trkpt lat="45.98287" lon="6.43446">
        <ele>1904.51</ele>
        <time>2022-01-16T10:16:18Z</time>
      </trkpt>
      <trkpt lat="45.98292" lon="6.43439">
        <ele>1901.14</ele>
        <time>2022-01-16T10:16:20Z</time>
      </trkpt>
      <trkpt lat="45.98296" lon="6.43432">
        <ele>1900.66</ele>
        <time>2022-01-16T10:16:22Z</time>
      </trkpt>
      <trkpt lat="45.98301" lon="6.43422">
        <ele>1898.26</ele>
        <time>2022-01-16T10:16:26Z</time>
      </trkpt>
      <trkpt lat="45.98305" lon="6.43422">
        <ele>1896.34</ele>
        <time>2022-01-16T10:16:28Z</time>
      </trkpt>
      <trkpt lat="45.98305" lon="6.43425">
        <ele>1896.34</ele>
        <time>2022-01-16T10:16:29Z</time>
      </trkpt>
      <trkpt lat="45.98304" lon="6.43429">
        <ele>1894.9</ele>
        <time>2022-01-16T10:16:30Z</time>
      </trkpt>
      <trkpt lat="45.98303" lon="6.43437">
        <ele>1893.93</ele>
        <time>2022-01-16T10:16:32Z</time>
      </trkpt>
      <trkpt lat="45.98303" lon="6.43445">
        <ele>1892.49</ele>
        <time>2022-01-16T10:16:34Z</time>
      </trkpt>
      <trkpt lat="45.98311" lon="6.4344">
        <ele>1888.65</ele>
        <time>2022-01-16T10:16:37Z</time>
      </trkpt>
      <trkpt lat="45.98319" lon="6.43436">
        <ele>1883.84</ele>
        <time>2022-01-16T10:16:41Z</time>
      </trkpt>
      <trkpt lat="45.98319" lon="6.43443">
        <ele>1883.36</ele>
        <time>2022-01-16T10:16:43Z</time>
      </trkpt>
      <trkpt lat="45.98321" lon="6.43454">
        <ele>1879.51</ele>
        <time>2022-01-16T10:16:47Z</time>
      </trkpt>
      <trkpt lat="45.98326" lon="6.43448">
        <ele>1878.55</ele>
        <time>2022-01-16T10:16:48Z</time>
      </trkpt>
      <trkpt lat="45.98332" lon="6.43438">
        <ele>1877.11</ele>
        <time>2022-01-16T10:16:50Z</time>
      </trkpt>
      <trkpt lat="45.98334" lon="6.43434">
        <ele>1876.63</ele>
        <time>2022-01-16T10:16:52Z</time>
      </trkpt>
      <trkpt lat="45.9834" lon="6.4343">
        <ele>1875.67</ele>
        <time>2022-01-16T10:16:58Z</time>
      </trkpt>
      <trkpt lat="45.98339" lon="6.4343">
        <ele>1873.75</ele>
        <time>2022-01-16T10:17:00Z</time>
      </trkpt>
      <trkpt lat="45.98335" lon="6.4343">
        <ele>1875.19</ele>
        <time>2022-01-16T10:17:38Z</time>
      </trkpt>
      <trkpt lat="45.98341" lon="6.43425">
        <ele>1872.79</ele>
        <time>2022-01-16T10:17:41Z</time>
      </trkpt>
      <trkpt lat="45.9835" lon="6.43416">
        <ele>1867.98</ele>
        <time>2022-01-16T10:17:43Z</time>
      </trkpt>
      <trkpt lat="45.98353" lon="6.43411">
        <ele>1867.02</ele>
        <time>2022-01-16T10:17:44Z</time>
      </trkpt>
      <trkpt lat="45.98357" lon="6.43402">
        <ele>1865.58</ele>
        <time>2022-01-16T10:17:46Z</time>
      </trkpt>
      <trkpt lat="45.9836" lon="6.43397">
        <ele>1864.61</ele>
        <time>2022-01-16T10:17:47Z</time>
      </trkpt>
      <trkpt lat="45.98368" lon="6.43397">
        <ele>1860.29</ele>
        <time>2022-01-16T10:17:50Z</time>
      </trkpt>
      <trkpt lat="45.98368" lon="6.43401">
        <ele>1858.85</ele>
        <time>2022-01-16T10:17:51Z</time>
      </trkpt>
      <trkpt lat="45.98377" lon="6.43403">
        <ele>1854.04</ele>
        <time>2022-01-16T10:17:54Z</time>
      </trkpt>
      <trkpt lat="45.98381" lon="6.43394">
        <ele>1852.6</ele>
        <time>2022-01-16T10:17:56Z</time>
      </trkpt>
      <trkpt lat="45.98385" lon="6.43399">
        <ele>1848.75</ele>
        <time>2022-01-16T10:17:58Z</time>
      </trkpt>
      <trkpt lat="45.9839" lon="6.43414">
        <ele>1844.43</ele>
        <time>2022-01-16T10:18:02Z</time>
      </trkpt>
      <trkpt lat="45.98397" lon="6.4341">
        <ele>1840.1</ele>
        <time>2022-01-16T10:18:04Z</time>
      </trkpt>
      <trkpt lat="45.98399" lon="6.43406">
        <ele>1840.1</ele>
        <time>2022-01-16T10:18:05Z</time>
      </trkpt>
      <trkpt lat="45.98401" lon="6.43398">
        <ele>1839.62</ele>
        <time>2022-01-16T10:18:07Z</time>
      </trkpt>
      <trkpt lat="45.98404" lon="6.43387">
        <ele>1838.18</ele>
        <time>2022-01-16T10:18:12Z</time>
      </trkpt>
      <trkpt lat="45.98412" lon="6.43388">
        <ele>1834.33</ele>
        <time>2022-01-16T10:18:16Z</time>
      </trkpt>
      <trkpt lat="45.98416" lon="6.43383">
        <ele>1832.41</ele>
        <time>2022-01-16T10:18:17Z</time>
      </trkpt>
      <trkpt lat="45.9842" lon="6.43374">
        <ele>1830.01</ele>
        <time>2022-01-16T10:18:19Z</time>
      </trkpt>
      <trkpt lat="45.98424" lon="6.43377">
        <ele>1826.64</ele>
        <time>2022-01-16T10:18:22Z</time>
      </trkpt>
      <trkpt lat="45.98424" lon="6.43381">
        <ele>1825.68</ele>
        <time>2022-01-16T10:18:24Z</time>
      </trkpt>
      <trkpt lat="45.98419" lon="6.43386">
        <ele>1825.2</ele>
        <time>2022-01-16T10:18:34Z</time>
      </trkpt>
      <trkpt lat="45.98429" lon="6.43378">
        <ele>1821.84</ele>
        <time>2022-01-16T10:18:38Z</time>
      </trkpt>
      <trkpt lat="45.98431" lon="6.43374">
        <ele>1821.84</ele>
        <time>2022-01-16T10:18:39Z</time>
      </trkpt>
      <trkpt lat="45.98432" lon="6.43371">
        <ele>1821.84</ele>
        <time>2022-01-16T10:18:40Z</time>
      </trkpt>
      <trkpt lat="45.98438" lon="6.4334">
        <ele>1818.47</ele>
        <time>2022-01-16T10:18:48Z</time>
      </trkpt>
      <trkpt lat="45.98445" lon="6.4331">
        <ele>1816.07</ele>
        <time>2022-01-16T10:19:02Z</time>
      </trkpt>
      <trkpt lat="45.98446" lon="6.43306">
        <ele>1816.07</ele>
        <time>2022-01-16T10:19:03Z</time>
      </trkpt>
      <trkpt lat="45.98459" lon="6.43276">
        <ele>1813.18</ele>
        <time>2022-01-16T10:19:11Z</time>
      </trkpt>
      <trkpt lat="45.98473" lon="6.43239">
        <ele>1809.34</ele>
        <time>2022-01-16T10:19:22Z</time>
      </trkpt>
      <trkpt lat="45.98482" lon="6.43212">
        <ele>1806.45</ele>
        <time>2022-01-16T10:19:30Z</time>
      </trkpt>
      <trkpt lat="45.9849" lon="6.43185">
        <ele>1802.61</ele>
        <time>2022-01-16T10:19:39Z</time>
      </trkpt>
      <trkpt lat="45.98492" lon="6.43181">
        <ele>1802.61</ele>
        <time>2022-01-16T10:19:40Z</time>
      </trkpt>
      <trkpt lat="45.98514" lon="6.43146">
        <ele>1799.24</ele>
        <time>2022-01-16T10:19:49Z</time>
      </trkpt>
      <trkpt lat="45.98517" lon="6.43142">
        <ele>1798.28</ele>
        <time>2022-01-16T10:19:50Z</time>
      </trkpt>
      <trkpt lat="45.9852" lon="6.43138">
        <ele>1798.28</ele>
        <time>2022-01-16T10:19:51Z</time>
      </trkpt>
      <trkpt lat="45.98527" lon="6.43131">
        <ele>1797.32</ele>
        <time>2022-01-16T10:19:53Z</time>
      </trkpt>
      <trkpt lat="45.98531" lon="6.43128">
        <ele>1797.32</ele>
        <time>2022-01-16T10:19:54Z</time>
      </trkpt>
      <trkpt lat="45.98535" lon="6.43128">
        <ele>1796.36</ele>
        <time>2022-01-16T10:19:55Z</time>
      </trkpt>
      <trkpt lat="45.98556" lon="6.4313">
        <ele>1793.96</ele>
        <time>2022-01-16T10:20:01Z</time>
      </trkpt>
      <trkpt lat="45.98575" lon="6.43137">
        <ele>1792.52</ele>
        <time>2022-01-16T10:20:07Z</time>
      </trkpt>
      <trkpt lat="45.98597" lon="6.43157">
        <ele>1789.15</ele>
        <time>2022-01-16T10:20:16Z</time>
      </trkpt>
      <trkpt lat="45.98599" lon="6.4316">
        <ele>1789.15</ele>
        <time>2022-01-16T10:20:17Z</time>
      </trkpt>
      <trkpt lat="45.9862" lon="6.43183">
        <ele>1783.86</ele>
        <time>2022-01-16T10:20:25Z</time>
      </trkpt>
      <trkpt lat="45.98624" lon="6.43187">
        <ele>1783.86</ele>
        <time>2022-01-16T10:20:26Z</time>
      </trkpt>
      <trkpt lat="45.98627" lon="6.43192">
        <ele>1783.86</ele>
        <time>2022-01-16T10:20:27Z</time>
      </trkpt>
      <trkpt lat="45.9863" lon="6.43196">
        <ele>1782.9</ele>
        <time>2022-01-16T10:20:28Z</time>
      </trkpt>
      <trkpt lat="45.98632" lon="6.43199">
        <ele>1782.9</ele>
        <time>2022-01-16T10:20:29Z</time>
      </trkpt>
      <trkpt lat="45.98634" lon="6.43203">
        <ele>1783.38</ele>
        <time>2022-01-16T10:20:30Z</time>
      </trkpt>
      <trkpt lat="45.98635" lon="6.43206">
        <ele>1782.42</ele>
        <time>2022-01-16T10:20:31Z</time>
      </trkpt>
      <trkpt lat="45.98638" lon="6.43212">
        <ele>1781.46</ele>
        <time>2022-01-16T10:20:33Z</time>
      </trkpt>
      <trkpt lat="45.98648" lon="6.43235">
        <ele>1777.61</ele>
        <time>2022-01-16T10:20:39Z</time>
      </trkpt>
      <trkpt lat="45.98649" lon="6.43241">
        <ele>1777.61</ele>
        <time>2022-01-16T10:20:40Z</time>
      </trkpt>
      <trkpt lat="45.98658" lon="6.4328">
        <ele>1774.25</ele>
        <time>2022-01-16T10:20:49Z</time>
      </trkpt>
      <trkpt lat="45.98659" lon="6.43284">
        <ele>1774.25</ele>
        <time>2022-01-16T10:20:50Z</time>
      </trkpt>
      <trkpt lat="45.98665" lon="6.43307">
        <ele>1770.89</ele>
        <time>2022-01-16T10:20:54Z</time>
      </trkpt>
      <trkpt lat="45.98666" lon="6.43312">
        <ele>1771.37</ele>
        <time>2022-01-16T10:20:55Z</time>
      </trkpt>
      <trkpt lat="45.98676" lon="6.43348">
        <ele>1768.48</ele>
        <time>2022-01-16T10:21:04Z</time>
      </trkpt>
      <trkpt lat="45.98686" lon="6.43371">
        <ele>1764.64</ele>
        <time>2022-01-16T10:21:11Z</time>
      </trkpt>
      <trkpt lat="45.98688" lon="6.43376">
        <ele>1765.12</ele>
        <time>2022-01-16T10:21:12Z</time>
      </trkpt>
      <trkpt lat="45.98696" lon="6.43399">
        <ele>1762.23</ele>
        <time>2022-01-16T10:21:16Z</time>
      </trkpt>
      <trkpt lat="45.98708" lon="6.43429">
        <ele>1759.83</ele>
        <time>2022-01-16T10:21:25Z</time>
      </trkpt>
      <trkpt lat="45.98718" lon="6.43454">
        <ele>1756.47</ele>
        <time>2022-01-16T10:21:35Z</time>
      </trkpt>
      <trkpt lat="45.98731" lon="6.43471">
        <ele>1753.1</ele>
        <time>2022-01-16T10:21:40Z</time>
      </trkpt>
      <trkpt lat="45.98734" lon="6.43475">
        <ele>1753.1</ele>
        <time>2022-01-16T10:21:41Z</time>
      </trkpt>
      <trkpt lat="45.98742" lon="6.43482">
        <ele>1752.14</ele>
        <time>2022-01-16T10:21:43Z</time>
      </trkpt>
      <trkpt lat="45.98745" lon="6.43486">
        <ele>1752.14</ele>
        <time>2022-01-16T10:21:44Z</time>
      </trkpt>
      <trkpt lat="45.98747" lon="6.4349">
        <ele>1751.18</ele>
        <time>2022-01-16T10:21:45Z</time>
      </trkpt>
      <trkpt lat="45.98758" lon="6.43517">
        <ele>1748.29</ele>
        <time>2022-01-16T10:21:55Z</time>
      </trkpt>
      <trkpt lat="45.98776" lon="6.43547">
        <ele>1743.97</ele>
        <time>2022-01-16T10:22:04Z</time>
      </trkpt>
      <trkpt lat="45.98778" lon="6.4355">
        <ele>1743.97</ele>
        <time>2022-01-16T10:22:05Z</time>
      </trkpt>
      <trkpt lat="45.98792" lon="6.4358">
        <ele>1741.08</ele>
        <time>2022-01-16T10:22:14Z</time>
      </trkpt>
      <trkpt lat="45.98802" lon="6.43615">
        <ele>1737.72</ele>
        <time>2022-01-16T10:22:22Z</time>
      </trkpt>
      <trkpt lat="45.98803" lon="6.43647">
        <ele>1734.36</ele>
        <time>2022-01-16T10:22:29Z</time>
      </trkpt>
      <trkpt lat="45.98803" lon="6.43655">
        <ele>1733.39</ele>
        <time>2022-01-16T10:22:31Z</time>
      </trkpt>
      <trkpt lat="45.98805" lon="6.43682">
        <ele>1729.55</ele>
        <time>2022-01-16T10:22:36Z</time>
      </trkpt>
      <trkpt lat="45.98806" lon="6.43688">
        <ele>1729.55</ele>
        <time>2022-01-16T10:22:37Z</time>
      </trkpt>
      <trkpt lat="45.9881" lon="6.4372">
        <ele>1730.03</ele>
        <time>2022-01-16T10:22:47Z</time>
      </trkpt>
      <trkpt lat="45.98811" lon="6.43726">
        <ele>1730.03</ele>
        <time>2022-01-16T10:23:01Z</time>
      </trkpt>
      <trkpt lat="45.98812" lon="6.4373">
        <ele>1730.51</ele>
        <time>2022-01-16T10:23:08Z</time>
      </trkpt>
      <trkpt lat="45.98812" lon="6.43732">
        <ele>1730.51</ele>
        <time>2022-01-16T10:23:09Z</time>
      </trkpt>
      <trkpt lat="45.98812" lon="6.43734">
        <ele>1730.51</ele>
        <time>2022-01-16T10:23:10Z</time>
      </trkpt>
      <trkpt lat="45.98813" lon="6.43736">
        <ele>1730.51</ele>
        <time>2022-01-16T10:23:11Z</time>
      </trkpt>
      <trkpt lat="45.98813" lon="6.43739">
        <ele>1730.51</ele>
        <time>2022-01-16T10:23:12Z</time>
      </trkpt>
      <trkpt lat="45.98815" lon="6.43746">
        <ele>1729.07</ele>
        <time>2022-01-16T10:23:14Z</time>
      </trkpt>
      <trkpt lat="45.98817" lon="6.43759">
        <ele>1729.07</ele>
        <time>2022-01-16T10:23:21Z</time>
      </trkpt>
      <trkpt lat="45.98817" lon="6.43762">
        <ele>1729.07</ele>
        <time>2022-01-16T10:23:23Z</time>
      </trkpt>
      <trkpt lat="45.98818" lon="6.43763">
        <ele>1729.07</ele>
        <time>2022-01-16T10:23:24Z</time>
      </trkpt>
      <trkpt lat="45.98822" lon="6.43789">
        <ele>1729.07</ele>
        <time>2022-01-16T10:23:38Z</time>
      </trkpt>
      <trkpt lat="45.98824" lon="6.438">
        <ele>1729.55</ele>
        <time>2022-01-16T10:23:54Z</time>
      </trkpt>
      <trkpt lat="45.98825" lon="6.43808">
        <ele>1730.03</ele>
        <time>2022-01-16T10:24:09Z</time>
      </trkpt>
      <trkpt lat="45.98828" lon="6.43813">
        <ele>1730.03</ele>
        <time>2022-01-16T10:24:17Z</time>
      </trkpt>
      <trkpt lat="45.98844" lon="6.43844">
        <ele>1728.11</ele>
        <time>2022-01-16T10:24:28Z</time>
      </trkpt>
      <trkpt lat="45.98851" lon="6.43859">
        <ele>1727.63</ele>
        <time>2022-01-16T10:24:41Z</time>
      </trkpt>
      <trkpt lat="45.98859" lon="6.43879">
        <ele>1729.07</ele>
        <time>2022-01-16T10:24:58Z</time>
      </trkpt>
      <trkpt lat="45.98859" lon="6.43881">
        <ele>1727.15</ele>
        <time>2022-01-16T10:25:00Z</time>
      </trkpt>
      <trkpt lat="45.9886" lon="6.43882">
        <ele>1728.59</ele>
        <time>2022-01-16T10:25:01Z</time>
      </trkpt>
      <trkpt lat="45.98863" lon="6.43889">
        <ele>1727.15</ele>
        <time>2022-01-16T10:25:09Z</time>
      </trkpt>
      <trkpt lat="45.98863" lon="6.43891">
        <ele>1728.59</ele>
        <time>2022-01-16T10:25:11Z</time>
      </trkpt>
      <trkpt lat="45.98867" lon="6.43905">
        <ele>1728.59</ele>
        <time>2022-01-16T10:25:26Z</time>
      </trkpt>
      <trkpt lat="45.98867" lon="6.43904">
        <ele>1727.15</ele>
        <time>2022-01-16T10:25:44Z</time>
      </trkpt>
      <trkpt lat="45.98868" lon="6.43904">
        <ele>1728.59</ele>
        <time>2022-01-16T10:25:46Z</time>
      </trkpt>
      <trkpt lat="45.98866" lon="6.43912">
        <ele>1728.11</ele>
        <time>2022-01-16T10:26:10Z</time>
      </trkpt>
      <trkpt lat="45.98865" lon="6.43911">
        <ele>1728.11</ele>
        <time>2022-01-16T10:26:37Z</time>
      </trkpt>
      <trkpt lat="45.98866" lon="6.4391">
        <ele>1726.18</ele>
        <time>2022-01-16T10:26:47Z</time>
      </trkpt>
      <trkpt lat="45.98867" lon="6.4391">
        <ele>1727.15</ele>
        <time>2022-01-16T10:27:09Z</time>
      </trkpt>
      <trkpt lat="45.98865" lon="6.43909">
        <ele>1727.15</ele>
        <time>2022-01-16T10:27:43Z</time>
      </trkpt>
      <trkpt lat="45.98864" lon="6.43912">
        <ele>1727.15</ele>
        <time>2022-01-16T10:28:17Z</time>
      </trkpt>
      <trkpt lat="45.98863" lon="6.43909">
        <ele>1727.63</ele>
        <time>2022-01-16T10:28:53Z</time>
      </trkpt>
      <trkpt lat="45.98865" lon="6.43911">
        <ele>1727.63</ele>
        <time>2022-01-16T10:29:24Z</time>
      </trkpt>
      <trkpt lat="45.98863" lon="6.43912">
        <ele>1727.63</ele>
        <time>2022-01-16T10:29:57Z</time>
      </trkpt>
      <trkpt lat="45.98863" lon="6.43911">
        <ele>1728.11</ele>
        <time>2022-01-16T10:30:18Z</time>
      </trkpt>
      <trkpt lat="45.98862" lon="6.43911">
        <ele>1728.11</ele>
        <time>2022-01-16T10:30:34Z</time>
      </trkpt>
      <trkpt lat="45.98863" lon="6.43911">
        <ele>1728.59</ele>
        <time>2022-01-16T10:31:03Z</time>
      </trkpt>
      <trkpt lat="45.98862" lon="6.4391">
        <ele>1728.11</ele>
        <time>2022-01-16T10:31:26Z</time>
      </trkpt>
      <trkpt lat="45.98862" lon="6.4391">
        <ele>1729.55</ele>
        <time>2022-01-16T10:31:39Z</time>
      </trkpt>
      <trkpt lat="45.98862" lon="6.4391">
        <ele>1728.11</ele>
        <time>2022-01-16T10:31:41Z</time>
      </trkpt>
      <trkpt lat="45.98863" lon="6.43912">
        <ele>1728.59</ele>
        <time>2022-01-16T10:32:02Z</time>
      </trkpt>
      <trkpt lat="45.98863" lon="6.43913">
        <ele>1728.59</ele>
        <time>2022-01-16T10:32:39Z</time>
      </trkpt>
      <trkpt lat="45.98867" lon="6.43926">
        <ele>1729.07</ele>
        <time>2022-01-16T10:33:00Z</time>
      </trkpt>
      <trkpt lat="45.98871" lon="6.43945">
        <ele>1729.07</ele>
        <time>2022-01-16T10:33:14Z</time>
      </trkpt>
      <trkpt lat="45.98874" lon="6.43962">
        <ele>1730.99</ele>
        <time>2022-01-16T10:33:28Z</time>
      </trkpt>
      <trkpt lat="45.98883" lon="6.43981">
        <ele>1731.47</ele>
        <time>2022-01-16T10:33:44Z</time>
      </trkpt>
      <trkpt lat="45.98883" lon="6.43982">
        <ele>1731.47</ele>
        <time>2022-01-16T10:33:45Z</time>
      </trkpt>
      <trkpt lat="45.98888" lon="6.43997">
        <ele>1732.43</ele>
        <time>2022-01-16T10:34:02Z</time>
      </trkpt>
      <trkpt lat="45.98889" lon="6.44003">
        <ele>1732.43</ele>
        <time>2022-01-16T10:34:15Z</time>
      </trkpt>
      <trkpt lat="45.98894" lon="6.44016">
        <ele>1734.84</ele>
        <time>2022-01-16T10:34:30Z</time>
      </trkpt>
      <trkpt lat="45.98905" lon="6.44023">
        <ele>1736.28</ele>
        <time>2022-01-16T10:34:46Z</time>
      </trkpt>
      <trkpt lat="45.98921" lon="6.44031">
        <ele>1735.32</ele>
        <time>2022-01-16T10:35:03Z</time>
      </trkpt>
      <trkpt lat="45.98924" lon="6.44034">
        <ele>1734.36</ele>
        <time>2022-01-16T10:35:07Z</time>
      </trkpt>
      <trkpt lat="45.98938" lon="6.4405">
        <ele>1736.76</ele>
        <time>2022-01-16T10:35:26Z</time>
      </trkpt>
      <trkpt lat="45.98947" lon="6.44058">
        <ele>1737.72</ele>
        <time>2022-01-16T10:35:41Z</time>
      </trkpt>
      <trkpt lat="45.98961" lon="6.44068">
        <ele>1736.76</ele>
        <time>2022-01-16T10:35:57Z</time>
      </trkpt>
      <trkpt lat="45.98967" lon="6.44072">
        <ele>1737.72</ele>
        <time>2022-01-16T10:36:03Z</time>
      </trkpt>
      <trkpt lat="45.98976" lon="6.44077">
        <ele>1738.2</ele>
        <time>2022-01-16T10:36:13Z</time>
      </trkpt>
      <trkpt lat="45.98991" lon="6.44091">
        <ele>1739.64</ele>
        <time>2022-01-16T10:36:31Z</time>
      </trkpt>
      <trkpt lat="45.98991" lon="6.44091">
        <ele>1739.64</ele>
        <time>2022-01-16T10:36:32Z</time>
      </trkpt>
      <trkpt lat="45.99002" lon="6.441">
        <ele>1740.12</ele>
        <time>2022-01-16T10:36:48Z</time>
      </trkpt>
      <trkpt lat="45.99011" lon="6.44112">
        <ele>1742.53</ele>
        <time>2022-01-16T10:37:03Z</time>
      </trkpt>
      <trkpt lat="45.99014" lon="6.44117">
        <ele>1742.53</ele>
        <time>2022-01-16T10:37:08Z</time>
      </trkpt>
      <trkpt lat="45.99024" lon="6.44124">
        <ele>1743.49</ele>
        <time>2022-01-16T10:37:24Z</time>
      </trkpt>
      <trkpt lat="45.99035" lon="6.44131">
        <ele>1746.85</ele>
        <time>2022-01-16T10:37:41Z</time>
      </trkpt>
      <trkpt lat="45.99037" lon="6.44134">
        <ele>1746.85</ele>
        <time>2022-01-16T10:37:47Z</time>
      </trkpt>
      <trkpt lat="45.99048" lon="6.44144">
        <ele>1749.26</ele>
        <time>2022-01-16T10:38:07Z</time>
      </trkpt>
      <trkpt lat="45.99058" lon="6.44147">
        <ele>1751.18</ele>
        <time>2022-01-16T10:38:22Z</time>
      </trkpt>
      <trkpt lat="45.99068" lon="6.44152">
        <ele>1753.58</ele>
        <time>2022-01-16T10:38:41Z</time>
      </trkpt>
      <trkpt lat="45.99074" lon="6.44164">
        <ele>1756.47</ele>
        <time>2022-01-16T10:38:58Z</time>
      </trkpt>
      <trkpt lat="45.99082" lon="6.44168">
        <ele>1759.35</ele>
        <time>2022-01-16T10:39:15Z</time>
      </trkpt>
      <trkpt lat="45.99094" lon="6.4417">
        <ele>1759.83</ele>
        <time>2022-01-16T10:39:30Z</time>
      </trkpt>
      <trkpt lat="45.99106" lon="6.44175">
        <ele>1760.79</ele>
        <time>2022-01-16T10:39:47Z</time>
      </trkpt>
      <trkpt lat="45.99117" lon="6.44181">
        <ele>1762.71</ele>
        <time>2022-01-16T10:40:02Z</time>
      </trkpt>
      <trkpt lat="45.99129" lon="6.44188">
        <ele>1762.71</ele>
        <time>2022-01-16T10:40:19Z</time>
      </trkpt>
      <trkpt lat="45.99142" lon="6.44194">
        <ele>1764.16</ele>
        <time>2022-01-16T10:40:36Z</time>
      </trkpt>
      <trkpt lat="45.99155" lon="6.44199">
        <ele>1763.2</ele>
        <time>2022-01-16T10:40:52Z</time>
      </trkpt>
      <trkpt lat="45.99162" lon="6.44202">
        <ele>1765.12</ele>
        <time>2022-01-16T10:41:01Z</time>
      </trkpt>
      <trkpt lat="45.99177" lon="6.44207">
        <ele>1766.08</ele>
        <time>2022-01-16T10:41:20Z</time>
      </trkpt>
      <trkpt lat="45.99183" lon="6.44207">
        <ele>1767.04</ele>
        <time>2022-01-16T10:41:27Z</time>
      </trkpt>
      <trkpt lat="45.99195" lon="6.44207">
        <ele>1767.52</ele>
        <time>2022-01-16T10:41:47Z</time>
      </trkpt>
      <trkpt lat="45.99205" lon="6.44207">
        <ele>1771.37</ele>
        <time>2022-01-16T10:42:03Z</time>
      </trkpt>
      <trkpt lat="45.99217" lon="6.44203">
        <ele>1772.81</ele>
        <time>2022-01-16T10:42:22Z</time>
      </trkpt>
      <trkpt lat="45.99224" lon="6.44207">
        <ele>1774.73</ele>
        <time>2022-01-16T10:42:42Z</time>
      </trkpt>
      <trkpt lat="45.99222" lon="6.44216">
        <ele>1776.17</ele>
        <time>2022-01-16T10:42:58Z</time>
      </trkpt>
      <trkpt lat="45.99229" lon="6.44223">
        <ele>1777.61</ele>
        <time>2022-01-16T10:43:12Z</time>
      </trkpt>
      <trkpt lat="45.99238" lon="6.44208">
        <ele>1780.02</ele>
        <time>2022-01-16T10:43:31Z</time>
      </trkpt>
      <trkpt lat="45.9925" lon="6.44205">
        <ele>1781.94</ele>
        <time>2022-01-16T10:43:50Z</time>
      </trkpt>
      <trkpt lat="45.99252" lon="6.44203">
        <ele>1782.42</ele>
        <time>2022-01-16T10:43:56Z</time>
      </trkpt>
      <trkpt lat="45.99262" lon="6.44208">
        <ele>1785.31</ele>
        <time>2022-01-16T10:44:15Z</time>
      </trkpt>
      <trkpt lat="45.9927" lon="6.44217">
        <ele>1787.23</ele>
        <time>2022-01-16T10:44:32Z</time>
      </trkpt>
      <trkpt lat="45.99277" lon="6.44227">
        <ele>1789.63</ele>
        <time>2022-01-16T10:44:51Z</time>
      </trkpt>
      <trkpt lat="45.99289" lon="6.44229">
        <ele>1790.59</ele>
        <time>2022-01-16T10:45:09Z</time>
      </trkpt>
      <trkpt lat="45.99297" lon="6.4423">
        <ele>1793.96</ele>
        <time>2022-01-16T10:45:23Z</time>
      </trkpt>
      <trkpt lat="45.99303" lon="6.4424">
        <ele>1795.88</ele>
        <time>2022-01-16T10:45:41Z</time>
      </trkpt>
      <trkpt lat="45.99304" lon="6.4424">
        <ele>1796.84</ele>
        <time>2022-01-16T10:45:45Z</time>
      </trkpt>
      <trkpt lat="45.99307" lon="6.44242">
        <ele>1795.88</ele>
        <time>2022-01-16T10:46:02Z</time>
      </trkpt>
      <trkpt lat="45.99307" lon="6.44242">
        <ele>1796.84</ele>
        <time>2022-01-16T10:46:25Z</time>
      </trkpt>
      <trkpt lat="45.99305" lon="6.44243">
        <ele>1796.36</ele>
        <time>2022-01-16T10:46:38Z</time>
      </trkpt>
      <trkpt lat="45.99306" lon="6.44241">
        <ele>1797.32</ele>
        <time>2022-01-16T10:46:50Z</time>
      </trkpt>
      <trkpt lat="45.99305" lon="6.44239">
        <ele>1797.8</ele>
        <time>2022-01-16T10:47:01Z</time>
      </trkpt>
      <trkpt lat="45.99305" lon="6.44241">
        <ele>1798.28</ele>
        <time>2022-01-16T10:47:34Z</time>
      </trkpt>
      <trkpt lat="45.99311" lon="6.44239">
        <ele>1798.28</ele>
        <time>2022-01-16T10:47:55Z</time>
      </trkpt>
      <trkpt lat="45.9933" lon="6.44247">
        <ele>1800.21</ele>
        <time>2022-01-16T10:48:14Z</time>
      </trkpt>
      <trkpt lat="45.99346" lon="6.4425">
        <ele>1798.28</ele>
        <time>2022-01-16T10:48:30Z</time>
      </trkpt>
      <trkpt lat="45.99363" lon="6.44253">
        <ele>1798.76</ele>
        <time>2022-01-16T10:48:46Z</time>
      </trkpt>
      <trkpt lat="45.99376" lon="6.44252">
        <ele>1800.21</ele>
        <time>2022-01-16T10:49:02Z</time>
      </trkpt>
      <trkpt lat="45.99389" lon="6.44253">
        <ele>1800.21</ele>
        <time>2022-01-16T10:49:19Z</time>
      </trkpt>
      <trkpt lat="45.99391" lon="6.44254">
        <ele>1801.65</ele>
        <time>2022-01-16T10:49:21Z</time>
      </trkpt>
      <trkpt lat="45.99405" lon="6.44266">
        <ele>1803.09</ele>
        <time>2022-01-16T10:49:42Z</time>
      </trkpt>
      <trkpt lat="45.99408" lon="6.44268">
        <ele>1803.09</ele>
        <time>2022-01-16T10:49:46Z</time>
      </trkpt>
      <trkpt lat="45.99423" lon="6.44279">
        <ele>1805.01</ele>
        <time>2022-01-16T10:50:05Z</time>
      </trkpt>
      <trkpt lat="45.99434" lon="6.44273">
        <ele>1806.45</ele>
        <time>2022-01-16T10:50:22Z</time>
      </trkpt>
      <trkpt lat="45.99437" lon="6.4427">
        <ele>1807.9</ele>
        <time>2022-01-16T10:50:33Z</time>
      </trkpt>
      <trkpt lat="45.99447" lon="6.44262">
        <ele>1809.82</ele>
        <time>2022-01-16T10:50:50Z</time>
      </trkpt>
      <trkpt lat="45.99451" lon="6.44264">
        <ele>1808.86</ele>
        <time>2022-01-16T10:50:57Z</time>
      </trkpt>
      <trkpt lat="45.99463" lon="6.44272">
        <ele>1810.78</ele>
        <time>2022-01-16T10:51:14Z</time>
      </trkpt>
      <trkpt lat="45.99474" lon="6.44279">
        <ele>1811.74</ele>
        <time>2022-01-16T10:51:30Z</time>
      </trkpt>
      <trkpt lat="45.99488" lon="6.44275">
        <ele>1813.18</ele>
        <time>2022-01-16T10:51:47Z</time>
      </trkpt>
      <trkpt lat="45.99501" lon="6.44269">
        <ele>1813.66</ele>
        <time>2022-01-16T10:52:06Z</time>
      </trkpt>
      <trkpt lat="45.99513" lon="6.44263">
        <ele>1815.11</ele>
        <time>2022-01-16T10:52:23Z</time>
      </trkpt>
      <trkpt lat="45.99524" lon="6.44257">
        <ele>1817.99</ele>
        <time>2022-01-16T10:52:46Z</time>
      </trkpt>
      <trkpt lat="45.9953" lon="6.44261">
        <ele>1820.87</ele>
        <time>2022-01-16T10:53:00Z</time>
      </trkpt>
      <trkpt lat="45.99546" lon="6.44266">
        <ele>1820.39</ele>
        <time>2022-01-16T10:53:21Z</time>
      </trkpt>
      <trkpt lat="45.99548" lon="6.44266">
        <ele>1820.39</ele>
        <time>2022-01-16T10:53:24Z</time>
      </trkpt>
      <trkpt lat="45.99557" lon="6.44267">
        <ele>1821.84</ele>
        <time>2022-01-16T10:53:37Z</time>
      </trkpt>
      <trkpt lat="45.99567" lon="6.4427">
        <ele>1822.8</ele>
        <time>2022-01-16T10:53:52Z</time>
      </trkpt>
      <trkpt lat="45.99581" lon="6.44272">
        <ele>1824.24</ele>
        <time>2022-01-16T10:54:11Z</time>
      </trkpt>
      <trkpt lat="45.99592" lon="6.44275">
        <ele>1826.64</ele>
        <time>2022-01-16T10:54:29Z</time>
      </trkpt>
      <trkpt lat="45.99604" lon="6.44277">
        <ele>1827.12</ele>
        <time>2022-01-16T10:54:46Z</time>
      </trkpt>
      <trkpt lat="45.9962" lon="6.44278">
        <ele>1828.08</ele>
        <time>2022-01-16T10:55:06Z</time>
      </trkpt>
      <trkpt lat="45.9963" lon="6.44277">
        <ele>1829.53</ele>
        <time>2022-01-16T10:55:20Z</time>
      </trkpt>
      <trkpt lat="45.99642" lon="6.44268">
        <ele>1831.93</ele>
        <time>2022-01-16T10:55:43Z</time>
      </trkpt>
      <trkpt lat="45.99651" lon="6.44265">
        <ele>1835.29</ele>
        <time>2022-01-16T10:56:00Z</time>
      </trkpt>
      <trkpt lat="45.99654" lon="6.44271">
        <ele>1837.22</ele>
        <time>2022-01-16T10:56:17Z</time>
      </trkpt>
      <trkpt lat="45.99652" lon="6.4428">
        <ele>1837.7</ele>
        <time>2022-01-16T10:56:35Z</time>
      </trkpt>
      <trkpt lat="45.99651" lon="6.4428">
        <ele>1838.66</ele>
        <time>2022-01-16T10:56:37Z</time>
      </trkpt>
      <trkpt lat="45.99647" lon="6.44298">
        <ele>1842.02</ele>
        <time>2022-01-16T10:57:00Z</time>
      </trkpt>
      <trkpt lat="45.9965" lon="6.4431">
        <ele>1843.95</ele>
        <time>2022-01-16T10:57:19Z</time>
      </trkpt>
      <trkpt lat="45.9966" lon="6.4431">
        <ele>1845.39</ele>
        <time>2022-01-16T10:57:33Z</time>
      </trkpt>
      <trkpt lat="45.99671" lon="6.44315">
        <ele>1845.39</ele>
        <time>2022-01-16T10:57:53Z</time>
      </trkpt>
      <trkpt lat="45.99673" lon="6.44317">
        <ele>1846.83</ele>
        <time>2022-01-16T10:57:55Z</time>
      </trkpt>
      <trkpt lat="45.99685" lon="6.44324">
        <ele>1848.27</ele>
        <time>2022-01-16T10:58:13Z</time>
      </trkpt>
      <trkpt lat="45.99697" lon="6.44316">
        <ele>1850.68</ele>
        <time>2022-01-16T10:58:34Z</time>
      </trkpt>
      <trkpt lat="45.99704" lon="6.44311">
        <ele>1851.64</ele>
        <time>2022-01-16T10:58:45Z</time>
      </trkpt>
      <trkpt lat="45.99719" lon="6.44313">
        <ele>1852.6</ele>
        <time>2022-01-16T10:59:07Z</time>
      </trkpt>
      <trkpt lat="45.99729" lon="6.44315">
        <ele>1854.52</ele>
        <time>2022-01-16T10:59:24Z</time>
      </trkpt>
      <trkpt lat="45.99743" lon="6.44312">
        <ele>1856.92</ele>
        <time>2022-01-16T10:59:47Z</time>
      </trkpt>
      <trkpt lat="45.99755" lon="6.44305">
        <ele>1858.85</ele>
        <time>2022-01-16T11:00:03Z</time>
      </trkpt>
      <trkpt lat="45.99767" lon="6.44309">
        <ele>1860.77</ele>
        <time>2022-01-16T11:00:23Z</time>
      </trkpt>
      <trkpt lat="45.99773" lon="6.4431">
        <ele>1862.21</ele>
        <time>2022-01-16T11:00:40Z</time>
      </trkpt>
      <trkpt lat="45.99782" lon="6.44315">
        <ele>1864.61</ele>
        <time>2022-01-16T11:00:59Z</time>
      </trkpt>
      <trkpt lat="45.99785" lon="6.44317">
        <ele>1866.54</ele>
        <time>2022-01-16T11:01:15Z</time>
      </trkpt>
      <trkpt lat="45.99785" lon="6.44318">
        <ele>1863.17</ele>
        <time>2022-01-16T11:01:22Z</time>
      </trkpt>
      <trkpt lat="45.99785" lon="6.44321">
        <ele>1865.09</ele>
        <time>2022-01-16T11:01:54Z</time>
      </trkpt>
      <trkpt lat="45.99786" lon="6.4432">
        <ele>1865.58</ele>
        <time>2022-01-16T11:02:22Z</time>
      </trkpt>
      <trkpt lat="45.99789" lon="6.44319">
        <ele>1866.54</ele>
        <time>2022-01-16T11:02:38Z</time>
      </trkpt>
      <trkpt lat="45.99788" lon="6.4433">
        <ele>1869.42</ele>
        <time>2022-01-16T11:02:51Z</time>
      </trkpt>
      <trkpt lat="45.99791" lon="6.44344">
        <ele>1870.38</ele>
        <time>2022-01-16T11:03:08Z</time>
      </trkpt>
      <trkpt lat="45.99801" lon="6.44337">
        <ele>1872.79</ele>
        <time>2022-01-16T11:03:26Z</time>
      </trkpt>
      <trkpt lat="45.99807" lon="6.4434">
        <ele>1874.23</ele>
        <time>2022-01-16T11:03:42Z</time>
      </trkpt>
      <trkpt lat="45.99807" lon="6.44353">
        <ele>1874.71</ele>
        <time>2022-01-16T11:04:00Z</time>
      </trkpt>
      <trkpt lat="45.99807" lon="6.44357">
        <ele>1878.07</ele>
        <time>2022-01-16T11:04:05Z</time>
      </trkpt>
      <trkpt lat="45.99807" lon="6.4437">
        <ele>1878.55</ele>
        <time>2022-01-16T11:04:26Z</time>
      </trkpt>
      <trkpt lat="45.99816" lon="6.44363">
        <ele>1881.44</ele>
        <time>2022-01-16T11:04:45Z</time>
      </trkpt>
      <trkpt lat="45.99826" lon="6.44352">
        <ele>1883.84</ele>
        <time>2022-01-16T11:05:06Z</time>
      </trkpt>
      <trkpt lat="45.99834" lon="6.44345">
        <ele>1887.21</ele>
        <time>2022-01-16T11:05:27Z</time>
      </trkpt>
      <trkpt lat="45.99839" lon="6.44345">
        <ele>1887.69</ele>
        <time>2022-01-16T11:05:44Z</time>
      </trkpt>
      <trkpt lat="45.99839" lon="6.44356">
        <ele>1891.05</ele>
        <time>2022-01-16T11:05:58Z</time>
      </trkpt>
      <trkpt lat="45.9984" lon="6.44364">
        <ele>1891.53</ele>
        <time>2022-01-16T11:06:09Z</time>
      </trkpt>
      <trkpt lat="45.99839" lon="6.44379">
        <ele>1893.93</ele>
        <time>2022-01-16T11:06:29Z</time>
      </trkpt>
      <trkpt lat="45.99839" lon="6.4438">
        <ele>1893.93</ele>
        <time>2022-01-16T11:06:30Z</time>
      </trkpt>
      <trkpt lat="45.99842" lon="6.44389">
        <ele>1895.86</ele>
        <time>2022-01-16T11:06:47Z</time>
      </trkpt>
      <trkpt lat="45.99846" lon="6.44387">
        <ele>1896.82</ele>
        <time>2022-01-16T11:06:55Z</time>
      </trkpt>
      <trkpt lat="45.99856" lon="6.44379">
        <ele>1899.7</ele>
        <time>2022-01-16T11:07:20Z</time>
      </trkpt>
      <trkpt lat="45.99861" lon="6.44377">
        <ele>1901.63</ele>
        <time>2022-01-16T11:07:32Z</time>
      </trkpt>
      <trkpt lat="45.9986" lon="6.44385">
        <ele>1902.11</ele>
        <time>2022-01-16T11:07:51Z</time>
      </trkpt>
      <trkpt lat="45.9986" lon="6.44389">
        <ele>1903.55</ele>
        <time>2022-01-16T11:07:56Z</time>
      </trkpt>
      <trkpt lat="45.99859" lon="6.44397">
        <ele>1904.99</ele>
        <time>2022-01-16T11:08:08Z</time>
      </trkpt>
      <trkpt lat="45.99859" lon="6.44409">
        <ele>1906.91</ele>
        <time>2022-01-16T11:08:27Z</time>
      </trkpt>
      <trkpt lat="45.99862" lon="6.44406">
        <ele>1907.87</ele>
        <time>2022-01-16T11:08:42Z</time>
      </trkpt>
      <trkpt lat="45.99867" lon="6.44398">
        <ele>1910.76</ele>
        <time>2022-01-16T11:09:03Z</time>
      </trkpt>
      <trkpt lat="45.9987" lon="6.44398">
        <ele>1909.8</ele>
        <time>2022-01-16T11:09:21Z</time>
      </trkpt>
      <trkpt lat="45.99876" lon="6.44391">
        <ele>1913.16</ele>
        <time>2022-01-16T11:09:34Z</time>
      </trkpt>
      <trkpt lat="45.99878" lon="6.44389">
        <ele>1913.16</ele>
        <time>2022-01-16T11:09:40Z</time>
      </trkpt>
      <trkpt lat="45.99878" lon="6.44389">
        <ele>1914.6</ele>
        <time>2022-01-16T11:09:43Z</time>
      </trkpt>
      <trkpt lat="45.99878" lon="6.44389">
        <ele>1913.16</ele>
        <time>2022-01-16T11:09:45Z</time>
      </trkpt>
      <trkpt lat="45.99878" lon="6.44393">
        <ele>1913.64</ele>
        <time>2022-01-16T11:09:55Z</time>
      </trkpt>
      <trkpt lat="45.99876" lon="6.44402">
        <ele>1916.53</ele>
        <time>2022-01-16T11:10:13Z</time>
      </trkpt>
      <trkpt lat="45.99875" lon="6.44404">
        <ele>1915.08</ele>
        <time>2022-01-16T11:10:16Z</time>
      </trkpt>
      <trkpt lat="45.99875" lon="6.44407">
        <ele>1917.01</ele>
        <time>2022-01-16T11:10:22Z</time>
      </trkpt>
      <trkpt lat="45.99874" lon="6.44411">
        <ele>1917.97</ele>
        <time>2022-01-16T11:10:29Z</time>
      </trkpt>
      <trkpt lat="45.99877" lon="6.44409">
        <ele>1918.93</ele>
        <time>2022-01-16T11:10:49Z</time>
      </trkpt>
      <trkpt lat="45.99885" lon="6.444">
        <ele>1920.85</ele>
        <time>2022-01-16T11:11:12Z</time>
      </trkpt>
      <trkpt lat="45.99888" lon="6.44399">
        <ele>1922.77</ele>
        <time>2022-01-16T11:11:29Z</time>
      </trkpt>
      <trkpt lat="45.99887" lon="6.44403">
        <ele>1924.22</ele>
        <time>2022-01-16T11:11:47Z</time>
      </trkpt>
      <trkpt lat="45.99887" lon="6.444">
        <ele>1921.33</ele>
        <time>2022-01-16T11:12:01Z</time>
      </trkpt>
      <trkpt lat="45.99885" lon="6.44401">
        <ele>1924.7</ele>
        <time>2022-01-16T11:12:16Z</time>
      </trkpt>
      <trkpt lat="45.99883" lon="6.44408">
        <ele>1924.7</ele>
        <time>2022-01-16T11:12:30Z</time>
      </trkpt>
      <trkpt lat="45.99881" lon="6.44412">
        <ele>1925.66</ele>
        <time>2022-01-16T11:12:41Z</time>
      </trkpt>
      <trkpt lat="45.99879" lon="6.44423">
        <ele>1927.1</ele>
        <time>2022-01-16T11:12:55Z</time>
      </trkpt>
      <trkpt lat="45.99877" lon="6.44436">
        <ele>1929.02</ele>
        <time>2022-01-16T11:13:13Z</time>
      </trkpt>
      <trkpt lat="45.99875" lon="6.44444">
        <ele>1931.91</ele>
        <time>2022-01-16T11:13:32Z</time>
      </trkpt>
      <trkpt lat="45.99873" lon="6.44451">
        <ele>1932.87</ele>
        <time>2022-01-16T11:13:50Z</time>
      </trkpt>
      <trkpt lat="45.99877" lon="6.44451">
        <ele>1934.79</ele>
        <time>2022-01-16T11:14:09Z</time>
      </trkpt>
      <trkpt lat="45.99885" lon="6.44444">
        <ele>1937.67</ele>
        <time>2022-01-16T11:14:29Z</time>
      </trkpt>
      <trkpt lat="45.99887" lon="6.44442">
        <ele>1938.64</ele>
        <time>2022-01-16T11:14:38Z</time>
      </trkpt>
      <trkpt lat="45.99887" lon="6.44445">
        <ele>1938.64</ele>
        <time>2022-01-16T11:14:44Z</time>
      </trkpt>
      <trkpt lat="45.99886" lon="6.44449">
        <ele>1937.67</ele>
        <time>2022-01-16T11:14:49Z</time>
      </trkpt>
      <trkpt lat="45.99887" lon="6.44447">
        <ele>1939.12</ele>
        <time>2022-01-16T11:14:54Z</time>
      </trkpt>
      <trkpt lat="45.99887" lon="6.44455">
        <ele>1942</ele>
        <time>2022-01-16T11:15:12Z</time>
      </trkpt>
      <trkpt lat="45.99886" lon="6.44459">
        <ele>1943.44</ele>
        <time>2022-01-16T11:15:28Z</time>
      </trkpt>
      <trkpt lat="45.99885" lon="6.44459">
        <ele>1942</ele>
        <time>2022-01-16T11:15:30Z</time>
      </trkpt>
      <trkpt lat="45.99885" lon="6.44459">
        <ele>1942.48</ele>
        <time>2022-01-16T11:15:34Z</time>
      </trkpt>
      <trkpt lat="45.99885" lon="6.44458">
        <ele>1943.44</ele>
        <time>2022-01-16T11:15:54Z</time>
      </trkpt>
      <trkpt lat="45.99883" lon="6.44457">
        <ele>1942.96</ele>
        <time>2022-01-16T11:16:19Z</time>
      </trkpt>
      <trkpt lat="45.99884" lon="6.44456">
        <ele>1943.44</ele>
        <time>2022-01-16T11:16:39Z</time>
      </trkpt>
      <trkpt lat="45.99884" lon="6.44457">
        <ele>1943.44</ele>
        <time>2022-01-16T11:16:51Z</time>
      </trkpt>
      <trkpt lat="45.99883" lon="6.44458">
        <ele>1938.64</ele>
        <time>2022-01-16T11:17:18Z</time>
      </trkpt>
      <trkpt lat="45.99884" lon="6.44458">
        <ele>1942.96</ele>
        <time>2022-01-16T11:17:19Z</time>
      </trkpt>
      <trkpt lat="45.99885" lon="6.44455">
        <ele>1941.52</ele>
        <time>2022-01-16T11:17:56Z</time>
      </trkpt>
      <trkpt lat="45.99884" lon="6.44452">
        <ele>1941.52</ele>
        <time>2022-01-16T11:18:35Z</time>
      </trkpt>
      <trkpt lat="45.99887" lon="6.44453">
        <ele>1942.48</ele>
        <time>2022-01-16T11:19:03Z</time>
      </trkpt>
      <trkpt lat="45.99886" lon="6.44453">
        <ele>1942.48</ele>
        <time>2022-01-16T11:19:04Z</time>
      </trkpt>
      <trkpt lat="45.99886" lon="6.44452">
        <ele>1942.96</ele>
        <time>2022-01-16T11:19:32Z</time>
      </trkpt>
      <trkpt lat="45.99887" lon="6.44454">
        <ele>1941.52</ele>
        <time>2022-01-16T11:19:35Z</time>
      </trkpt>
      <trkpt lat="45.99886" lon="6.44453">
        <ele>1943.44</ele>
        <time>2022-01-16T11:19:37Z</time>
      </trkpt>
      <trkpt lat="45.99885" lon="6.44452">
        <ele>1941.52</ele>
        <time>2022-01-16T11:19:51Z</time>
      </trkpt>
      <trkpt lat="45.99885" lon="6.44452">
        <ele>1941.52</ele>
        <time>2022-01-16T11:20:13Z</time>
      </trkpt>
      <trkpt lat="45.99886" lon="6.44453">
        <ele>1941.04</ele>
        <time>2022-01-16T11:20:37Z</time>
      </trkpt>
      <trkpt lat="45.99886" lon="6.44453">
        <ele>1941.04</ele>
        <time>2022-01-16T11:20:38Z</time>
      </trkpt>
      <trkpt lat="45.99884" lon="6.44451">
        <ele>1942</ele>
        <time>2022-01-16T11:21:07Z</time>
      </trkpt>
      <trkpt lat="45.99886" lon="6.44456">
        <ele>1941.52</ele>
        <time>2022-01-16T11:21:26Z</time>
      </trkpt>
      <trkpt lat="45.99887" lon="6.44455">
        <ele>1941.52</ele>
        <time>2022-01-16T11:22:00Z</time>
      </trkpt>
      <trkpt lat="45.99885" lon="6.44453">
        <ele>1941.52</ele>
        <time>2022-01-16T11:22:29Z</time>
      </trkpt>
      <trkpt lat="45.99883" lon="6.44456">
        <ele>1942</ele>
        <time>2022-01-16T11:23:16Z</time>
      </trkpt>
      <trkpt lat="45.99883" lon="6.44456">
        <ele>1942</ele>
        <time>2022-01-16T11:23:51Z</time>
      </trkpt>
      <trkpt lat="45.99883" lon="6.44456">
        <ele>1942</ele>
        <time>2022-01-16T11:24:37Z</time>
      </trkpt>
      <trkpt lat="45.99883" lon="6.44455">
        <ele>1942</ele>
        <time>2022-01-16T11:25:24Z</time>
      </trkpt>
      <trkpt lat="45.99884" lon="6.44458">
        <ele>1942</ele>
        <time>2022-01-16T11:26:13Z</time>
      </trkpt>
      <trkpt lat="45.99884" lon="6.44459">
        <ele>1942.48</ele>
        <time>2022-01-16T11:27:10Z</time>
      </trkpt>
      <trkpt lat="45.99886" lon="6.44458">
        <ele>1943.44</ele>
        <time>2022-01-16T11:27:50Z</time>
      </trkpt>
      <trkpt lat="45.99884" lon="6.44458">
        <ele>1943.44</ele>
        <time>2022-01-16T11:28:40Z</time>
      </trkpt>
      <trkpt lat="45.99884" lon="6.44456">
        <ele>1943.44</ele>
        <time>2022-01-16T11:29:20Z</time>
      </trkpt>
      <trkpt lat="45.99886" lon="6.44457">
        <ele>1943.92</ele>
        <time>2022-01-16T11:30:13Z</time>
      </trkpt>
      <trkpt lat="45.99883" lon="6.44455">
        <ele>1943.92</ele>
        <time>2022-01-16T11:31:01Z</time>
      </trkpt>
      <trkpt lat="45.99884" lon="6.44457">
        <ele>1943.92</ele>
        <time>2022-01-16T11:31:37Z</time>
      </trkpt>
      <trkpt lat="45.99883" lon="6.44457">
        <ele>1943.92</ele>
        <time>2022-01-16T11:32:11Z</time>
      </trkpt>
      <trkpt lat="45.99885" lon="6.44458">
        <ele>1943.92</ele>
        <time>2022-01-16T11:32:52Z</time>
      </trkpt>
      <trkpt lat="45.99884" lon="6.44457">
        <ele>1943.92</ele>
        <time>2022-01-16T11:33:16Z</time>
      </trkpt>
      <trkpt lat="45.99885" lon="6.44457">
        <ele>1943.92</ele>
        <time>2022-01-16T11:33:45Z</time>
      </trkpt>
      <trkpt lat="45.99884" lon="6.44457">
        <ele>1943.92</ele>
        <time>2022-01-16T11:34:19Z</time>
      </trkpt>
      <trkpt lat="45.99885" lon="6.44457">
        <ele>1943.44</ele>
        <time>2022-01-16T11:34:47Z</time>
      </trkpt>
      <trkpt lat="45.99885" lon="6.44457">
        <ele>1944.88</ele>
        <time>2022-01-16T11:34:49Z</time>
      </trkpt>
      <trkpt lat="45.99884" lon="6.44457">
        <ele>1942.96</ele>
        <time>2022-01-16T11:34:54Z</time>
      </trkpt>
      <trkpt lat="45.99884" lon="6.44457">
        <ele>1944.88</ele>
        <time>2022-01-16T11:35:06Z</time>
      </trkpt>
      <trkpt lat="45.99885" lon="6.44456">
        <ele>1944.88</ele>
        <time>2022-01-16T11:35:48Z</time>
      </trkpt>
      <trkpt lat="45.99884" lon="6.44456">
        <ele>1944.88</ele>
        <time>2022-01-16T11:36:30Z</time>
      </trkpt>
      <trkpt lat="45.99885" lon="6.44456">
        <ele>1945.36</ele>
        <time>2022-01-16T11:36:54Z</time>
      </trkpt>
      <trkpt lat="45.99885" lon="6.44457">
        <ele>1944.4</ele>
        <time>2022-01-16T11:37:17Z</time>
      </trkpt>
      <trkpt lat="45.99885" lon="6.44455">
        <ele>1945.36</ele>
        <time>2022-01-16T11:37:44Z</time>
      </trkpt>
      <trkpt lat="45.99883" lon="6.44454">
        <ele>1945.85</ele>
        <time>2022-01-16T11:38:09Z</time>
      </trkpt>
      <trkpt lat="45.99884" lon="6.44452">
        <ele>1945.85</ele>
        <time>2022-01-16T11:38:27Z</time>
      </trkpt>
      <trkpt lat="45.99884" lon="6.44452">
        <ele>1944.88</ele>
        <time>2022-01-16T11:38:34Z</time>
      </trkpt>
      <trkpt lat="45.99885" lon="6.44453">
        <ele>1946.33</ele>
        <time>2022-01-16T11:38:38Z</time>
      </trkpt>
      <trkpt lat="45.99885" lon="6.44452">
        <ele>1946.33</ele>
        <time>2022-01-16T11:39:22Z</time>
      </trkpt>
      <trkpt lat="45.99886" lon="6.44454">
        <ele>1945.85</ele>
        <time>2022-01-16T11:39:48Z</time>
      </trkpt>
      <trkpt lat="45.99887" lon="6.44457">
        <ele>1945.85</ele>
        <time>2022-01-16T11:40:21Z</time>
      </trkpt>
      <trkpt lat="45.99888" lon="6.44452">
        <ele>1946.33</ele>
        <time>2022-01-16T11:40:45Z</time>
      </trkpt>
      <trkpt lat="45.99887" lon="6.44452">
        <ele>1944.88</ele>
        <time>2022-01-16T11:40:48Z</time>
      </trkpt>
      <trkpt lat="45.99886" lon="6.44452">
        <ele>1945.85</ele>
        <time>2022-01-16T11:40:50Z</time>
      </trkpt>
      <trkpt lat="45.99885" lon="6.44452">
        <ele>1943.92</ele>
        <time>2022-01-16T11:40:55Z</time>
      </trkpt>
      <trkpt lat="45.99884" lon="6.44454">
        <ele>1943.44</ele>
        <time>2022-01-16T11:41:11Z</time>
      </trkpt>
      <trkpt lat="45.99882" lon="6.44452">
        <ele>1945.85</ele>
        <time>2022-01-16T11:41:13Z</time>
      </trkpt>
      <trkpt lat="45.99883" lon="6.44449">
        <ele>1942.48</ele>
        <time>2022-01-16T11:41:14Z</time>
      </trkpt>
      <trkpt lat="45.99884" lon="6.44446">
        <ele>1941.04</ele>
        <time>2022-01-16T11:41:18Z</time>
      </trkpt>
      <trkpt lat="45.99882" lon="6.44444">
        <ele>1938.16</ele>
        <time>2022-01-16T11:41:19Z</time>
      </trkpt>
      <trkpt lat="45.9988" lon="6.44444">
        <ele>1938.16</ele>
        <time>2022-01-16T11:41:20Z</time>
      </trkpt>
      <trkpt lat="45.99879" lon="6.44444">
        <ele>1937.19</ele>
        <time>2022-01-16T11:41:21Z</time>
      </trkpt>
      <trkpt lat="45.99877" lon="6.44443">
        <ele>1938.64</ele>
        <time>2022-01-16T11:41:22Z</time>
      </trkpt>
      <trkpt lat="45.99876" lon="6.44442">
        <ele>1936.23</ele>
        <time>2022-01-16T11:41:23Z</time>
      </trkpt>
      <trkpt lat="45.99876" lon="6.4444">
        <ele>1934.79</ele>
        <time>2022-01-16T11:41:24Z</time>
      </trkpt>
      <trkpt lat="45.99876" lon="6.44437">
        <ele>1933.83</ele>
        <time>2022-01-16T11:41:26Z</time>
      </trkpt>
      <trkpt lat="45.99877" lon="6.44434">
        <ele>1931.91</ele>
        <time>2022-01-16T11:41:30Z</time>
      </trkpt>
      <trkpt lat="45.99877" lon="6.44432">
        <ele>1931.43</ele>
        <time>2022-01-16T11:41:31Z</time>
      </trkpt>
      <trkpt lat="45.99878" lon="6.44429">
        <ele>1931.43</ele>
        <time>2022-01-16T11:41:32Z</time>
      </trkpt>
      <trkpt lat="45.99881" lon="6.44414">
        <ele>1927.58</ele>
        <time>2022-01-16T11:41:35Z</time>
      </trkpt>
      <trkpt lat="45.99882" lon="6.44409">
        <ele>1927.58</ele>
        <time>2022-01-16T11:41:36Z</time>
      </trkpt>
      <trkpt lat="45.99886" lon="6.44396">
        <ele>1924.7</ele>
        <time>2022-01-16T11:41:41Z</time>
      </trkpt>
      <trkpt lat="45.99888" lon="6.44393">
        <ele>1923.74</ele>
        <time>2022-01-16T11:41:56Z</time>
      </trkpt>
      <trkpt lat="45.99889" lon="6.4439">
        <ele>1922.77</ele>
        <time>2022-01-16T11:41:58Z</time>
      </trkpt>
      <trkpt lat="45.9988" lon="6.4439">
        <ele>1918.93</ele>
        <time>2022-01-16T11:42:01Z</time>
      </trkpt>
      <trkpt lat="45.99876" lon="6.44395">
        <ele>1917.97</ele>
        <time>2022-01-16T11:42:03Z</time>
      </trkpt>
      <trkpt lat="45.99873" lon="6.44398">
        <ele>1917.01</ele>
        <time>2022-01-16T11:42:05Z</time>
      </trkpt>
      <trkpt lat="45.9987" lon="6.44401">
        <ele>1915.08</ele>
        <time>2022-01-16T11:42:08Z</time>
      </trkpt>
      <trkpt lat="45.99866" lon="6.44404">
        <ele>1913.64</ele>
        <time>2022-01-16T11:42:11Z</time>
      </trkpt>
      <trkpt lat="45.99865" lon="6.44406">
        <ele>1913.64</ele>
        <time>2022-01-16T11:42:12Z</time>
      </trkpt>
      <trkpt lat="45.99849" lon="6.44424">
        <ele>1910.28</ele>
        <time>2022-01-16T11:42:20Z</time>
      </trkpt>
      <trkpt lat="45.99826" lon="6.44449">
        <ele>1907.39</ele>
        <time>2022-01-16T11:42:30Z</time>
      </trkpt>
      <trkpt lat="45.9982" lon="6.44455">
        <ele>1906.43</ele>
        <time>2022-01-16T11:42:32Z</time>
      </trkpt>
      <trkpt lat="45.99816" lon="6.44457">
        <ele>1906.43</ele>
        <time>2022-01-16T11:42:33Z</time>
      </trkpt>
      <trkpt lat="45.99811" lon="6.44457">
        <ele>1906.43</ele>
        <time>2022-01-16T11:42:34Z</time>
      </trkpt>
      <trkpt lat="45.99806" lon="6.44456">
        <ele>1904.99</ele>
        <time>2022-01-16T11:42:35Z</time>
      </trkpt>
      <trkpt lat="45.99799" lon="6.44454">
        <ele>1902.11</ele>
        <time>2022-01-16T11:42:36Z</time>
      </trkpt>
      <trkpt lat="45.99792" lon="6.44451">
        <ele>1900.18</ele>
        <time>2022-01-16T11:42:37Z</time>
      </trkpt>
      <trkpt lat="45.9977" lon="6.44446">
        <ele>1897.3</ele>
        <time>2022-01-16T11:42:40Z</time>
      </trkpt>
      <trkpt lat="45.99765" lon="6.44445">
        <ele>1897.3</ele>
        <time>2022-01-16T11:42:41Z</time>
      </trkpt>
      <trkpt lat="45.99752" lon="6.44446">
        <ele>1896.34</ele>
        <time>2022-01-16T11:42:44Z</time>
      </trkpt>
      <trkpt lat="45.9973" lon="6.44451">
        <ele>1893.93</ele>
        <time>2022-01-16T11:42:49Z</time>
      </trkpt>
      <trkpt lat="45.99721" lon="6.44452">
        <ele>1892.97</ele>
        <time>2022-01-16T11:42:51Z</time>
      </trkpt>
      <trkpt lat="45.99717" lon="6.44451">
        <ele>1892.97</ele>
        <time>2022-01-16T11:42:52Z</time>
      </trkpt>
      <trkpt lat="45.99705" lon="6.44448">
        <ele>1892.97</ele>
        <time>2022-01-16T11:42:58Z</time>
      </trkpt>
      <trkpt lat="45.99702" lon="6.44446">
        <ele>1892.49</ele>
        <time>2022-01-16T11:42:59Z</time>
      </trkpt>
      <trkpt lat="45.997" lon="6.44445">
        <ele>1891.05</ele>
        <time>2022-01-16T11:43:00Z</time>
      </trkpt>
      <trkpt lat="45.99697" lon="6.44444">
        <ele>1891.05</ele>
        <time>2022-01-16T11:43:01Z</time>
      </trkpt>
      <trkpt lat="45.99687" lon="6.4444">
        <ele>1889.13</ele>
        <time>2022-01-16T11:43:05Z</time>
      </trkpt>
      <trkpt lat="45.99684" lon="6.44443">
        <ele>1890.57</ele>
        <time>2022-01-16T11:43:10Z</time>
      </trkpt>
      <trkpt lat="45.9969" lon="6.44443">
        <ele>1890.09</ele>
        <time>2022-01-16T11:43:40Z</time>
      </trkpt>
      <trkpt lat="45.99689" lon="6.44441">
        <ele>1890.09</ele>
        <time>2022-01-16T11:44:02Z</time>
      </trkpt>
      <trkpt lat="45.99688" lon="6.44441">
        <ele>1890.09</ele>
        <time>2022-01-16T11:44:03Z</time>
      </trkpt>
      <trkpt lat="45.99684" lon="6.44438">
        <ele>1889.61</ele>
        <time>2022-01-16T11:44:05Z</time>
      </trkpt>
      <trkpt lat="45.99684" lon="6.44435">
        <ele>1889.61</ele>
        <time>2022-01-16T11:44:06Z</time>
      </trkpt>
      <trkpt lat="45.99686" lon="6.44431">
        <ele>1886.72</ele>
        <time>2022-01-16T11:44:07Z</time>
      </trkpt>
      <trkpt lat="45.99688" lon="6.44429">
        <ele>1885.76</ele>
        <time>2022-01-16T11:44:08Z</time>
      </trkpt>
      <trkpt lat="45.9969" lon="6.44428">
        <ele>1885.76</ele>
        <time>2022-01-16T11:44:09Z</time>
      </trkpt>
      <trkpt lat="45.99703" lon="6.44423">
        <ele>1883.36</ele>
        <time>2022-01-16T11:44:14Z</time>
      </trkpt>
      <trkpt lat="45.99704" lon="6.4442">
        <ele>1881.92</ele>
        <time>2022-01-16T11:44:15Z</time>
      </trkpt>
      <trkpt lat="45.99704" lon="6.44417">
        <ele>1881.44</ele>
        <time>2022-01-16T11:44:16Z</time>
      </trkpt>
      <trkpt lat="45.99704" lon="6.44414">
        <ele>1879.03</ele>
        <time>2022-01-16T11:44:17Z</time>
      </trkpt>
      <trkpt lat="45.99706" lon="6.4441">
        <ele>1879.03</ele>
        <time>2022-01-16T11:44:18Z</time>
      </trkpt>
      <trkpt lat="45.99707" lon="6.44405">
        <ele>1876.15</ele>
        <time>2022-01-16T11:44:19Z</time>
      </trkpt>
      <trkpt lat="45.99705" lon="6.444">
        <ele>1875.19</ele>
        <time>2022-01-16T11:44:20Z</time>
      </trkpt>
      <trkpt lat="45.99702" lon="6.44398">
        <ele>1875.19</ele>
        <time>2022-01-16T11:44:21Z</time>
      </trkpt>
      <trkpt lat="45.99697" lon="6.44396">
        <ele>1875.19</ele>
        <time>2022-01-16T11:44:22Z</time>
      </trkpt>
      <trkpt lat="45.9969" lon="6.44392">
        <ele>1872.79</ele>
        <time>2022-01-16T11:44:24Z</time>
      </trkpt>
      <trkpt lat="45.99692" lon="6.44383">
        <ele>1869.42</ele>
        <time>2022-01-16T11:44:27Z</time>
      </trkpt>
      <trkpt lat="45.99695" lon="6.44381">
        <ele>1868.94</ele>
        <time>2022-01-16T11:44:28Z</time>
      </trkpt>
      <trkpt lat="45.99706" lon="6.44374">
        <ele>1866.54</ele>
        <time>2022-01-16T11:44:31Z</time>
      </trkpt>
      <trkpt lat="45.9971" lon="6.44369">
        <ele>1866.54</ele>
        <time>2022-01-16T11:44:32Z</time>
      </trkpt>
      <trkpt lat="45.99718" lon="6.44358">
        <ele>1863.65</ele>
        <time>2022-01-16T11:44:35Z</time>
      </trkpt>
      <trkpt lat="45.99718" lon="6.44356">
        <ele>1864.13</ele>
        <time>2022-01-16T11:44:36Z</time>
      </trkpt>
      <trkpt lat="45.99717" lon="6.44353">
        <ele>1863.17</ele>
        <time>2022-01-16T11:44:37Z</time>
      </trkpt>
      <trkpt lat="45.99708" lon="6.4435">
        <ele>1861.25</ele>
        <time>2022-01-16T11:44:40Z</time>
      </trkpt>
      <trkpt lat="45.99701" lon="6.44352">
        <ele>1859.33</ele>
        <time>2022-01-16T11:44:42Z</time>
      </trkpt>
      <trkpt lat="45.99693" lon="6.44345">
        <ele>1857.89</ele>
        <time>2022-01-16T11:44:45Z</time>
      </trkpt>
      <trkpt lat="45.99694" lon="6.4434">
        <ele>1856.92</ele>
        <time>2022-01-16T11:44:46Z</time>
      </trkpt>
      <trkpt lat="45.99702" lon="6.44321">
        <ele>1855.48</ele>
        <time>2022-01-16T11:44:49Z</time>
      </trkpt>
      <trkpt lat="45.99706" lon="6.44314">
        <ele>1855.48</ele>
        <time>2022-01-16T11:44:50Z</time>
      </trkpt>
      <trkpt lat="45.99702" lon="6.44311">
        <ele>1852.6</ele>
        <time>2022-01-16T11:44:53Z</time>
      </trkpt>
      <trkpt lat="45.99698" lon="6.44312">
        <ele>1851.64</ele>
        <time>2022-01-16T11:44:55Z</time>
      </trkpt>
      <trkpt lat="45.99685" lon="6.44321">
        <ele>1850.68</ele>
        <time>2022-01-16T11:44:59Z</time>
      </trkpt>
      <trkpt lat="45.99664" lon="6.44321">
        <ele>1847.31</ele>
        <time>2022-01-16T11:45:04Z</time>
      </trkpt>
      <trkpt lat="45.99648" lon="6.44322">
        <ele>1846.35</ele>
        <time>2022-01-16T11:45:09Z</time>
      </trkpt>
      <trkpt lat="45.99645" lon="6.44316">
        <ele>1844.91</ele>
        <time>2022-01-16T11:45:10Z</time>
      </trkpt>
      <trkpt lat="45.99637" lon="6.44301">
        <ele>1839.62</ele>
        <time>2022-01-16T11:45:13Z</time>
      </trkpt>
      <trkpt lat="45.99631" lon="6.443">
        <ele>1838.66</ele>
        <time>2022-01-16T11:45:14Z</time>
      </trkpt>
      <trkpt lat="45.99627" lon="6.44301">
        <ele>1837.22</ele>
        <time>2022-01-16T11:45:15Z</time>
      </trkpt>
      <trkpt lat="45.99624" lon="6.44302">
        <ele>1837.22</ele>
        <time>2022-01-16T11:45:16Z</time>
      </trkpt>
      <trkpt lat="45.99617" lon="6.44304">
        <ele>1837.22</ele>
        <time>2022-01-16T11:45:18Z</time>
      </trkpt>
      <trkpt lat="45.99613" lon="6.44303">
        <ele>1836.74</ele>
        <time>2022-01-16T11:45:19Z</time>
      </trkpt>
      <trkpt lat="45.99603" lon="6.443">
        <ele>1834.81</ele>
        <time>2022-01-16T11:45:21Z</time>
      </trkpt>
      <trkpt lat="45.99599" lon="6.44299">
        <ele>1833.85</ele>
        <time>2022-01-16T11:45:22Z</time>
      </trkpt>
      <trkpt lat="45.99595" lon="6.44299">
        <ele>1832.41</ele>
        <time>2022-01-16T11:45:23Z</time>
      </trkpt>
      <trkpt lat="45.99592" lon="6.44299">
        <ele>1832.41</ele>
        <time>2022-01-16T11:45:24Z</time>
      </trkpt>
      <trkpt lat="45.9959" lon="6.44287">
        <ele>1830.01</ele>
        <time>2022-01-16T11:45:27Z</time>
      </trkpt>
      <trkpt lat="45.99589" lon="6.44274">
        <ele>1827.12</ele>
        <time>2022-01-16T11:45:30Z</time>
      </trkpt>
      <trkpt lat="45.99582" lon="6.44271">
        <ele>1825.2</ele>
        <time>2022-01-16T11:45:32Z</time>
      </trkpt>
      <trkpt lat="45.99577" lon="6.4427">
        <ele>1825.2</ele>
        <time>2022-01-16T11:45:33Z</time>
      </trkpt>
      <trkpt lat="45.99547" lon="6.44268">
        <ele>1822.32</ele>
        <time>2022-01-16T11:45:42Z</time>
      </trkpt>
      <trkpt lat="45.99529" lon="6.44256">
        <ele>1820.39</ele>
        <time>2022-01-16T11:45:50Z</time>
      </trkpt>
      <trkpt lat="45.9953" lon="6.44256">
        <ele>1819.91</ele>
        <time>2022-01-16T11:45:58Z</time>
      </trkpt>
      <trkpt lat="45.9953" lon="6.44255">
        <ele>1818.95</ele>
        <time>2022-01-16T11:46:20Z</time>
      </trkpt>
      <trkpt lat="45.99528" lon="6.44256">
        <ele>1818.95</ele>
        <time>2022-01-16T11:46:21Z</time>
      </trkpt>
      <trkpt lat="45.99525" lon="6.44258">
        <ele>1818.95</ele>
        <time>2022-01-16T11:46:22Z</time>
      </trkpt>
      <trkpt lat="45.9952" lon="6.44261">
        <ele>1816.55</ele>
        <time>2022-01-16T11:46:23Z</time>
      </trkpt>
      <trkpt lat="45.99515" lon="6.44263">
        <ele>1815.59</ele>
        <time>2022-01-16T11:46:24Z</time>
      </trkpt>
      <trkpt lat="45.99497" lon="6.44272">
        <ele>1814.15</ele>
        <time>2022-01-16T11:46:27Z</time>
      </trkpt>
      <trkpt lat="45.99479" lon="6.44284">
        <ele>1813.18</ele>
        <time>2022-01-16T11:46:31Z</time>
      </trkpt>
      <trkpt lat="45.99475" lon="6.44284">
        <ele>1812.7</ele>
        <time>2022-01-16T11:46:32Z</time>
      </trkpt>
      <trkpt lat="45.9947" lon="6.44283">
        <ele>1811.26</ele>
        <time>2022-01-16T11:46:33Z</time>
      </trkpt>
      <trkpt lat="45.99465" lon="6.4428">
        <ele>1810.78</ele>
        <time>2022-01-16T11:46:34Z</time>
      </trkpt>
      <trkpt lat="45.99461" lon="6.44277">
        <ele>1809.82</ele>
        <time>2022-01-16T11:46:35Z</time>
      </trkpt>
      <trkpt lat="45.99457" lon="6.44274">
        <ele>1809.82</ele>
        <time>2022-01-16T11:46:36Z</time>
      </trkpt>
      <trkpt lat="45.99454" lon="6.44271">
        <ele>1809.82</ele>
        <time>2022-01-16T11:46:37Z</time>
      </trkpt>
      <trkpt lat="45.99443" lon="6.44267">
        <ele>1808.86</ele>
        <time>2022-01-16T11:46:40Z</time>
      </trkpt>
      <trkpt lat="45.99425" lon="6.44267">
        <ele>1804.05</ele>
        <time>2022-01-16T11:46:43Z</time>
      </trkpt>
      <trkpt lat="45.9941" lon="6.44265">
        <ele>1801.65</ele>
        <time>2022-01-16T11:46:45Z</time>
      </trkpt>
      <trkpt lat="45.99367" lon="6.44257">
        <ele>1798.28</ele>
        <time>2022-01-16T11:46:53Z</time>
      </trkpt>
      <trkpt lat="45.99357" lon="6.44256">
        <ele>1797.8</ele>
        <time>2022-01-16T11:46:55Z</time>
      </trkpt>
      <trkpt lat="45.99345" lon="6.44253">
        <ele>1799.24</ele>
        <time>2022-01-16T11:46:58Z</time>
      </trkpt>
      <trkpt lat="45.99331" lon="6.44251">
        <ele>1800.21</ele>
        <time>2022-01-16T11:47:09Z</time>
      </trkpt>
      <trkpt lat="45.99329" lon="6.44251">
        <ele>1800.21</ele>
        <time>2022-01-16T11:47:12Z</time>
      </trkpt>
      <trkpt lat="45.99309" lon="6.44248">
        <ele>1798.76</ele>
        <time>2022-01-16T11:47:28Z</time>
      </trkpt>
      <trkpt lat="45.99306" lon="6.44245">
        <ele>1798.76</ele>
        <time>2022-01-16T11:47:47Z</time>
      </trkpt>
      <trkpt lat="45.99305" lon="6.44242">
        <ele>1797.8</ele>
        <time>2022-01-16T11:47:48Z</time>
      </trkpt>
      <trkpt lat="45.99304" lon="6.44238">
        <ele>1796.84</ele>
        <time>2022-01-16T11:47:49Z</time>
      </trkpt>
      <trkpt lat="45.99304" lon="6.44235">
        <ele>1796.84</ele>
        <time>2022-01-16T11:47:50Z</time>
      </trkpt>
      <trkpt lat="45.99304" lon="6.44232">
        <ele>1796.36</ele>
        <time>2022-01-16T11:47:51Z</time>
      </trkpt>
      <trkpt lat="45.99302" lon="6.44228">
        <ele>1795.88</ele>
        <time>2022-01-16T11:47:56Z</time>
      </trkpt>
      <trkpt lat="45.993" lon="6.44229">
        <ele>1795.4</ele>
        <time>2022-01-16T11:47:57Z</time>
      </trkpt>
      <trkpt lat="45.99297" lon="6.44231">
        <ele>1794.44</ele>
        <time>2022-01-16T11:47:58Z</time>
      </trkpt>
      <trkpt lat="45.99294" lon="6.44235">
        <ele>1794.44</ele>
        <time>2022-01-16T11:47:59Z</time>
      </trkpt>
      <trkpt lat="45.99292" lon="6.44238">
        <ele>1794.44</ele>
        <time>2022-01-16T11:48:00Z</time>
      </trkpt>
      <trkpt lat="45.99288" lon="6.4424">
        <ele>1793.96</ele>
        <time>2022-01-16T11:48:01Z</time>
      </trkpt>
      <trkpt lat="45.99285" lon="6.44241">
        <ele>1792.52</ele>
        <time>2022-01-16T11:48:02Z</time>
      </trkpt>
      <trkpt lat="45.99281" lon="6.44242">
        <ele>1792.52</ele>
        <time>2022-01-16T11:48:03Z</time>
      </trkpt>
      <trkpt lat="45.99276" lon="6.44242">
        <ele>1791.55</ele>
        <time>2022-01-16T11:48:04Z</time>
      </trkpt>
      <trkpt lat="45.99271" lon="6.44241">
        <ele>1791.07</ele>
        <time>2022-01-16T11:48:05Z</time>
      </trkpt>
      <trkpt lat="45.99266" lon="6.44241">
        <ele>1789.63</ele>
        <time>2022-01-16T11:48:06Z</time>
      </trkpt>
      <trkpt lat="45.9926" lon="6.44243">
        <ele>1788.67</ele>
        <time>2022-01-16T11:48:07Z</time>
      </trkpt>
      <trkpt lat="45.99256" lon="6.44244">
        <ele>1788.19</ele>
        <time>2022-01-16T11:48:08Z</time>
      </trkpt>
      <trkpt lat="45.99238" lon="6.44247">
        <ele>1787.23</ele>
        <time>2022-01-16T11:48:14Z</time>
      </trkpt>
      <trkpt lat="45.99217" lon="6.44249">
        <ele>1783.86</ele>
        <time>2022-01-16T11:48:20Z</time>
      </trkpt>
      <trkpt lat="45.99215" lon="6.44248">
        <ele>1786.27</ele>
        <time>2022-01-16T11:48:21Z</time>
      </trkpt>
      <trkpt lat="45.99214" lon="6.44245">
        <ele>1783.86</ele>
        <time>2022-01-16T11:48:22Z</time>
      </trkpt>
      <trkpt lat="45.99217" lon="6.44238">
        <ele>1780.98</ele>
        <time>2022-01-16T11:48:24Z</time>
      </trkpt>
      <trkpt lat="45.99221" lon="6.44235">
        <ele>1780.5</ele>
        <time>2022-01-16T11:48:25Z</time>
      </trkpt>
      <trkpt lat="45.99229" lon="6.44226">
        <ele>1779.54</ele>
        <time>2022-01-16T11:48:28Z</time>
      </trkpt>
      <trkpt lat="45.9923" lon="6.44222">
        <ele>1778.58</ele>
        <time>2022-01-16T11:48:29Z</time>
      </trkpt>
      <trkpt lat="45.9923" lon="6.44219">
        <ele>1779.54</ele>
        <time>2022-01-16T11:48:30Z</time>
      </trkpt>
      <trkpt lat="45.99228" lon="6.44217">
        <ele>1779.54</ele>
        <time>2022-01-16T11:48:31Z</time>
      </trkpt>
      <trkpt lat="45.99225" lon="6.44216">
        <ele>1777.61</ele>
        <time>2022-01-16T11:48:32Z</time>
      </trkpt>
      <trkpt lat="45.9922" lon="6.44218">
        <ele>1776.65</ele>
        <time>2022-01-16T11:48:33Z</time>
      </trkpt>
      <trkpt lat="45.99216" lon="6.4422">
        <ele>1775.69</ele>
        <time>2022-01-16T11:48:34Z</time>
      </trkpt>
      <trkpt lat="45.99212" lon="6.44222">
        <ele>1775.69</ele>
        <time>2022-01-16T11:48:35Z</time>
      </trkpt>
      <trkpt lat="45.99207" lon="6.44222">
        <ele>1775.69</ele>
        <time>2022-01-16T11:48:36Z</time>
      </trkpt>
      <trkpt lat="45.99203" lon="6.44221">
        <ele>1774.25</ele>
        <time>2022-01-16T11:48:37Z</time>
      </trkpt>
      <trkpt lat="45.99168" lon="6.44223">
        <ele>1770.89</ele>
        <time>2022-01-16T11:48:49Z</time>
      </trkpt>
      <trkpt lat="45.99161" lon="6.44219">
        <ele>1769.92</ele>
        <time>2022-01-16T11:48:51Z</time>
      </trkpt>
      <trkpt lat="45.99138" lon="6.44204">
        <ele>1766.56</ele>
        <time>2022-01-16T11:49:00Z</time>
      </trkpt>
      <trkpt lat="45.99135" lon="6.44202">
        <ele>1766.56</ele>
        <time>2022-01-16T11:49:01Z</time>
      </trkpt>
      <trkpt lat="45.99121" lon="6.44192">
        <ele>1764.64</ele>
        <time>2022-01-16T11:49:06Z</time>
      </trkpt>
      <trkpt lat="45.99106" lon="6.44178">
        <ele>1761.75</ele>
        <time>2022-01-16T11:49:11Z</time>
      </trkpt>
      <trkpt lat="45.99101" lon="6.44173">
        <ele>1759.83</ele>
        <time>2022-01-16T11:49:12Z</time>
      </trkpt>
      <trkpt lat="45.99087" lon="6.44156">
        <ele>1757.43</ele>
        <time>2022-01-16T11:49:15Z</time>
      </trkpt>
      <trkpt lat="45.99055" lon="6.44118">
        <ele>1755.02</ele>
        <time>2022-01-16T11:49:25Z</time>
      </trkpt>
      <trkpt lat="45.99038" lon="6.44103">
        <ele>1753.58</ele>
        <time>2022-01-16T11:49:30Z</time>
      </trkpt>
      <trkpt lat="45.99031" lon="6.44096">
        <ele>1752.62</ele>
        <time>2022-01-16T11:49:32Z</time>
      </trkpt>
      <trkpt lat="45.99012" lon="6.44071">
        <ele>1748.78</ele>
        <time>2022-01-16T11:49:39Z</time>
      </trkpt>
      <trkpt lat="45.99005" lon="6.4406">
        <ele>1746.37</ele>
        <time>2022-01-16T11:49:41Z</time>
      </trkpt>
      <trkpt lat="45.99" lon="6.44055">
        <ele>1746.37</ele>
        <time>2022-01-16T11:49:42Z</time>
      </trkpt>
      <trkpt lat="45.98981" lon="6.44038">
        <ele>1744.45</ele>
        <time>2022-01-16T11:49:46Z</time>
      </trkpt>
      <trkpt lat="45.98966" lon="6.44029">
        <ele>1742.05</ele>
        <time>2022-01-16T11:49:49Z</time>
      </trkpt>
      <trkpt lat="45.9896" lon="6.44027">
        <ele>1741.57</ele>
        <time>2022-01-16T11:49:50Z</time>
      </trkpt>
      <trkpt lat="45.98956" lon="6.44026">
        <ele>1741.57</ele>
        <time>2022-01-16T11:49:51Z</time>
      </trkpt>
      <trkpt lat="45.98952" lon="6.44026">
        <ele>1742.53</ele>
        <time>2022-01-16T11:49:52Z</time>
      </trkpt>
      <trkpt lat="45.98937" lon="6.44023">
        <ele>1741.08</ele>
        <time>2022-01-16T11:49:58Z</time>
      </trkpt>
      <trkpt lat="45.98928" lon="6.44019">
        <ele>1738.2</ele>
        <time>2022-01-16T11:50:01Z</time>
      </trkpt>
      <trkpt lat="45.98925" lon="6.44017">
        <ele>1738.2</ele>
        <time>2022-01-16T11:50:02Z</time>
      </trkpt>
      <trkpt lat="45.989" lon="6.44003">
        <ele>1737.24</ele>
        <time>2022-01-16T11:50:14Z</time>
      </trkpt>
      <trkpt lat="45.9889" lon="6.43968">
        <ele>1733.88</ele>
        <time>2022-01-16T11:50:24Z</time>
      </trkpt>
      <trkpt lat="45.98879" lon="6.43921">
        <ele>1730.99</ele>
        <time>2022-01-16T11:50:36Z</time>
      </trkpt>
      <trkpt lat="45.98861" lon="6.43882">
        <ele>1729.55</ele>
        <time>2022-01-16T11:50:49Z</time>
      </trkpt>
      <trkpt lat="45.98846" lon="6.43856">
        <ele>1729.07</ele>
        <time>2022-01-16T11:51:01Z</time>
      </trkpt>
      <trkpt lat="45.98835" lon="6.43836">
        <ele>1730.51</ele>
        <time>2022-01-16T11:51:13Z</time>
      </trkpt>
      <trkpt lat="45.98835" lon="6.43835">
        <ele>1730.51</ele>
        <time>2022-01-16T11:51:14Z</time>
      </trkpt>
      <trkpt lat="45.98825" lon="6.43824">
        <ele>1730.99</ele>
        <time>2022-01-16T11:51:30Z</time>
      </trkpt>
      <trkpt lat="45.9882" lon="6.43817">
        <ele>1731.47</ele>
        <time>2022-01-16T11:51:45Z</time>
      </trkpt>
      <trkpt lat="45.98818" lon="6.43801">
        <ele>1729.55</ele>
        <time>2022-01-16T11:51:55Z</time>
      </trkpt>
      <trkpt lat="45.98812" lon="6.43772">
        <ele>1729.55</ele>
        <time>2022-01-16T11:52:04Z</time>
      </trkpt>
      <trkpt lat="45.9881" lon="6.43754">
        <ele>1729.55</ele>
        <time>2022-01-16T11:52:19Z</time>
      </trkpt>
      <trkpt lat="45.98808" lon="6.43743">
        <ele>1730.99</ele>
        <time>2022-01-16T11:52:28Z</time>
      </trkpt>
      <trkpt lat="45.98805" lon="6.43726">
        <ele>1730.99</ele>
        <time>2022-01-16T11:52:41Z</time>
      </trkpt>
      <trkpt lat="45.98804" lon="6.43722">
        <ele>1729.55</ele>
        <time>2022-01-16T11:52:42Z</time>
      </trkpt>
      <trkpt lat="45.98798" lon="6.43689">
        <ele>1729.55</ele>
        <time>2022-01-16T11:52:54Z</time>
      </trkpt>
      <trkpt lat="45.98794" lon="6.43669">
        <ele>1729.55</ele>
        <time>2022-01-16T11:53:08Z</time>
      </trkpt>
      <trkpt lat="45.98792" lon="6.43661">
        <ele>1729.55</ele>
        <time>2022-01-16T11:53:17Z</time>
      </trkpt>
      <trkpt lat="45.98792" lon="6.43654">
        <ele>1729.07</ele>
        <time>2022-01-16T11:53:21Z</time>
      </trkpt>
      <trkpt lat="45.98788" lon="6.43644">
        <ele>1730.51</ele>
        <time>2022-01-16T11:53:33Z</time>
      </trkpt>
      <trkpt lat="45.98787" lon="6.43644">
        <ele>1730.03</ele>
        <time>2022-01-16T11:53:46Z</time>
      </trkpt>
      <trkpt lat="45.98787" lon="6.43644">
        <ele>1728.59</ele>
        <time>2022-01-16T11:53:47Z</time>
      </trkpt>
      <trkpt lat="45.98787" lon="6.43644">
        <ele>1730.51</ele>
        <time>2022-01-16T11:53:50Z</time>
      </trkpt>
      <trkpt lat="45.98788" lon="6.43644">
        <ele>1730.51</ele>
        <time>2022-01-16T11:54:09Z</time>
      </trkpt>
      <trkpt lat="45.98788" lon="6.43643">
        <ele>1729.07</ele>
        <time>2022-01-16T11:54:10Z</time>
      </trkpt>
      <trkpt lat="45.98785" lon="6.43644">
        <ele>1728.59</ele>
        <time>2022-01-16T11:54:23Z</time>
      </trkpt>
      <trkpt lat="45.98786" lon="6.43644">
        <ele>1728.59</ele>
        <time>2022-01-16T11:54:57Z</time>
      </trkpt>
      <trkpt lat="45.98787" lon="6.43643">
        <ele>1728.59</ele>
        <time>2022-01-16T11:55:20Z</time>
      </trkpt>
      <trkpt lat="45.98785" lon="6.43643">
        <ele>1728.59</ele>
        <time>2022-01-16T11:55:45Z</time>
      </trkpt>
      <trkpt lat="45.98786" lon="6.43645">
        <ele>1728.59</ele>
        <time>2022-01-16T11:56:17Z</time>
      </trkpt>
      <trkpt lat="45.9879" lon="6.43645">
        <ele>1728.59</ele>
        <time>2022-01-16T11:56:50Z</time>
      </trkpt>
      <trkpt lat="45.98789" lon="6.43644">
        <ele>1728.59</ele>
        <time>2022-01-16T11:57:12Z</time>
      </trkpt>
      <trkpt lat="45.98789" lon="6.43645">
        <ele>1724.26</ele>
        <time>2022-01-16T11:57:37Z</time>
      </trkpt>
      <trkpt lat="45.98789" lon="6.43645">
        <ele>1730.99</ele>
        <time>2022-01-16T11:57:38Z</time>
      </trkpt>
      <trkpt lat="45.98788" lon="6.43645">
        <ele>1730.03</ele>
        <time>2022-01-16T11:57:59Z</time>
      </trkpt>
      <trkpt lat="45.98788" lon="6.43644">
        <ele>1730.51</ele>
        <time>2022-01-16T11:58:22Z</time>
      </trkpt>
      <trkpt lat="45.98789" lon="6.43643">
        <ele>1730.51</ele>
        <time>2022-01-16T11:58:42Z</time>
      </trkpt>
      <trkpt lat="45.9879" lon="6.43644">
        <ele>1729.07</ele>
        <time>2022-01-16T11:59:08Z</time>
      </trkpt>
      <trkpt lat="45.9879" lon="6.43645">
        <ele>1730.51</ele>
        <time>2022-01-16T11:59:13Z</time>
      </trkpt>
      <trkpt lat="45.98788" lon="6.43643">
        <ele>1729.55</ele>
        <time>2022-01-16T11:59:34Z</time>
      </trkpt>
      <trkpt lat="45.98791" lon="6.43643">
        <ele>1729.55</ele>
        <time>2022-01-16T12:00:08Z</time>
      </trkpt>
      <trkpt lat="45.9879" lon="6.43642">
        <ele>1729.55</ele>
        <time>2022-01-16T12:00:34Z</time>
      </trkpt>
      <trkpt lat="45.98789" lon="6.43642">
        <ele>1729.55</ele>
        <time>2022-01-16T12:01:01Z</time>
      </trkpt>
      <trkpt lat="45.9879" lon="6.43642">
        <ele>1729.55</ele>
        <time>2022-01-16T12:01:25Z</time>
      </trkpt>
      <trkpt lat="45.9879" lon="6.43643">
        <ele>1729.55</ele>
        <time>2022-01-16T12:01:58Z</time>
      </trkpt>
      <trkpt lat="45.9879" lon="6.43642">
        <ele>1729.55</ele>
        <time>2022-01-16T12:02:28Z</time>
      </trkpt>
      <trkpt lat="45.98789" lon="6.43637">
        <ele>1730.51</ele>
        <time>2022-01-16T12:02:33Z</time>
      </trkpt>
      <trkpt lat="45.98787" lon="6.43628">
        <ele>1729.07</ele>
        <time>2022-01-16T12:02:40Z</time>
      </trkpt>
      <trkpt lat="45.98786" lon="6.43626">
        <ele>1730.99</ele>
        <time>2022-01-16T12:02:42Z</time>
      </trkpt>
      <trkpt lat="45.98785" lon="6.43621">
        <ele>1729.55</ele>
        <time>2022-01-16T12:02:46Z</time>
      </trkpt>
      <trkpt lat="45.9878" lon="6.43601">
        <ele>1729.55</ele>
        <time>2022-01-16T12:03:02Z</time>
      </trkpt>
      <trkpt lat="45.98774" lon="6.43584">
        <ele>1729.55</ele>
        <time>2022-01-16T12:03:17Z</time>
      </trkpt>
      <trkpt lat="45.98769" lon="6.43576">
        <ele>1730.99</ele>
        <time>2022-01-16T12:03:25Z</time>
      </trkpt>
      <trkpt lat="45.98761" lon="6.43561">
        <ele>1731.47</ele>
        <time>2022-01-16T12:03:42Z</time>
      </trkpt>
      <trkpt lat="45.98755" lon="6.43548">
        <ele>1733.39</ele>
        <time>2022-01-16T12:03:59Z</time>
      </trkpt>
      <trkpt lat="45.9875" lon="6.43537">
        <ele>1734.84</ele>
        <time>2022-01-16T12:04:17Z</time>
      </trkpt>
      <trkpt lat="45.98744" lon="6.43523">
        <ele>1737.24</ele>
        <time>2022-01-16T12:04:34Z</time>
      </trkpt>
      <trkpt lat="45.98733" lon="6.4351">
        <ele>1739.64</ele>
        <time>2022-01-16T12:04:52Z</time>
      </trkpt>
      <trkpt lat="45.98731" lon="6.43506">
        <ele>1739.64</ele>
        <time>2022-01-16T12:04:58Z</time>
      </trkpt>
      <trkpt lat="45.98726" lon="6.43498">
        <ele>1742.05</ele>
        <time>2022-01-16T12:05:13Z</time>
      </trkpt>
      <trkpt lat="45.98718" lon="6.43487">
        <ele>1743.01</ele>
        <time>2022-01-16T12:05:31Z</time>
      </trkpt>
      <trkpt lat="45.98715" lon="6.43484">
        <ele>1743.01</ele>
        <time>2022-01-16T12:05:37Z</time>
      </trkpt>
      <trkpt lat="45.98706" lon="6.43472">
        <ele>1743.49</ele>
        <time>2022-01-16T12:05:52Z</time>
      </trkpt>
      <trkpt lat="45.98694" lon="6.43457">
        <ele>1745.41</ele>
        <time>2022-01-16T12:06:11Z</time>
      </trkpt>
      <trkpt lat="45.9869" lon="6.43446">
        <ele>1748.29</ele>
        <time>2022-01-16T12:06:29Z</time>
      </trkpt>
      <trkpt lat="45.98681" lon="6.43435">
        <ele>1750.22</ele>
        <time>2022-01-16T12:06:45Z</time>
      </trkpt>
      <trkpt lat="45.98674" lon="6.43424">
        <ele>1750.7</ele>
        <time>2022-01-16T12:07:03Z</time>
      </trkpt>
      <trkpt lat="45.98669" lon="6.43414">
        <ele>1752.14</ele>
        <time>2022-01-16T12:07:18Z</time>
      </trkpt>
      <trkpt lat="45.98664" lon="6.43401">
        <ele>1754.54</ele>
        <time>2022-01-16T12:07:34Z</time>
      </trkpt>
      <trkpt lat="45.98664" lon="6.43391">
        <ele>1753.1</ele>
        <time>2022-01-16T12:07:40Z</time>
      </trkpt>
      <trkpt lat="45.9866" lon="6.43373">
        <ele>1755.5</ele>
        <time>2022-01-16T12:07:58Z</time>
      </trkpt>
      <trkpt lat="45.98655" lon="6.43356">
        <ele>1756.47</ele>
        <time>2022-01-16T12:08:15Z</time>
      </trkpt>
      <trkpt lat="45.98649" lon="6.43338">
        <ele>1758.39</ele>
        <time>2022-01-16T12:08:34Z</time>
      </trkpt>
      <trkpt lat="45.98645" lon="6.43322">
        <ele>1760.79</ele>
        <time>2022-01-16T12:08:53Z</time>
      </trkpt>
      <trkpt lat="45.98641" lon="6.43309">
        <ele>1761.27</ele>
        <time>2022-01-16T12:09:05Z</time>
      </trkpt>
      <trkpt lat="45.98638" lon="6.43299">
        <ele>1762.23</ele>
        <time>2022-01-16T12:09:15Z</time>
      </trkpt>
      <trkpt lat="45.98631" lon="6.4328">
        <ele>1763.2</ele>
        <time>2022-01-16T12:09:34Z</time>
      </trkpt>
      <trkpt lat="45.98626" lon="6.43263">
        <ele>1765.12</ele>
        <time>2022-01-16T12:09:53Z</time>
      </trkpt>
      <trkpt lat="45.9862" lon="6.43249">
        <ele>1767.04</ele>
        <time>2022-01-16T12:10:11Z</time>
      </trkpt>
      <trkpt lat="45.98612" lon="6.43234">
        <ele>1768.96</ele>
        <time>2022-01-16T12:10:31Z</time>
      </trkpt>
      <trkpt lat="45.98603" lon="6.43224">
        <ele>1771.37</ele>
        <time>2022-01-16T12:10:48Z</time>
      </trkpt>
      <trkpt lat="45.98594" lon="6.43214">
        <ele>1772.81</ele>
        <time>2022-01-16T12:11:06Z</time>
      </trkpt>
      <trkpt lat="45.98581" lon="6.43204">
        <ele>1775.21</ele>
        <time>2022-01-16T12:11:26Z</time>
      </trkpt>
      <trkpt lat="45.98569" lon="6.43204">
        <ele>1777.13</ele>
        <time>2022-01-16T12:11:46Z</time>
      </trkpt>
      <trkpt lat="45.98556" lon="6.43198">
        <ele>1779.06</ele>
        <time>2022-01-16T12:12:06Z</time>
      </trkpt>
      <trkpt lat="45.98544" lon="6.4319">
        <ele>1781.46</ele>
        <time>2022-01-16T12:12:28Z</time>
      </trkpt>
      <trkpt lat="45.98534" lon="6.43187">
        <ele>1784.34</ele>
        <time>2022-01-16T12:12:47Z</time>
      </trkpt>
      <trkpt lat="45.98524" lon="6.4319">
        <ele>1786.27</ele>
        <time>2022-01-16T12:13:04Z</time>
      </trkpt>
      <trkpt lat="45.98513" lon="6.43197">
        <ele>1788.67</ele>
        <time>2022-01-16T12:13:24Z</time>
      </trkpt>
      <trkpt lat="45.98505" lon="6.43209">
        <ele>1790.59</ele>
        <time>2022-01-16T12:13:42Z</time>
      </trkpt>
      <trkpt lat="45.98502" lon="6.4322">
        <ele>1792.03</ele>
        <time>2022-01-16T12:13:59Z</time>
      </trkpt>
      <trkpt lat="45.98497" lon="6.43233">
        <ele>1793.96</ele>
        <time>2022-01-16T12:14:17Z</time>
      </trkpt>
      <trkpt lat="45.98493" lon="6.43244">
        <ele>1794.92</ele>
        <time>2022-01-16T12:14:34Z</time>
      </trkpt>
      <trkpt lat="45.98488" lon="6.43256">
        <ele>1796.36</ele>
        <time>2022-01-16T12:14:51Z</time>
      </trkpt>
      <trkpt lat="45.9848" lon="6.43266">
        <ele>1798.28</ele>
        <time>2022-01-16T12:15:11Z</time>
      </trkpt>
      <trkpt lat="45.98473" lon="6.4328">
        <ele>1799.73</ele>
        <time>2022-01-16T12:15:32Z</time>
      </trkpt>
      <trkpt lat="45.98468" lon="6.43289">
        <ele>1801.65</ele>
        <time>2022-01-16T12:15:49Z</time>
      </trkpt>
      <trkpt lat="45.98464" lon="6.43302">
        <ele>1803.09</ele>
        <time>2022-01-16T12:16:06Z</time>
      </trkpt>
      <trkpt lat="45.98457" lon="6.43308">
        <ele>1805.49</ele>
        <time>2022-01-16T12:16:23Z</time>
      </trkpt>
      <trkpt lat="45.98454" lon="6.43317">
        <ele>1807.9</ele>
        <time>2022-01-16T12:16:40Z</time>
      </trkpt>
      <trkpt lat="45.98449" lon="6.43326">
        <ele>1809.82</ele>
        <time>2022-01-16T12:16:58Z</time>
      </trkpt>
      <trkpt lat="45.98445" lon="6.43333">
        <ele>1811.26</ele>
        <time>2022-01-16T12:17:14Z</time>
      </trkpt>
      <trkpt lat="45.98441" lon="6.43342">
        <ele>1813.18</ele>
        <time>2022-01-16T12:17:31Z</time>
      </trkpt>
      <trkpt lat="45.98436" lon="6.43353">
        <ele>1815.59</ele>
        <time>2022-01-16T12:17:51Z</time>
      </trkpt>
      <trkpt lat="45.98432" lon="6.43364">
        <ele>1817.03</ele>
        <time>2022-01-16T12:18:09Z</time>
      </trkpt>
      <trkpt lat="45.98429" lon="6.43375">
        <ele>1819.43</ele>
        <time>2022-01-16T12:18:28Z</time>
      </trkpt>
      <trkpt lat="45.98425" lon="6.43383">
        <ele>1822.32</ele>
        <time>2022-01-16T12:18:47Z</time>
      </trkpt>
      <trkpt lat="45.9842" lon="6.43388">
        <ele>1824.24</ele>
        <time>2022-01-16T12:19:02Z</time>
      </trkpt>
      <trkpt lat="45.98415" lon="6.43394">
        <ele>1825.68</ele>
        <time>2022-01-16T12:19:21Z</time>
      </trkpt>
      <trkpt lat="45.98416" lon="6.43397">
        <ele>1826.64</ele>
        <time>2022-01-16T12:19:41Z</time>
      </trkpt>
      <trkpt lat="45.98414" lon="6.43397">
        <ele>1826.64</ele>
        <time>2022-01-16T12:20:13Z</time>
      </trkpt>
      <trkpt lat="45.98415" lon="6.43397">
        <ele>1824.72</ele>
        <time>2022-01-16T12:20:28Z</time>
      </trkpt>
      <trkpt lat="45.98416" lon="6.43397">
        <ele>1828.56</ele>
        <time>2022-01-16T12:20:31Z</time>
      </trkpt>
      <trkpt lat="45.98416" lon="6.43397">
        <ele>1824.24</ele>
        <time>2022-01-16T12:20:33Z</time>
      </trkpt>
      <trkpt lat="45.98416" lon="6.43397">
        <ele>1829.53</ele>
        <time>2022-01-16T12:20:36Z</time>
      </trkpt>
      <trkpt lat="45.98416" lon="6.43398">
        <ele>1826.16</ele>
        <time>2022-01-16T12:20:47Z</time>
      </trkpt>
      <trkpt lat="45.98415" lon="6.43399">
        <ele>1828.08</ele>
        <time>2022-01-16T12:21:07Z</time>
      </trkpt>
      <trkpt lat="45.98412" lon="6.43402">
        <ele>1829.05</ele>
        <time>2022-01-16T12:21:25Z</time>
      </trkpt>
      <trkpt lat="45.98407" lon="6.43406">
        <ele>1831.45</ele>
        <time>2022-01-16T12:21:41Z</time>
      </trkpt>
      <trkpt lat="45.98404" lon="6.4341">
        <ele>1832.89</ele>
        <time>2022-01-16T12:21:58Z</time>
      </trkpt>
      <trkpt lat="45.98403" lon="6.43415">
        <ele>1833.85</ele>
        <time>2022-01-16T12:22:15Z</time>
      </trkpt>
      <trkpt lat="45.98398" lon="6.43418">
        <ele>1835.29</ele>
        <time>2022-01-16T12:22:33Z</time>
      </trkpt>
      <trkpt lat="45.98397" lon="6.4342">
        <ele>1837.22</ele>
        <time>2022-01-16T12:22:48Z</time>
      </trkpt>
      <trkpt lat="45.98397" lon="6.43416">
        <ele>1837.7</ele>
        <time>2022-01-16T12:23:02Z</time>
      </trkpt>
      <trkpt lat="45.98395" lon="6.43408">
        <ele>1839.14</ele>
        <time>2022-01-16T12:23:16Z</time>
      </trkpt>
      <trkpt lat="45.98393" lon="6.43401">
        <ele>1841.54</ele>
        <time>2022-01-16T12:23:33Z</time>
      </trkpt>
      <trkpt lat="45.98392" lon="6.43391">
        <ele>1842.98</ele>
        <time>2022-01-16T12:23:50Z</time>
      </trkpt>
      <trkpt lat="45.98391" lon="6.43382">
        <ele>1844.91</ele>
        <time>2022-01-16T12:24:06Z</time>
      </trkpt>
      <trkpt lat="45.98388" lon="6.43371">
        <ele>1846.83</ele>
        <time>2022-01-16T12:24:27Z</time>
      </trkpt>
      <trkpt lat="45.98386" lon="6.4337">
        <ele>1848.75</ele>
        <time>2022-01-16T12:24:44Z</time>
      </trkpt>
      <trkpt lat="45.98384" lon="6.43375">
        <ele>1848.75</ele>
        <time>2022-01-16T12:25:04Z</time>
      </trkpt>
      <trkpt lat="45.9838" lon="6.43386">
        <ele>1850.19</ele>
        <time>2022-01-16T12:25:20Z</time>
      </trkpt>
      <trkpt lat="45.98376" lon="6.43396">
        <ele>1852.12</ele>
        <time>2022-01-16T12:25:37Z</time>
      </trkpt>
      <trkpt lat="45.9837" lon="6.43403">
        <ele>1854.04</ele>
        <time>2022-01-16T12:25:55Z</time>
      </trkpt>
      <trkpt lat="45.98367" lon="6.43409">
        <ele>1856.44</ele>
        <time>2022-01-16T12:26:11Z</time>
      </trkpt>
      <trkpt lat="45.98363" lon="6.43413">
        <ele>1857.89</ele>
        <time>2022-01-16T12:26:27Z</time>
      </trkpt>
      <trkpt lat="45.98358" lon="6.43416">
        <ele>1858.85</ele>
        <time>2022-01-16T12:26:50Z</time>
      </trkpt>
      <trkpt lat="45.98357" lon="6.4342">
        <ele>1861.25</ele>
        <time>2022-01-16T12:27:05Z</time>
      </trkpt>
      <trkpt lat="45.98352" lon="6.43428">
        <ele>1863.17</ele>
        <time>2022-01-16T12:27:22Z</time>
      </trkpt>
      <trkpt lat="45.98353" lon="6.4343">
        <ele>1864.13</ele>
        <time>2022-01-16T12:27:36Z</time>
      </trkpt>
      <trkpt lat="45.98349" lon="6.43434">
        <ele>1866.06</ele>
        <time>2022-01-16T12:27:50Z</time>
      </trkpt>
      <trkpt lat="45.98345" lon="6.43439">
        <ele>1867.5</ele>
        <time>2022-01-16T12:28:06Z</time>
      </trkpt>
      <trkpt lat="45.98342" lon="6.43442">
        <ele>1869.42</ele>
        <time>2022-01-16T12:28:22Z</time>
      </trkpt>
      <trkpt lat="45.98335" lon="6.43445">
        <ele>1871.82</ele>
        <time>2022-01-16T12:28:38Z</time>
      </trkpt>
      <trkpt lat="45.98337" lon="6.43438">
        <ele>1873.27</ele>
        <time>2022-01-16T12:28:53Z</time>
      </trkpt>
      <trkpt lat="45.98337" lon="6.43428">
        <ele>1875.19</ele>
        <time>2022-01-16T12:29:09Z</time>
      </trkpt>
      <trkpt lat="45.98338" lon="6.43419">
        <ele>1877.59</ele>
        <time>2022-01-16T12:29:26Z</time>
      </trkpt>
      <trkpt lat="45.98337" lon="6.43411">
        <ele>1879.03</ele>
        <time>2022-01-16T12:29:41Z</time>
      </trkpt>
      <trkpt lat="45.98335" lon="6.43404">
        <ele>1880.48</ele>
        <time>2022-01-16T12:29:56Z</time>
      </trkpt>
      <trkpt lat="45.98333" lon="6.43395">
        <ele>1882.4</ele>
        <time>2022-01-16T12:30:13Z</time>
      </trkpt>
      <trkpt lat="45.98334" lon="6.43389">
        <ele>1883.36</ele>
        <time>2022-01-16T12:30:29Z</time>
      </trkpt>
      <trkpt lat="45.98335" lon="6.43385">
        <ele>1883.84</ele>
        <time>2022-01-16T12:30:43Z</time>
      </trkpt>
      <trkpt lat="45.98333" lon="6.43385">
        <ele>1884.32</ele>
        <time>2022-01-16T12:31:05Z</time>
      </trkpt>
      <trkpt lat="45.9833" lon="6.43387">
        <ele>1885.28</ele>
        <time>2022-01-16T12:31:20Z</time>
      </trkpt>
      <trkpt lat="45.98327" lon="6.43389">
        <ele>1885.76</ele>
        <time>2022-01-16T12:31:32Z</time>
      </trkpt>
      <trkpt lat="45.98323" lon="6.43392">
        <ele>1887.21</ele>
        <time>2022-01-16T12:31:51Z</time>
      </trkpt>
      <trkpt lat="45.9832" lon="6.43396">
        <ele>1889.61</ele>
        <time>2022-01-16T12:32:06Z</time>
      </trkpt>
      <trkpt lat="45.98318" lon="6.434">
        <ele>1890.09</ele>
        <time>2022-01-16T12:32:22Z</time>
      </trkpt>
      <trkpt lat="45.98314" lon="6.43404">
        <ele>1893.45</ele>
        <time>2022-01-16T12:32:40Z</time>
      </trkpt>
      <trkpt lat="45.98314" lon="6.43405">
        <ele>1893.45</ele>
        <time>2022-01-16T12:33:01Z</time>
      </trkpt>
      <trkpt lat="45.98314" lon="6.43407">
        <ele>1893.45</ele>
        <time>2022-01-16T12:33:32Z</time>
      </trkpt>
      <trkpt lat="45.9831" lon="6.4341">
        <ele>1893.45</ele>
        <time>2022-01-16T12:33:46Z</time>
      </trkpt>
      <trkpt lat="45.98305" lon="6.43416">
        <ele>1896.34</ele>
        <time>2022-01-16T12:34:04Z</time>
      </trkpt>
      <trkpt lat="45.98301" lon="6.43417">
        <ele>1897.78</ele>
        <time>2022-01-16T12:34:18Z</time>
      </trkpt>
      <trkpt lat="45.98298" lon="6.4342">
        <ele>1899.22</ele>
        <time>2022-01-16T12:34:34Z</time>
      </trkpt>
      <trkpt lat="45.98294" lon="6.43423">
        <ele>1900.66</ele>
        <time>2022-01-16T12:34:48Z</time>
      </trkpt>
      <trkpt lat="45.98292" lon="6.43425">
        <ele>1901.14</ele>
        <time>2022-01-16T12:35:02Z</time>
      </trkpt>
      <trkpt lat="45.9829" lon="6.43431">
        <ele>1903.55</ele>
        <time>2022-01-16T12:35:18Z</time>
      </trkpt>
      <trkpt lat="45.98287" lon="6.43434">
        <ele>1904.99</ele>
        <time>2022-01-16T12:35:32Z</time>
      </trkpt>
      <trkpt lat="45.98287" lon="6.43434">
        <ele>1906.43</ele>
        <time>2022-01-16T12:35:51Z</time>
      </trkpt>
      <trkpt lat="45.98288" lon="6.43432">
        <ele>1906.43</ele>
        <time>2022-01-16T12:36:12Z</time>
      </trkpt>
      <trkpt lat="45.98286" lon="6.43424">
        <ele>1908.35</ele>
        <time>2022-01-16T12:36:32Z</time>
      </trkpt>
      <trkpt lat="45.98286" lon="6.43418">
        <ele>1908.83</ele>
        <time>2022-01-16T12:36:47Z</time>
      </trkpt>
      <trkpt lat="45.98288" lon="6.43412">
        <ele>1909.8</ele>
        <time>2022-01-16T12:37:05Z</time>
      </trkpt>
      <trkpt lat="45.98289" lon="6.43414">
        <ele>1909.8</ele>
        <time>2022-01-16T12:37:34Z</time>
      </trkpt>
      <trkpt lat="45.98288" lon="6.4341">
        <ele>1909.32</ele>
        <time>2022-01-16T12:38:02Z</time>
      </trkpt>
      <trkpt lat="45.9829" lon="6.43402">
        <ele>1911.72</ele>
        <time>2022-01-16T12:38:17Z</time>
      </trkpt>
      <trkpt lat="45.9829" lon="6.43394">
        <ele>1912.68</ele>
        <time>2022-01-16T12:38:31Z</time>
      </trkpt>
      <trkpt lat="45.98289" lon="6.43388">
        <ele>1914.12</ele>
        <time>2022-01-16T12:38:47Z</time>
      </trkpt>
      <trkpt lat="45.98288" lon="6.43377">
        <ele>1916.53</ele>
        <time>2022-01-16T12:39:05Z</time>
      </trkpt>
      <trkpt lat="45.98289" lon="6.4337">
        <ele>1917.97</ele>
        <time>2022-01-16T12:39:22Z</time>
      </trkpt>
      <trkpt lat="45.98288" lon="6.43364">
        <ele>1918.45</ele>
        <time>2022-01-16T12:39:37Z</time>
      </trkpt>
      <trkpt lat="45.98288" lon="6.43365">
        <ele>1919.41</ele>
        <time>2022-01-16T12:39:55Z</time>
      </trkpt>
      <trkpt lat="45.98285" lon="6.43368">
        <ele>1919.89</ele>
        <time>2022-01-16T12:40:11Z</time>
      </trkpt>
      <trkpt lat="45.98285" lon="6.43363">
        <ele>1919.89</ele>
        <time>2022-01-16T12:40:45Z</time>
      </trkpt>
      <trkpt lat="45.98281" lon="6.43372">
        <ele>1920.37</ele>
        <time>2022-01-16T12:41:01Z</time>
      </trkpt>
      <trkpt lat="45.98278" lon="6.4338">
        <ele>1921.81</ele>
        <time>2022-01-16T12:41:17Z</time>
      </trkpt>
      <trkpt lat="45.98274" lon="6.43385">
        <ele>1923.74</ele>
        <time>2022-01-16T12:41:32Z</time>
      </trkpt>
      <trkpt lat="45.98271" lon="6.4339">
        <ele>1925.18</ele>
        <time>2022-01-16T12:41:45Z</time>
      </trkpt>
      <trkpt lat="45.98269" lon="6.43395">
        <ele>1926.62</ele>
        <time>2022-01-16T12:42:01Z</time>
      </trkpt>
      <trkpt lat="45.98267" lon="6.434">
        <ele>1928.06</ele>
        <time>2022-01-16T12:42:18Z</time>
      </trkpt>
      <trkpt lat="45.98264" lon="6.43404">
        <ele>1929.02</ele>
        <time>2022-01-16T12:42:32Z</time>
      </trkpt>
      <trkpt lat="45.98262" lon="6.43408">
        <ele>1930.46</ele>
        <time>2022-01-16T12:42:48Z</time>
      </trkpt>
      <trkpt lat="45.98259" lon="6.43415">
        <ele>1931.91</ele>
        <time>2022-01-16T12:43:02Z</time>
      </trkpt>
      <trkpt lat="45.98256" lon="6.43421">
        <ele>1933.35</ele>
        <time>2022-01-16T12:43:19Z</time>
      </trkpt>
      <trkpt lat="45.98257" lon="6.43428">
        <ele>1933.83</ele>
        <time>2022-01-16T12:43:35Z</time>
      </trkpt>
      <trkpt lat="45.98256" lon="6.43433">
        <ele>1934.31</ele>
        <time>2022-01-16T12:43:48Z</time>
      </trkpt>
      <trkpt lat="45.98254" lon="6.43438">
        <ele>1935.27</ele>
        <time>2022-01-16T12:44:03Z</time>
      </trkpt>
      <trkpt lat="45.9825" lon="6.43444">
        <ele>1936.71</ele>
        <time>2022-01-16T12:44:18Z</time>
      </trkpt>
      <trkpt lat="45.98248" lon="6.43449">
        <ele>1937.67</ele>
        <time>2022-01-16T12:44:32Z</time>
      </trkpt>
      <trkpt lat="45.98246" lon="6.43454">
        <ele>1939.6</ele>
        <time>2022-01-16T12:44:47Z</time>
      </trkpt>
      <trkpt lat="45.98244" lon="6.4346">
        <ele>1941.04</ele>
        <time>2022-01-16T12:45:03Z</time>
      </trkpt>
      <trkpt lat="45.98246" lon="6.4346">
        <ele>1942</ele>
        <time>2022-01-16T12:45:29Z</time>
      </trkpt>
      <trkpt lat="45.98245" lon="6.43458">
        <ele>1940.56</ele>
        <time>2022-01-16T12:45:48Z</time>
      </trkpt>
      <trkpt lat="45.98245" lon="6.43455">
        <ele>1940.56</ele>
        <time>2022-01-16T12:46:07Z</time>
      </trkpt>
      <trkpt lat="45.98245" lon="6.43451">
        <ele>1942</ele>
        <time>2022-01-16T12:46:14Z</time>
      </trkpt>
      <trkpt lat="45.98243" lon="6.43449">
        <ele>1942.96</ele>
        <time>2022-01-16T12:46:35Z</time>
      </trkpt>
      <trkpt lat="45.98242" lon="6.43452">
        <ele>1943.44</ele>
        <time>2022-01-16T12:46:55Z</time>
      </trkpt>
      <trkpt lat="45.98242" lon="6.43458">
        <ele>1944.4</ele>
        <time>2022-01-16T12:47:15Z</time>
      </trkpt>
      <trkpt lat="45.98241" lon="6.43461">
        <ele>1945.36</ele>
        <time>2022-01-16T12:47:30Z</time>
      </trkpt>
      <trkpt lat="45.98241" lon="6.4346">
        <ele>1945.36</ele>
        <time>2022-01-16T12:47:57Z</time>
      </trkpt>
      <trkpt lat="45.98242" lon="6.43461">
        <ele>1943.92</ele>
        <time>2022-01-16T12:48:17Z</time>
      </trkpt>
      <trkpt lat="45.98241" lon="6.4346">
        <ele>1945.36</ele>
        <time>2022-01-16T12:48:37Z</time>
      </trkpt>
      <trkpt lat="45.98241" lon="6.4346">
        <ele>1945.36</ele>
        <time>2022-01-16T12:48:38Z</time>
      </trkpt>
      <trkpt lat="45.98241" lon="6.43459">
        <ele>1945.85</ele>
        <time>2022-01-16T12:49:00Z</time>
      </trkpt>
      <trkpt lat="45.98241" lon="6.43461">
        <ele>1945.85</ele>
        <time>2022-01-16T12:49:23Z</time>
      </trkpt>
      <trkpt lat="45.98241" lon="6.43463">
        <ele>1945.85</ele>
        <time>2022-01-16T12:50:00Z</time>
      </trkpt>
      <trkpt lat="45.9824" lon="6.43462">
        <ele>1946.33</ele>
        <time>2022-01-16T12:50:30Z</time>
      </trkpt>
      <trkpt lat="45.98239" lon="6.43462">
        <ele>1946.33</ele>
        <time>2022-01-16T12:50:51Z</time>
      </trkpt>
      <trkpt lat="45.98236" lon="6.43461">
        <ele>1949.21</ele>
        <time>2022-01-16T12:51:07Z</time>
      </trkpt>
      <trkpt lat="45.98235" lon="6.43461">
        <ele>1950.17</ele>
        <time>2022-01-16T12:51:21Z</time>
      </trkpt>
      <trkpt lat="45.98233" lon="6.43461">
        <ele>1952.09</ele>
        <time>2022-01-16T12:51:36Z</time>
      </trkpt>
      <trkpt lat="45.98231" lon="6.43463">
        <ele>1953.54</ele>
        <time>2022-01-16T12:51:52Z</time>
      </trkpt>
      <trkpt lat="45.9823" lon="6.43464">
        <ele>1955.46</ele>
        <time>2022-01-16T12:52:09Z</time>
      </trkpt>
      <trkpt lat="45.9823" lon="6.43467">
        <ele>1957.38</ele>
        <time>2022-01-16T12:52:24Z</time>
      </trkpt>
      <trkpt lat="45.98232" lon="6.43473">
        <ele>1954.5</ele>
        <time>2022-01-16T12:52:32Z</time>
      </trkpt>
      <trkpt lat="45.98233" lon="6.43475">
        <ele>1953.06</ele>
        <time>2022-01-16T12:52:50Z</time>
      </trkpt>
      <trkpt lat="45.98232" lon="6.43475">
        <ele>1954.02</ele>
        <time>2022-01-16T12:53:27Z</time>
      </trkpt>
      <trkpt lat="45.98233" lon="6.43475">
        <ele>1952.57</ele>
        <time>2022-01-16T12:53:56Z</time>
      </trkpt>
      <trkpt lat="45.98233" lon="6.43475">
        <ele>1954.02</ele>
        <time>2022-01-16T12:53:59Z</time>
      </trkpt>
      <trkpt lat="45.98234" lon="6.43476">
        <ele>1953.54</ele>
        <time>2022-01-16T12:54:15Z</time>
      </trkpt>
      <trkpt lat="45.98234" lon="6.43475">
        <ele>1950.17</ele>
        <time>2022-01-16T12:54:34Z</time>
      </trkpt>
      <trkpt lat="45.98234" lon="6.43476">
        <ele>1956.42</ele>
        <time>2022-01-16T12:54:35Z</time>
      </trkpt>
      <trkpt lat="45.98234" lon="6.43476">
        <ele>1953.54</ele>
        <time>2022-01-16T12:54:36Z</time>
      </trkpt>
      <trkpt lat="45.98233" lon="6.43477">
        <ele>1953.06</ele>
        <time>2022-01-16T12:54:56Z</time>
      </trkpt>
      <trkpt lat="45.98232" lon="6.43474">
        <ele>1953.06</ele>
        <time>2022-01-16T12:55:15Z</time>
      </trkpt>
      <trkpt lat="45.98232" lon="6.43471">
        <ele>1952.57</ele>
        <time>2022-01-16T12:55:42Z</time>
      </trkpt>
      <trkpt lat="45.98232" lon="6.43473">
        <ele>1952.09</ele>
        <time>2022-01-16T12:56:04Z</time>
      </trkpt>
      <trkpt lat="45.98232" lon="6.43473">
        <ele>1954.98</ele>
        <time>2022-01-16T12:56:09Z</time>
      </trkpt>
      <trkpt lat="45.98233" lon="6.43474">
        <ele>1950.65</ele>
        <time>2022-01-16T12:56:12Z</time>
      </trkpt>
      <trkpt lat="45.98233" lon="6.43474">
        <ele>1954.5</ele>
        <time>2022-01-16T12:56:13Z</time>
      </trkpt>
      <trkpt lat="45.98233" lon="6.43474">
        <ele>1954.5</ele>
        <time>2022-01-16T12:56:14Z</time>
      </trkpt>
      <trkpt lat="45.98233" lon="6.43474">
        <ele>1952.57</ele>
        <time>2022-01-16T12:56:16Z</time>
      </trkpt>
      <trkpt lat="45.98232" lon="6.43473">
        <ele>1953.54</ele>
        <time>2022-01-16T12:56:42Z</time>
      </trkpt>
      <trkpt lat="45.98232" lon="6.43472">
        <ele>1953.54</ele>
        <time>2022-01-16T12:56:58Z</time>
      </trkpt>
      <trkpt lat="45.98233" lon="6.43472">
        <ele>1952.09</ele>
        <time>2022-01-16T12:57:10Z</time>
      </trkpt>
      <trkpt lat="45.98232" lon="6.43472">
        <ele>1952.09</ele>
        <time>2022-01-16T12:57:31Z</time>
      </trkpt>
      <trkpt lat="45.98232" lon="6.43471">
        <ele>1952.09</ele>
        <time>2022-01-16T12:57:47Z</time>
      </trkpt>
      <trkpt lat="45.98232" lon="6.43471">
        <ele>1952.09</ele>
        <time>2022-01-16T12:58:14Z</time>
      </trkpt>
      <trkpt lat="45.98232" lon="6.43473">
        <ele>1952.09</ele>
        <time>2022-01-16T12:58:36Z</time>
      </trkpt>
      <trkpt lat="45.98231" lon="6.43473">
        <ele>1951.61</ele>
        <time>2022-01-16T12:59:02Z</time>
      </trkpt>
      <trkpt lat="45.98231" lon="6.43473">
        <ele>1953.06</ele>
        <time>2022-01-16T12:59:05Z</time>
      </trkpt>
      <trkpt lat="45.98231" lon="6.43473">
        <ele>1951.13</ele>
        <time>2022-01-16T12:59:10Z</time>
      </trkpt>
      <trkpt lat="45.98231" lon="6.43473">
        <ele>1954.5</ele>
        <time>2022-01-16T12:59:11Z</time>
      </trkpt>
      <trkpt lat="45.9823" lon="6.43473">
        <ele>1952.57</ele>
        <time>2022-01-16T12:59:33Z</time>
      </trkpt>
      <trkpt lat="45.9823" lon="6.43474">
        <ele>1950.65</ele>
        <time>2022-01-16T12:59:55Z</time>
      </trkpt>
      <trkpt lat="45.98234" lon="6.43482">
        <ele>1952.09</ele>
        <time>2022-01-16T13:00:11Z</time>
      </trkpt>
      <trkpt lat="45.98235" lon="6.43486">
        <ele>1951.61</ele>
        <time>2022-01-16T13:00:27Z</time>
      </trkpt>
      <trkpt lat="45.98234" lon="6.43481">
        <ele>1951.61</ele>
        <time>2022-01-16T13:00:48Z</time>
      </trkpt>
      <trkpt lat="45.98233" lon="6.43481">
        <ele>1951.61</ele>
        <time>2022-01-16T13:00:49Z</time>
      </trkpt>
      <trkpt lat="45.98231" lon="6.43473">
        <ele>1952.57</ele>
        <time>2022-01-16T13:01:06Z</time>
      </trkpt>
      <trkpt lat="45.98231" lon="6.43474">
        <ele>1952.57</ele>
        <time>2022-01-16T13:01:33Z</time>
      </trkpt>
      <trkpt lat="45.98229" lon="6.43468">
        <ele>1952.09</ele>
        <time>2022-01-16T13:01:50Z</time>
      </trkpt>
      <trkpt lat="45.98226" lon="6.43464">
        <ele>1953.06</ele>
        <time>2022-01-16T13:02:03Z</time>
      </trkpt>
      <trkpt lat="45.98225" lon="6.43462">
        <ele>1954.5</ele>
        <time>2022-01-16T13:02:06Z</time>
      </trkpt>
      <trkpt lat="45.98223" lon="6.43457">
        <ele>1953.06</ele>
        <time>2022-01-16T13:02:20Z</time>
      </trkpt>
      <trkpt lat="45.98222" lon="6.43452">
        <ele>1954.02</ele>
        <time>2022-01-16T13:02:26Z</time>
      </trkpt>
      <trkpt lat="45.9822" lon="6.43451">
        <ele>1952.57</ele>
        <time>2022-01-16T13:02:43Z</time>
      </trkpt>
      <trkpt lat="45.98219" lon="6.43449">
        <ele>1954.02</ele>
        <time>2022-01-16T13:02:58Z</time>
      </trkpt>
      <trkpt lat="45.98218" lon="6.4345">
        <ele>1953.06</ele>
        <time>2022-01-16T13:03:14Z</time>
      </trkpt>
      <trkpt lat="45.98218" lon="6.43449">
        <ele>1954.02</ele>
        <time>2022-01-16T13:03:26Z</time>
      </trkpt>
      <trkpt lat="45.98218" lon="6.43448">
        <ele>1954.02</ele>
        <time>2022-01-16T13:03:49Z</time>
      </trkpt>
      <trkpt lat="45.98219" lon="6.43449">
        <ele>1954.02</ele>
        <time>2022-01-16T13:04:09Z</time>
      </trkpt>
      <trkpt lat="45.98219" lon="6.4345">
        <ele>1954.02</ele>
        <time>2022-01-16T13:04:33Z</time>
      </trkpt>
      <trkpt lat="45.98219" lon="6.43449">
        <ele>1954.02</ele>
        <time>2022-01-16T13:04:59Z</time>
      </trkpt>
      <trkpt lat="45.98219" lon="6.43449">
        <ele>1954.02</ele>
        <time>2022-01-16T13:05:05Z</time>
      </trkpt>
      <trkpt lat="45.98219" lon="6.43448">
        <ele>1953.06</ele>
        <time>2022-01-16T13:05:38Z</time>
      </trkpt>
      <trkpt lat="45.98218" lon="6.43448">
        <ele>1953.54</ele>
        <time>2022-01-16T13:05:55Z</time>
      </trkpt>
      <trkpt lat="45.98216" lon="6.43449">
        <ele>1953.54</ele>
        <time>2022-01-16T13:06:20Z</time>
      </trkpt>
      <trkpt lat="45.98218" lon="6.43448">
        <ele>1953.06</ele>
        <time>2022-01-16T13:06:45Z</time>
      </trkpt>
      <trkpt lat="45.98218" lon="6.43447">
        <ele>1952.57</ele>
        <time>2022-01-16T13:07:08Z</time>
      </trkpt>
      <trkpt lat="45.98206" lon="6.43431">
        <ele>1950.65</ele>
        <time>2022-01-16T13:07:23Z</time>
      </trkpt>
      <trkpt lat="45.98195" lon="6.43416">
        <ele>1947.77</ele>
        <time>2022-01-16T13:07:36Z</time>
      </trkpt>
      <trkpt lat="45.98188" lon="6.43404">
        <ele>1947.77</ele>
        <time>2022-01-16T13:07:47Z</time>
      </trkpt>
      <trkpt lat="45.98184" lon="6.43402">
        <ele>1945.85</ele>
        <time>2022-01-16T13:07:55Z</time>
      </trkpt>
      <trkpt lat="45.98183" lon="6.43402">
        <ele>1945.36</ele>
        <time>2022-01-16T13:08:04Z</time>
      </trkpt>
      <trkpt lat="45.98181" lon="6.43402">
        <ele>1944.88</ele>
        <time>2022-01-16T13:08:05Z</time>
      </trkpt>
      <trkpt lat="45.98178" lon="6.43399">
        <ele>1943.92</ele>
        <time>2022-01-16T13:08:07Z</time>
      </trkpt>
      <trkpt lat="45.98176" lon="6.43399">
        <ele>1943.92</ele>
        <time>2022-01-16T13:08:08Z</time>
      </trkpt>
      <trkpt lat="45.98175" lon="6.43399">
        <ele>1942.48</ele>
        <time>2022-01-16T13:08:10Z</time>
      </trkpt>
      <trkpt lat="45.98174" lon="6.43403">
        <ele>1940.56</ele>
        <time>2022-01-16T13:08:12Z</time>
      </trkpt>
      <trkpt lat="45.98175" lon="6.43407">
        <ele>1940.56</ele>
        <time>2022-01-16T13:08:13Z</time>
      </trkpt>
      <trkpt lat="45.98177" lon="6.43409">
        <ele>1939.6</ele>
        <time>2022-01-16T13:08:23Z</time>
      </trkpt>
      <trkpt lat="45.98179" lon="6.43415">
        <ele>1939.12</ele>
        <time>2022-01-16T13:08:42Z</time>
      </trkpt>
      <trkpt lat="45.9818" lon="6.43418">
        <ele>1938.16</ele>
        <time>2022-01-16T13:08:45Z</time>
      </trkpt>
      <trkpt lat="45.98174" lon="6.43421">
        <ele>1934.79</ele>
        <time>2022-01-16T13:08:50Z</time>
      </trkpt>
      <trkpt lat="45.98173" lon="6.4342">
        <ele>1933.83</ele>
        <time>2022-01-16T13:08:52Z</time>
      </trkpt>
      <trkpt lat="45.98173" lon="6.43421">
        <ele>1933.35</ele>
        <time>2022-01-16T13:08:54Z</time>
      </trkpt>
      <trkpt lat="45.98173" lon="6.4343">
        <ele>1930.46</ele>
        <time>2022-01-16T13:08:58Z</time>
      </trkpt>
      <trkpt lat="45.98173" lon="6.43433">
        <ele>1929.02</ele>
        <time>2022-01-16T13:08:59Z</time>
      </trkpt>
      <trkpt lat="45.98167" lon="6.43433">
        <ele>1925.18</ele>
        <time>2022-01-16T13:09:02Z</time>
      </trkpt>
      <trkpt lat="45.98166" lon="6.43432">
        <ele>1925.18</ele>
        <time>2022-01-16T13:09:03Z</time>
      </trkpt>
      <trkpt lat="45.98166" lon="6.4343">
        <ele>1925.18</ele>
        <time>2022-01-16T13:09:15Z</time>
      </trkpt>
      <trkpt lat="45.98167" lon="6.43439">
        <ele>1922.29</ele>
        <time>2022-01-16T13:09:18Z</time>
      </trkpt>
      <trkpt lat="45.98161" lon="6.43445">
        <ele>1919.41</ele>
        <time>2022-01-16T13:09:21Z</time>
      </trkpt>
      <trkpt lat="45.98157" lon="6.43443">
        <ele>1918.93</ele>
        <time>2022-01-16T13:09:22Z</time>
      </trkpt>
      <trkpt lat="45.98153" lon="6.4344">
        <ele>1916.53</ele>
        <time>2022-01-16T13:09:23Z</time>
      </trkpt>
      <trkpt lat="45.98151" lon="6.43438">
        <ele>1915.56</ele>
        <time>2022-01-16T13:09:24Z</time>
      </trkpt>
      <trkpt lat="45.98137" lon="6.43428">
        <ele>1914.12</ele>
        <time>2022-01-16T13:09:32Z</time>
      </trkpt>
      <trkpt lat="45.9814" lon="6.43437">
        <ele>1911.72</ele>
        <time>2022-01-16T13:09:35Z</time>
      </trkpt>
      <trkpt lat="45.98141" lon="6.4344">
        <ele>1911.72</ele>
        <time>2022-01-16T13:09:36Z</time>
      </trkpt>
      <trkpt lat="45.98157" lon="6.43462">
        <ele>1909.32</ele>
        <time>2022-01-16T13:09:46Z</time>
      </trkpt>
      <trkpt lat="45.9817" lon="6.4348">
        <ele>1907.39</ele>
        <time>2022-01-16T13:09:57Z</time>
      </trkpt>
      <trkpt lat="45.98172" lon="6.43478">
        <ele>1908.35</ele>
        <time>2022-01-16T13:10:21Z</time>
      </trkpt>
      <trkpt lat="45.98173" lon="6.4348">
        <ele>1906.91</ele>
        <time>2022-01-16T13:10:22Z</time>
      </trkpt>
      <trkpt lat="45.98174" lon="6.43482">
        <ele>1906.91</ele>
        <time>2022-01-16T13:10:23Z</time>
      </trkpt>
      <trkpt lat="45.98176" lon="6.43486">
        <ele>1905.47</ele>
        <time>2022-01-16T13:10:25Z</time>
      </trkpt>
      <trkpt lat="45.9818" lon="6.43496">
        <ele>1902.59</ele>
        <time>2022-01-16T13:10:30Z</time>
      </trkpt>
      <trkpt lat="45.98186" lon="6.4351">
        <ele>1902.11</ele>
        <time>2022-01-16T13:10:35Z</time>
      </trkpt>
      <trkpt lat="45.98179" lon="6.43508">
        <ele>1897.78</ele>
        <time>2022-01-16T13:10:38Z</time>
      </trkpt>
      <trkpt lat="45.98176" lon="6.43507">
        <ele>1897.3</ele>
        <time>2022-01-16T13:10:39Z</time>
      </trkpt>
      <trkpt lat="45.98174" lon="6.43507">
        <ele>1897.3</ele>
        <time>2022-01-16T13:10:40Z</time>
      </trkpt>
      <trkpt lat="45.98172" lon="6.43507">
        <ele>1896.34</ele>
        <time>2022-01-16T13:10:41Z</time>
      </trkpt>
      <trkpt lat="45.98173" lon="6.43513">
        <ele>1895.86</ele>
        <time>2022-01-16T13:10:44Z</time>
      </trkpt>
      <trkpt lat="45.98178" lon="6.43518">
        <ele>1892.49</ele>
        <time>2022-01-16T13:10:46Z</time>
      </trkpt>
      <trkpt lat="45.98183" lon="6.43527">
        <ele>1893.93</ele>
        <time>2022-01-16T13:10:49Z</time>
      </trkpt>
      <trkpt lat="45.98179" lon="6.43528">
        <ele>1889.13</ele>
        <time>2022-01-16T13:10:51Z</time>
      </trkpt>
      <trkpt lat="45.98172" lon="6.43525">
        <ele>1887.69</ele>
        <time>2022-01-16T13:10:53Z</time>
      </trkpt>
      <trkpt lat="45.98165" lon="6.43523">
        <ele>1886.24</ele>
        <time>2022-01-16T13:11:01Z</time>
      </trkpt>
      <trkpt lat="45.98166" lon="6.4353">
        <ele>1883.84</ele>
        <time>2022-01-16T13:11:04Z</time>
      </trkpt>
      <trkpt lat="45.98167" lon="6.43532">
        <ele>1883.36</ele>
        <time>2022-01-16T13:11:07Z</time>
      </trkpt>
      <trkpt lat="45.98168" lon="6.43535">
        <ele>1881.92</ele>
        <time>2022-01-16T13:11:09Z</time>
      </trkpt>
      <trkpt lat="45.98163" lon="6.43536">
        <ele>1878.55</ele>
        <time>2022-01-16T13:11:11Z</time>
      </trkpt>
      <trkpt lat="45.98162" lon="6.43536">
        <ele>1878.07</ele>
        <time>2022-01-16T13:11:12Z</time>
      </trkpt>
      <trkpt lat="45.98156" lon="6.43533">
        <ele>1876.63</ele>
        <time>2022-01-16T13:11:16Z</time>
      </trkpt>
      <trkpt lat="45.98155" lon="6.43533">
        <ele>1876.63</ele>
        <time>2022-01-16T13:11:17Z</time>
      </trkpt>
      <trkpt lat="45.98156" lon="6.43538">
        <ele>1873.75</ele>
        <time>2022-01-16T13:11:21Z</time>
      </trkpt>
      <trkpt lat="45.98158" lon="6.43538">
        <ele>1873.27</ele>
        <time>2022-01-16T13:11:34Z</time>
      </trkpt>
      <trkpt lat="45.98158" lon="6.43537">
        <ele>1872.3</ele>
        <time>2022-01-16T13:11:38Z</time>
      </trkpt>
      <trkpt lat="45.98155" lon="6.43542">
        <ele>1870.38</ele>
        <time>2022-01-16T13:11:41Z</time>
      </trkpt>
      <trkpt lat="45.98154" lon="6.43542">
        <ele>1870.38</ele>
        <time>2022-01-16T13:11:42Z</time>
      </trkpt>
      <trkpt lat="45.98153" lon="6.43542">
        <ele>1869.42</ele>
        <time>2022-01-16T13:11:44Z</time>
      </trkpt>
      <trkpt lat="45.98151" lon="6.43549">
        <ele>1866.06</ele>
        <time>2022-01-16T13:11:47Z</time>
      </trkpt>
      <trkpt lat="45.98152" lon="6.43552">
        <ele>1866.06</ele>
        <time>2022-01-16T13:11:48Z</time>
      </trkpt>
      <trkpt lat="45.98149" lon="6.43555">
        <ele>1862.21</ele>
        <time>2022-01-16T13:11:50Z</time>
      </trkpt>
      <trkpt lat="45.98147" lon="6.43556">
        <ele>1861.25</ele>
        <time>2022-01-16T13:11:52Z</time>
      </trkpt>
      <trkpt lat="45.98147" lon="6.43555">
        <ele>1861.73</ele>
        <time>2022-01-16T13:11:53Z</time>
      </trkpt>
      <trkpt lat="45.98147" lon="6.43567">
        <ele>1856.44</ele>
        <time>2022-01-16T13:11:57Z</time>
      </trkpt>
      <trkpt lat="45.98151" lon="6.43582">
        <ele>1855</ele>
        <time>2022-01-16T13:12:00Z</time>
      </trkpt>
      <trkpt lat="45.98152" lon="6.43582">
        <ele>1855.96</ele>
        <time>2022-01-16T13:12:09Z</time>
      </trkpt>
      <trkpt lat="45.98152" lon="6.43581">
        <ele>1854.52</ele>
        <time>2022-01-16T13:12:11Z</time>
      </trkpt>
      <trkpt lat="45.98152" lon="6.43583">
        <ele>1854.52</ele>
        <time>2022-01-16T13:12:45Z</time>
      </trkpt>
      <trkpt lat="45.98152" lon="6.43583">
        <ele>1855.96</ele>
        <time>2022-01-16T13:12:51Z</time>
      </trkpt>
      <trkpt lat="45.98153" lon="6.43581">
        <ele>1856.44</ele>
        <time>2022-01-16T13:13:15Z</time>
      </trkpt>
      <trkpt lat="45.98155" lon="6.43592">
        <ele>1852.6</ele>
        <time>2022-01-16T13:13:19Z</time>
      </trkpt>
      <trkpt lat="45.98149" lon="6.43596">
        <ele>1849.71</ele>
        <time>2022-01-16T13:13:21Z</time>
      </trkpt>
      <trkpt lat="45.98143" lon="6.43592">
        <ele>1847.79</ele>
        <time>2022-01-16T13:13:23Z</time>
      </trkpt>
      <trkpt lat="45.98138" lon="6.43588">
        <ele>1847.79</ele>
        <time>2022-01-16T13:13:25Z</time>
      </trkpt>
      <trkpt lat="45.98135" lon="6.43588">
        <ele>1846.35</ele>
        <time>2022-01-16T13:13:27Z</time>
      </trkpt>
      <trkpt lat="45.98136" lon="6.43596">
        <ele>1845.87</ele>
        <time>2022-01-16T13:13:37Z</time>
      </trkpt>
      <trkpt lat="45.98136" lon="6.43595">
        <ele>1846.83</ele>
        <time>2022-01-16T13:13:44Z</time>
      </trkpt>
      <trkpt lat="45.98136" lon="6.43597">
        <ele>1845.39</ele>
        <time>2022-01-16T13:13:58Z</time>
      </trkpt>
      <trkpt lat="45.98138" lon="6.43591">
        <ele>1845.87</ele>
        <time>2022-01-16T13:14:17Z</time>
      </trkpt>
      <trkpt lat="45.98136" lon="6.43602">
        <ele>1842.5</ele>
        <time>2022-01-16T13:14:22Z</time>
      </trkpt>
      <trkpt lat="45.98129" lon="6.43612">
        <ele>1837.22</ele>
        <time>2022-01-16T13:14:25Z</time>
      </trkpt>
      <trkpt lat="45.98121" lon="6.43626">
        <ele>1830.49</ele>
        <time>2022-01-16T13:14:28Z</time>
      </trkpt>
      <trkpt lat="45.98119" lon="6.43632">
        <ele>1827.6</ele>
        <time>2022-01-16T13:14:29Z</time>
      </trkpt>
      <trkpt lat="45.98113" lon="6.43639">
        <ele>1824.24</ele>
        <time>2022-01-16T13:14:31Z</time>
      </trkpt>
      <trkpt lat="45.98112" lon="6.43642">
        <ele>1823.28</ele>
        <time>2022-01-16T13:14:32Z</time>
      </trkpt>
      <trkpt lat="45.98117" lon="6.43653">
        <ele>1821.84</ele>
        <time>2022-01-16T13:14:34Z</time>
      </trkpt>
      <trkpt lat="45.98127" lon="6.43674">
        <ele>1817.03</ele>
        <time>2022-01-16T13:14:39Z</time>
      </trkpt>
      <trkpt lat="45.98125" lon="6.43686">
        <ele>1812.22</ele>
        <time>2022-01-16T13:14:42Z</time>
      </trkpt>
      <trkpt lat="45.98113" lon="6.43697">
        <ele>1808.38</ele>
        <time>2022-01-16T13:14:45Z</time>
      </trkpt>
      <trkpt lat="45.98089" lon="6.43694">
        <ele>1808.86</ele>
        <time>2022-01-16T13:14:59Z</time>
      </trkpt>
      <trkpt lat="45.9811" lon="6.43666">
        <ele>1810.3</ele>
        <time>2022-01-16T13:15:14Z</time>
      </trkpt>
      <trkpt lat="45.98109" lon="6.43663">
        <ele>1810.3</ele>
        <time>2022-01-16T13:15:20Z</time>
      </trkpt>
      <trkpt lat="45.98106" lon="6.43677">
        <ele>1805.97</ele>
        <time>2022-01-16T13:15:25Z</time>
      </trkpt>
      <trkpt lat="45.9811" lon="6.43685">
        <ele>1804.53</ele>
        <time>2022-01-16T13:15:27Z</time>
      </trkpt>
      <trkpt lat="45.98114" lon="6.43695">
        <ele>1803.57</ele>
        <time>2022-01-16T13:15:30Z</time>
      </trkpt>
      <trkpt lat="45.98122" lon="6.4372">
        <ele>1801.17</ele>
        <time>2022-01-16T13:15:35Z</time>
      </trkpt>
      <trkpt lat="45.98124" lon="6.43725">
        <ele>1800.69</ele>
        <time>2022-01-16T13:15:36Z</time>
      </trkpt>
      <trkpt lat="45.98129" lon="6.43744">
        <ele>1800.21</ele>
        <time>2022-01-16T13:15:40Z</time>
      </trkpt>
      <trkpt lat="45.98126" lon="6.43752">
        <ele>1794.92</ele>
        <time>2022-01-16T13:15:43Z</time>
      </trkpt>
      <trkpt lat="45.9812" lon="6.43758">
        <ele>1793.48</ele>
        <time>2022-01-16T13:15:45Z</time>
      </trkpt>
      <trkpt lat="45.98113" lon="6.43765">
        <ele>1787.71</ele>
        <time>2022-01-16T13:15:47Z</time>
      </trkpt>
      <trkpt lat="45.98106" lon="6.43769">
        <ele>1784.82</ele>
        <time>2022-01-16T13:15:49Z</time>
      </trkpt>
      <trkpt lat="45.98109" lon="6.43783">
        <ele>1783.86</ele>
        <time>2022-01-16T13:15:52Z</time>
      </trkpt>
      <trkpt lat="45.98104" lon="6.43788">
        <ele>1780.5</ele>
        <time>2022-01-16T13:15:54Z</time>
      </trkpt>
      <trkpt lat="45.98098" lon="6.43804">
        <ele>1774.73</ele>
        <time>2022-01-16T13:16:00Z</time>
      </trkpt>
      <trkpt lat="45.98091" lon="6.43808">
        <ele>1770.89</ele>
        <time>2022-01-16T13:16:02Z</time>
      </trkpt>
      <trkpt lat="45.98092" lon="6.43803">
        <ele>1770.41</ele>
        <time>2022-01-16T13:16:18Z</time>
      </trkpt>
      <trkpt lat="45.98092" lon="6.43804">
        <ele>1770.41</ele>
        <time>2022-01-16T13:16:47Z</time>
      </trkpt>
      <trkpt lat="45.98092" lon="6.43803">
        <ele>1770.41</ele>
        <time>2022-01-16T13:17:00Z</time>
      </trkpt>
      <trkpt lat="45.98085" lon="6.43792">
        <ele>1769.44</ele>
        <time>2022-01-16T13:17:05Z</time>
      </trkpt>
      <trkpt lat="45.98078" lon="6.43798">
        <ele>1763.68</ele>
        <time>2022-01-16T13:17:09Z</time>
      </trkpt>
      <trkpt lat="45.9808" lon="6.43812">
        <ele>1762.23</ele>
        <time>2022-01-16T13:17:11Z</time>
      </trkpt>
      <trkpt lat="45.98074" lon="6.43827">
        <ele>1756.95</ele>
        <time>2022-01-16T13:17:15Z</time>
      </trkpt>
      <trkpt lat="45.98071" lon="6.43837">
        <ele>1752.62</ele>
        <time>2022-01-16T13:17:17Z</time>
      </trkpt>
      <trkpt lat="45.98073" lon="6.43842">
        <ele>1752.62</ele>
        <time>2022-01-16T13:17:18Z</time>
      </trkpt>
      <trkpt lat="45.98074" lon="6.43857">
        <ele>1747.81</ele>
        <time>2022-01-16T13:17:21Z</time>
      </trkpt>
      <trkpt lat="45.9807" lon="6.43858">
        <ele>1745.89</ele>
        <time>2022-01-16T13:17:23Z</time>
      </trkpt>
      <trkpt lat="45.98067" lon="6.43867">
        <ele>1742.05</ele>
        <time>2022-01-16T13:17:25Z</time>
      </trkpt>
      <trkpt lat="45.98067" lon="6.4387">
        <ele>1742.05</ele>
        <time>2022-01-16T13:17:26Z</time>
      </trkpt>
      <trkpt lat="45.98068" lon="6.43877">
        <ele>1740.12</ele>
        <time>2022-01-16T13:17:30Z</time>
      </trkpt>
      <trkpt lat="45.98094" lon="6.43906">
        <ele>1738.2</ele>
        <time>2022-01-16T13:17:37Z</time>
      </trkpt>
      <trkpt lat="45.981" lon="6.43919">
        <ele>1736.76</ele>
        <time>2022-01-16T13:17:40Z</time>
      </trkpt>
      <trkpt lat="45.98107" lon="6.43936">
        <ele>1735.32</ele>
        <time>2022-01-16T13:17:44Z</time>
      </trkpt>
      <trkpt lat="45.98116" lon="6.43951">
        <ele>1733.88</ele>
        <time>2022-01-16T13:17:49Z</time>
      </trkpt>
      <trkpt lat="45.98114" lon="6.43957">
        <ele>1730.99</ele>
        <time>2022-01-16T13:17:52Z</time>
      </trkpt>
      <trkpt lat="45.98109" lon="6.43956">
        <ele>1730.03</ele>
        <time>2022-01-16T13:17:53Z</time>
      </trkpt>
      <trkpt lat="45.98106" lon="6.43954">
        <ele>1729.07</ele>
        <time>2022-01-16T13:17:54Z</time>
      </trkpt>
      <trkpt lat="45.98103" lon="6.4395">
        <ele>1728.59</ele>
        <time>2022-01-16T13:17:55Z</time>
      </trkpt>
      <trkpt lat="45.981" lon="6.43949">
        <ele>1727.63</ele>
        <time>2022-01-16T13:17:56Z</time>
      </trkpt>
      <trkpt lat="45.98098" lon="6.43949">
        <ele>1726.67</ele>
        <time>2022-01-16T13:17:57Z</time>
      </trkpt>
      <trkpt lat="45.98098" lon="6.43954">
        <ele>1725.7</ele>
        <time>2022-01-16T13:17:58Z</time>
      </trkpt>
      <trkpt lat="45.98099" lon="6.43959">
        <ele>1725.7</ele>
        <time>2022-01-16T13:17:59Z</time>
      </trkpt>
      <trkpt lat="45.98102" lon="6.43964">
        <ele>1724.74</ele>
        <time>2022-01-16T13:18:00Z</time>
      </trkpt>
      <trkpt lat="45.98104" lon="6.43968">
        <ele>1723.78</ele>
        <time>2022-01-16T13:18:01Z</time>
      </trkpt>
      <trkpt lat="45.98105" lon="6.43978">
        <ele>1724.26</ele>
        <time>2022-01-16T13:18:03Z</time>
      </trkpt>
      <trkpt lat="45.98102" lon="6.43981">
        <ele>1719.94</ele>
        <time>2022-01-16T13:18:04Z</time>
      </trkpt>
      <trkpt lat="45.98099" lon="6.43979">
        <ele>1718.97</ele>
        <time>2022-01-16T13:18:05Z</time>
      </trkpt>
      <trkpt lat="45.98096" lon="6.43977">
        <ele>1717.53</ele>
        <time>2022-01-16T13:18:06Z</time>
      </trkpt>
      <trkpt lat="45.98091" lon="6.43972">
        <ele>1717.53</ele>
        <time>2022-01-16T13:18:08Z</time>
      </trkpt>
      <trkpt lat="45.98086" lon="6.43981">
        <ele>1713.21</ele>
        <time>2022-01-16T13:18:11Z</time>
      </trkpt>
      <trkpt lat="45.9809" lon="6.43988">
        <ele>1711.28</ele>
        <time>2022-01-16T13:18:12Z</time>
      </trkpt>
      <trkpt lat="45.98094" lon="6.43993">
        <ele>1712.73</ele>
        <time>2022-01-16T13:18:13Z</time>
      </trkpt>
      <trkpt lat="45.98097" lon="6.43997">
        <ele>1710.8</ele>
        <time>2022-01-16T13:18:14Z</time>
      </trkpt>
      <trkpt lat="45.98099" lon="6.44007">
        <ele>1712.25</ele>
        <time>2022-01-16T13:18:17Z</time>
      </trkpt>
      <trkpt lat="45.98097" lon="6.44008">
        <ele>1708.88</ele>
        <time>2022-01-16T13:18:18Z</time>
      </trkpt>
      <trkpt lat="45.98093" lon="6.44008">
        <ele>1706.96</ele>
        <time>2022-01-16T13:18:19Z</time>
      </trkpt>
      <trkpt lat="45.98089" lon="6.44004">
        <ele>1706.48</ele>
        <time>2022-01-16T13:18:20Z</time>
      </trkpt>
      <trkpt lat="45.98086" lon="6.44">
        <ele>1705.52</ele>
        <time>2022-01-16T13:18:21Z</time>
      </trkpt>
      <trkpt lat="45.98083" lon="6.43995">
        <ele>1706.48</ele>
        <time>2022-01-16T13:18:29Z</time>
      </trkpt>
      <trkpt lat="45.98082" lon="6.43995">
        <ele>1706.96</ele>
        <time>2022-01-16T13:18:48Z</time>
      </trkpt>
      <trkpt lat="45.98083" lon="6.43996">
        <ele>1706.48</ele>
        <time>2022-01-16T13:19:05Z</time>
      </trkpt>
      <trkpt lat="45.98083" lon="6.44">
        <ele>1705.04</ele>
        <time>2022-01-16T13:19:06Z</time>
      </trkpt>
      <trkpt lat="45.98084" lon="6.44005">
        <ele>1703.59</ele>
        <time>2022-01-16T13:19:07Z</time>
      </trkpt>
      <trkpt lat="45.98089" lon="6.44014">
        <ele>1703.11</ele>
        <time>2022-01-16T13:19:09Z</time>
      </trkpt>
      <trkpt lat="45.98086" lon="6.44018">
        <ele>1701.19</ele>
        <time>2022-01-16T13:19:11Z</time>
      </trkpt>
      <trkpt lat="45.98083" lon="6.44017">
        <ele>1700.71</ele>
        <time>2022-01-16T13:19:12Z</time>
      </trkpt>
      <trkpt lat="45.98081" lon="6.44015">
        <ele>1700.71</ele>
        <time>2022-01-16T13:19:13Z</time>
      </trkpt>
      <trkpt lat="45.98078" lon="6.44014">
        <ele>1698.31</ele>
        <time>2022-01-16T13:19:14Z</time>
      </trkpt>
      <trkpt lat="45.98074" lon="6.44015">
        <ele>1699.75</ele>
        <time>2022-01-16T13:19:15Z</time>
      </trkpt>
      <trkpt lat="45.98072" lon="6.44017">
        <ele>1696.38</ele>
        <time>2022-01-16T13:19:16Z</time>
      </trkpt>
      <trkpt lat="45.98072" lon="6.44028">
        <ele>1693.98</ele>
        <time>2022-01-16T13:19:20Z</time>
      </trkpt>
      <trkpt lat="45.98069" lon="6.44029">
        <ele>1691.1</ele>
        <time>2022-01-16T13:19:22Z</time>
      </trkpt>
      <trkpt lat="45.98068" lon="6.44027">
        <ele>1689.65</ele>
        <time>2022-01-16T13:19:23Z</time>
      </trkpt>
      <trkpt lat="45.98066" lon="6.44025">
        <ele>1690.14</ele>
        <time>2022-01-16T13:19:24Z</time>
      </trkpt>
      <trkpt lat="45.98063" lon="6.44025">
        <ele>1688.69</ele>
        <time>2022-01-16T13:19:25Z</time>
      </trkpt>
      <trkpt lat="45.98061" lon="6.44027">
        <ele>1686.77</ele>
        <time>2022-01-16T13:19:26Z</time>
      </trkpt>
      <trkpt lat="45.98059" lon="6.4403">
        <ele>1686.77</ele>
        <time>2022-01-16T13:19:27Z</time>
      </trkpt>
      <trkpt lat="45.98057" lon="6.44041">
        <ele>1684.37</ele>
        <time>2022-01-16T13:19:31Z</time>
      </trkpt>
      <trkpt lat="45.98076" lon="6.44065">
        <ele>1682.44</ele>
        <time>2022-01-16T13:19:35Z</time>
      </trkpt>
      <trkpt lat="45.98078" lon="6.44069">
        <ele>1682.44</ele>
        <time>2022-01-16T13:19:36Z</time>
      </trkpt>
      <trkpt lat="45.98085" lon="6.44077">
        <ele>1681.48</ele>
        <time>2022-01-16T13:19:38Z</time>
      </trkpt>
      <trkpt lat="45.98087" lon="6.44082">
        <ele>1681.96</ele>
        <time>2022-01-16T13:19:40Z</time>
      </trkpt>
      <trkpt lat="45.98075" lon="6.4408">
        <ele>1677.16</ele>
        <time>2022-01-16T13:19:44Z</time>
      </trkpt>
      <trkpt lat="45.98055" lon="6.44056">
        <ele>1674.75</ele>
        <time>2022-01-16T13:19:54Z</time>
      </trkpt>
      <trkpt lat="45.98041" lon="6.44046">
        <ele>1673.31</ele>
        <time>2022-01-16T13:20:01Z</time>
      </trkpt>
      <trkpt lat="45.98035" lon="6.44044">
        <ele>1672.35</ele>
        <time>2022-01-16T13:20:03Z</time>
      </trkpt>
      <trkpt lat="45.98032" lon="6.44044">
        <ele>1671.87</ele>
        <time>2022-01-16T13:20:04Z</time>
      </trkpt>
      <trkpt lat="45.98015" lon="6.4405">
        <ele>1668.99</ele>
        <time>2022-01-16T13:20:10Z</time>
      </trkpt>
      <trkpt lat="45.98014" lon="6.44054">
        <ele>1668.99</ele>
        <time>2022-01-16T13:20:11Z</time>
      </trkpt>
      <trkpt lat="45.98015" lon="6.44058">
        <ele>1668.02</ele>
        <time>2022-01-16T13:20:12Z</time>
      </trkpt>
      <trkpt lat="45.98018" lon="6.4406">
        <ele>1668.02</ele>
        <time>2022-01-16T13:20:13Z</time>
      </trkpt>
      <trkpt lat="45.98018" lon="6.44066">
        <ele>1665.14</ele>
        <time>2022-01-16T13:20:16Z</time>
      </trkpt>
      <trkpt lat="45.98016" lon="6.44068">
        <ele>1663.7</ele>
        <time>2022-01-16T13:20:17Z</time>
      </trkpt>
      <trkpt lat="45.98013" lon="6.44074">
        <ele>1664.66</ele>
        <time>2022-01-16T13:20:19Z</time>
      </trkpt>
      <trkpt lat="45.98016" lon="6.44079">
        <ele>1660.81</ele>
        <time>2022-01-16T13:20:21Z</time>
      </trkpt>
      <trkpt lat="45.9802" lon="6.44081">
        <ele>1661.3</ele>
        <time>2022-01-16T13:20:22Z</time>
      </trkpt>
      <trkpt lat="45.98031" lon="6.44091">
        <ele>1659.37</ele>
        <time>2022-01-16T13:20:26Z</time>
      </trkpt>
      <trkpt lat="45.98028" lon="6.44092">
        <ele>1657.93</ele>
        <time>2022-01-16T13:20:27Z</time>
      </trkpt>
      <trkpt lat="45.98024" lon="6.44092">
        <ele>1656.01</ele>
        <time>2022-01-16T13:20:28Z</time>
      </trkpt>
      <trkpt lat="45.98019" lon="6.44094">
        <ele>1655.53</ele>
        <time>2022-01-16T13:20:29Z</time>
      </trkpt>
      <trkpt lat="45.98017" lon="6.44096">
        <ele>1655.05</ele>
        <time>2022-01-16T13:20:30Z</time>
      </trkpt>
      <trkpt lat="45.98015" lon="6.44102">
        <ele>1655.53</ele>
        <time>2022-01-16T13:20:32Z</time>
      </trkpt>
      <trkpt lat="45.98013" lon="6.44106">
        <ele>1654.57</ele>
        <time>2022-01-16T13:20:33Z</time>
      </trkpt>
      <trkpt lat="45.98011" lon="6.44109">
        <ele>1654.09</ele>
        <time>2022-01-16T13:20:34Z</time>
      </trkpt>
      <trkpt lat="45.9801" lon="6.44114">
        <ele>1653.12</ele>
        <time>2022-01-16T13:20:38Z</time>
      </trkpt>
      <trkpt lat="45.98009" lon="6.44116">
        <ele>1653.12</ele>
        <time>2022-01-16T13:20:39Z</time>
      </trkpt>
      <trkpt lat="45.98009" lon="6.44119">
        <ele>1652.64</ele>
        <time>2022-01-16T13:20:40Z</time>
      </trkpt>
      <trkpt lat="45.98013" lon="6.44121">
        <ele>1651.2</ele>
        <time>2022-01-16T13:20:42Z</time>
      </trkpt>
      <trkpt lat="45.98013" lon="6.44118">
        <ele>1650.24</ele>
        <time>2022-01-16T13:20:47Z</time>
      </trkpt>
      <trkpt lat="45.98015" lon="6.44117">
        <ele>1650.24</ele>
        <time>2022-01-16T13:20:49Z</time>
      </trkpt>
      <trkpt lat="45.98018" lon="6.44115">
        <ele>1650.24</ele>
        <time>2022-01-16T13:20:50Z</time>
      </trkpt>
      <trkpt lat="45.98026" lon="6.44121">
        <ele>1647.36</ele>
        <time>2022-01-16T13:20:53Z</time>
      </trkpt>
      <trkpt lat="45.98037" lon="6.44127">
        <ele>1645.43</ele>
        <time>2022-01-16T13:20:56Z</time>
      </trkpt>
      <trkpt lat="45.98061" lon="6.4414">
        <ele>1642.55</ele>
        <time>2022-01-16T13:21:02Z</time>
      </trkpt>
      <trkpt lat="45.98073" lon="6.44149">
        <ele>1640.63</ele>
        <time>2022-01-16T13:21:06Z</time>
      </trkpt>
      <trkpt lat="45.9807" lon="6.44153">
        <ele>1635.82</ele>
        <time>2022-01-16T13:21:11Z</time>
      </trkpt>
      <trkpt lat="45.98056" lon="6.44152">
        <ele>1634.38</ele>
        <time>2022-01-16T13:21:14Z</time>
      </trkpt>
      <trkpt lat="45.98033" lon="6.44163">
        <ele>1632.94</ele>
        <time>2022-01-16T13:21:18Z</time>
      </trkpt>
      <trkpt lat="45.98022" lon="6.44171">
        <ele>1633.9</ele>
        <time>2022-01-16T13:21:22Z</time>
      </trkpt>
      <trkpt lat="45.98023" lon="6.44175">
        <ele>1633.9</ele>
        <time>2022-01-16T13:21:23Z</time>
      </trkpt>
      <trkpt lat="45.98025" lon="6.44179">
        <ele>1632.46</ele>
        <time>2022-01-16T13:21:24Z</time>
      </trkpt>
      <trkpt lat="45.98029" lon="6.44181">
        <ele>1630.53</ele>
        <time>2022-01-16T13:21:25Z</time>
      </trkpt>
      <trkpt lat="45.98033" lon="6.44181">
        <ele>1630.53</ele>
        <time>2022-01-16T13:21:26Z</time>
      </trkpt>
      <trkpt lat="45.98067" lon="6.44194">
        <ele>1626.69</ele>
        <time>2022-01-16T13:21:34Z</time>
      </trkpt>
      <trkpt lat="45.98073" lon="6.44199">
        <ele>1626.21</ele>
        <time>2022-01-16T13:21:36Z</time>
      </trkpt>
      <trkpt lat="45.98089" lon="6.44217">
        <ele>1623.32</ele>
        <time>2022-01-16T13:21:42Z</time>
      </trkpt>
      <trkpt lat="45.98093" lon="6.44221">
        <ele>1623.32</ele>
        <time>2022-01-16T13:21:43Z</time>
      </trkpt>
      <trkpt lat="45.98096" lon="6.44226">
        <ele>1622.36</ele>
        <time>2022-01-16T13:21:44Z</time>
      </trkpt>
      <trkpt lat="45.98098" lon="6.44232">
        <ele>1622.36</ele>
        <time>2022-01-16T13:21:45Z</time>
      </trkpt>
      <trkpt lat="45.981" lon="6.44238">
        <ele>1621.4</ele>
        <time>2022-01-16T13:21:46Z</time>
      </trkpt>
      <trkpt lat="45.98104" lon="6.4425">
        <ele>1620.44</ele>
        <time>2022-01-16T13:21:48Z</time>
      </trkpt>
      <trkpt lat="45.98108" lon="6.44277">
        <ele>1619.48</ele>
        <time>2022-01-16T13:21:57Z</time>
      </trkpt>
      <trkpt lat="45.98108" lon="6.44273">
        <ele>1620.92</ele>
        <time>2022-01-16T13:22:15Z</time>
      </trkpt>
      <trkpt lat="45.98108" lon="6.44274">
        <ele>1621.4</ele>
        <time>2022-01-16T13:22:17Z</time>
      </trkpt>
      <trkpt lat="45.98107" lon="6.44275">
        <ele>1620.44</ele>
        <time>2022-01-16T13:22:20Z</time>
      </trkpt>
      <trkpt lat="45.98106" lon="6.44278">
        <ele>1621.4</ele>
        <time>2022-01-16T13:22:35Z</time>
      </trkpt>
      <trkpt lat="45.98106" lon="6.44279">
        <ele>1619.48</ele>
        <time>2022-01-16T13:22:37Z</time>
      </trkpt>
      <trkpt lat="45.98109" lon="6.44297">
        <ele>1617.56</ele>
        <time>2022-01-16T13:22:42Z</time>
      </trkpt>
      <trkpt lat="45.98114" lon="6.44317">
        <ele>1615.63</ele>
        <time>2022-01-16T13:22:45Z</time>
      </trkpt>
      <trkpt lat="45.98121" lon="6.44335">
        <ele>1613.71</ele>
        <time>2022-01-16T13:22:48Z</time>
      </trkpt>
      <trkpt lat="45.98134" lon="6.44367">
        <ele>1610.35</ele>
        <time>2022-01-16T13:22:53Z</time>
      </trkpt>
      <trkpt lat="45.98139" lon="6.44389">
        <ele>1606.98</ele>
        <time>2022-01-16T13:22:56Z</time>
      </trkpt>
      <trkpt lat="45.9814" lon="6.44401">
        <ele>1609.38</ele>
        <time>2022-01-16T13:22:58Z</time>
      </trkpt>
      <trkpt lat="45.98138" lon="6.44417">
        <ele>1605.54</ele>
        <time>2022-01-16T13:23:01Z</time>
      </trkpt>
      <trkpt lat="45.98133" lon="6.4441">
        <ele>1603.62</ele>
        <time>2022-01-16T13:23:03Z</time>
      </trkpt>
      <trkpt lat="45.98118" lon="6.44395">
        <ele>1602.17</ele>
        <time>2022-01-16T13:23:08Z</time>
      </trkpt>
      <trkpt lat="45.98115" lon="6.444">
        <ele>1600.25</ele>
        <time>2022-01-16T13:23:09Z</time>
      </trkpt>
      <trkpt lat="45.98114" lon="6.44405">
        <ele>1599.77</ele>
        <time>2022-01-16T13:23:10Z</time>
      </trkpt>
      <trkpt lat="45.9811" lon="6.44417">
        <ele>1597.85</ele>
        <time>2022-01-16T13:23:12Z</time>
      </trkpt>
      <trkpt lat="45.98111" lon="6.44438">
        <ele>1594</ele>
        <time>2022-01-16T13:23:15Z</time>
      </trkpt>
      <trkpt lat="45.98107" lon="6.44437">
        <ele>1590.64</ele>
        <time>2022-01-16T13:23:18Z</time>
      </trkpt>
      <trkpt lat="45.98105" lon="6.44433">
        <ele>1590.16</ele>
        <time>2022-01-16T13:23:19Z</time>
      </trkpt>
      <trkpt lat="45.98098" lon="6.44421">
        <ele>1589.2</ele>
        <time>2022-01-16T13:23:22Z</time>
      </trkpt>
      <trkpt lat="45.98097" lon="6.44434">
        <ele>1587.75</ele>
        <time>2022-01-16T13:23:26Z</time>
      </trkpt>
      <trkpt lat="45.98101" lon="6.44451">
        <ele>1585.35</ele>
        <time>2022-01-16T13:23:29Z</time>
      </trkpt>
      <trkpt lat="45.98106" lon="6.44478">
        <ele>1583.91</ele>
        <time>2022-01-16T13:23:34Z</time>
      </trkpt>
      <trkpt lat="45.98106" lon="6.44484">
        <ele>1583.91</ele>
        <time>2022-01-16T13:23:35Z</time>
      </trkpt>
      <trkpt lat="45.98109" lon="6.445">
        <ele>1581.51</ele>
        <time>2022-01-16T13:23:38Z</time>
      </trkpt>
      <trkpt lat="45.9811" lon="6.44504">
        <ele>1581.51</ele>
        <time>2022-01-16T13:23:39Z</time>
      </trkpt>
      <trkpt lat="45.98101" lon="6.44508">
        <ele>1578.62</ele>
        <time>2022-01-16T13:23:42Z</time>
      </trkpt>
      <trkpt lat="45.98097" lon="6.44505">
        <ele>1577.18</ele>
        <time>2022-01-16T13:23:43Z</time>
      </trkpt>
      <trkpt lat="45.98084" lon="6.44488">
        <ele>1575.74</ele>
        <time>2022-01-16T13:23:47Z</time>
      </trkpt>
      <trkpt lat="45.98079" lon="6.44499">
        <ele>1573.82</ele>
        <time>2022-01-16T13:23:52Z</time>
      </trkpt>
      <trkpt lat="45.98081" lon="6.44504">
        <ele>1573.33</ele>
        <time>2022-01-16T13:23:53Z</time>
      </trkpt>
      <trkpt lat="45.98084" lon="6.44515">
        <ele>1571.89</ele>
        <time>2022-01-16T13:23:55Z</time>
      </trkpt>
      <trkpt lat="45.98093" lon="6.44555">
        <ele>1568.53</ele>
        <time>2022-01-16T13:24:04Z</time>
      </trkpt>
      <trkpt lat="45.98098" lon="6.44572">
        <ele>1568.53</ele>
        <time>2022-01-16T13:24:09Z</time>
      </trkpt>
      <trkpt lat="45.981" lon="6.44596">
        <ele>1566.12</ele>
        <time>2022-01-16T13:24:14Z</time>
      </trkpt>
      <trkpt lat="45.98093" lon="6.44628">
        <ele>1563.24</ele>
        <time>2022-01-16T13:24:21Z</time>
      </trkpt>
      <trkpt lat="45.98091" lon="6.44658">
        <ele>1561.32</ele>
        <time>2022-01-16T13:24:31Z</time>
      </trkpt>
      <trkpt lat="45.98088" lon="6.44681">
        <ele>1557.95</ele>
        <time>2022-01-16T13:24:34Z</time>
      </trkpt>
      <trkpt lat="45.98087" lon="6.44688">
        <ele>1557.95</ele>
        <time>2022-01-16T13:24:35Z</time>
      </trkpt>
      <trkpt lat="45.98085" lon="6.44706">
        <ele>1557.95</ele>
        <time>2022-01-16T13:24:38Z</time>
      </trkpt>
      <trkpt lat="45.98083" lon="6.44719">
        <ele>1556.51</ele>
        <time>2022-01-16T13:24:40Z</time>
      </trkpt>
      <trkpt lat="45.98084" lon="6.44732">
        <ele>1557.47</ele>
        <time>2022-01-16T13:24:44Z</time>
      </trkpt>
      <trkpt lat="45.98084" lon="6.44732">
        <ele>1556.99</ele>
        <time>2022-01-16T13:25:01Z</time>
      </trkpt>
      <trkpt lat="45.98083" lon="6.44729">
        <ele>1556.99</ele>
        <time>2022-01-16T13:25:15Z</time>
      </trkpt>
      <trkpt lat="45.98083" lon="6.44729">
        <ele>1556.99</ele>
        <time>2022-01-16T13:25:33Z</time>
      </trkpt>
      <trkpt lat="45.98081" lon="6.44744">
        <ele>1555.07</ele>
        <time>2022-01-16T13:25:41Z</time>
      </trkpt>
      <trkpt lat="45.98082" lon="6.44749">
        <ele>1554.59</ele>
        <time>2022-01-16T13:25:42Z</time>
      </trkpt>
      <trkpt lat="45.98095" lon="6.44784">
        <ele>1551.22</ele>
        <time>2022-01-16T13:25:49Z</time>
      </trkpt>
      <trkpt lat="45.98097" lon="6.44789">
        <ele>1551.22</ele>
        <time>2022-01-16T13:25:50Z</time>
      </trkpt>
      <trkpt lat="45.98101" lon="6.448">
        <ele>1550.26</ele>
        <time>2022-01-16T13:25:52Z</time>
      </trkpt>
      <trkpt lat="45.98102" lon="6.44806">
        <ele>1548.34</ele>
        <time>2022-01-16T13:25:53Z</time>
      </trkpt>
      <trkpt lat="45.98102" lon="6.44813">
        <ele>1548.34</ele>
        <time>2022-01-16T13:25:54Z</time>
      </trkpt>
      <trkpt lat="45.981" lon="6.44828">
        <ele>1536.32</ele>
        <time>2022-01-16T13:25:57Z</time>
      </trkpt>
      <trkpt lat="45.981" lon="6.4483">
        <ele>1539.21</ele>
        <time>2022-01-16T13:25:58Z</time>
      </trkpt>
      <trkpt lat="45.981" lon="6.44829">
        <ele>1556.99</ele>
        <time>2022-01-16T13:25:59Z</time>
      </trkpt>
      <trkpt lat="45.98099" lon="6.44829">
        <ele>1541.13</ele>
        <time>2022-01-16T13:26:00Z</time>
      </trkpt>
      <trkpt lat="45.98099" lon="6.44828">
        <ele>1546.9</ele>
        <time>2022-01-16T13:26:01Z</time>
      </trkpt>
      <trkpt lat="45.98099" lon="6.44827">
        <ele>1543.05</ele>
        <time>2022-01-16T13:26:04Z</time>
      </trkpt>
      <trkpt lat="45.981" lon="6.44827">
        <ele>1546.9</ele>
        <time>2022-01-16T13:26:05Z</time>
      </trkpt>
      <trkpt lat="45.98099" lon="6.44826">
        <ele>1545.94</ele>
        <time>2022-01-16T13:26:11Z</time>
      </trkpt>
      <trkpt lat="45.98096" lon="6.44829">
        <ele>1545.94</ele>
        <time>2022-01-16T13:26:25Z</time>
      </trkpt>
      <trkpt lat="45.98095" lon="6.44834">
        <ele>1545.94</ele>
        <time>2022-01-16T13:26:27Z</time>
      </trkpt>
      <trkpt lat="45.98097" lon="6.44838">
        <ele>1544.98</ele>
        <time>2022-01-16T13:26:28Z</time>
      </trkpt>
      <trkpt lat="45.98104" lon="6.4485">
        <ele>1542.57</ele>
        <time>2022-01-16T13:26:31Z</time>
      </trkpt>
      <trkpt lat="45.9811" lon="6.44859">
        <ele>1542.57</ele>
        <time>2022-01-16T13:26:33Z</time>
      </trkpt>
      <trkpt lat="45.98112" lon="6.44864">
        <ele>1542.57</ele>
        <time>2022-01-16T13:26:34Z</time>
      </trkpt>
      <trkpt lat="45.98114" lon="6.44879">
        <ele>1541.13</ele>
        <time>2022-01-16T13:26:38Z</time>
      </trkpt>
      <trkpt lat="45.98119" lon="6.44905">
        <ele>1539.21</ele>
        <time>2022-01-16T13:26:42Z</time>
      </trkpt>
      <trkpt lat="45.98123" lon="6.44922">
        <ele>1535.84</ele>
        <time>2022-01-16T13:26:44Z</time>
      </trkpt>
      <trkpt lat="45.98125" lon="6.4493">
        <ele>1535.84</ele>
        <time>2022-01-16T13:26:45Z</time>
      </trkpt>
      <trkpt lat="45.98127" lon="6.44945">
        <ele>1533.92</ele>
        <time>2022-01-16T13:26:47Z</time>
      </trkpt>
      <trkpt lat="45.9813" lon="6.44969">
        <ele>1532.96</ele>
        <time>2022-01-16T13:26:50Z</time>
      </trkpt>
      <trkpt lat="45.9813" lon="6.44979">
        <ele>1530.56</ele>
        <time>2022-01-16T13:26:51Z</time>
      </trkpt>
      <trkpt lat="45.9813" lon="6.4499">
        <ele>1530.56</ele>
        <time>2022-01-16T13:26:52Z</time>
      </trkpt>
      <trkpt lat="45.9813" lon="6.45002">
        <ele>1528.63</ele>
        <time>2022-01-16T13:26:53Z</time>
      </trkpt>
      <trkpt lat="45.98132" lon="6.45011">
        <ele>1528.63</ele>
        <time>2022-01-16T13:26:54Z</time>
      </trkpt>
      <trkpt lat="45.98133" lon="6.45016">
        <ele>1528.63</ele>
        <time>2022-01-16T13:26:55Z</time>
      </trkpt>
      <trkpt lat="45.98133" lon="6.45018">
        <ele>1528.63</ele>
        <time>2022-01-16T13:26:56Z</time>
      </trkpt>
      <trkpt lat="45.98134" lon="6.45021">
        <ele>1528.15</ele>
        <time>2022-01-16T13:27:06Z</time>
      </trkpt>
      <trkpt lat="45.98139" lon="6.4505">
        <ele>1525.27</ele>
        <time>2022-01-16T13:27:13Z</time>
      </trkpt>
      <trkpt lat="45.98142" lon="6.45076">
        <ele>1520.94</ele>
        <time>2022-01-16T13:27:16Z</time>
      </trkpt>
      <trkpt lat="45.98144" lon="6.45086">
        <ele>1520.94</ele>
        <time>2022-01-16T13:27:17Z</time>
      </trkpt>
      <trkpt lat="45.98146" lon="6.45106">
        <ele>1519.5</ele>
        <time>2022-01-16T13:27:19Z</time>
      </trkpt>
      <trkpt lat="45.98148" lon="6.45134">
        <ele>1519.02</ele>
        <time>2022-01-16T13:27:22Z</time>
      </trkpt>
      <trkpt lat="45.98148" lon="6.45157">
        <ele>1517.58</ele>
        <time>2022-01-16T13:27:25Z</time>
      </trkpt>
      <trkpt lat="45.98148" lon="6.45165">
        <ele>1515.18</ele>
        <time>2022-01-16T13:27:26Z</time>
      </trkpt>
      <trkpt lat="45.98148" lon="6.45178">
        <ele>1513.73</ele>
        <time>2022-01-16T13:27:28Z</time>
      </trkpt>
      <trkpt lat="45.98145" lon="6.45185">
        <ele>1510.85</ele>
        <time>2022-01-16T13:27:31Z</time>
      </trkpt>
      <trkpt lat="45.98145" lon="6.45177">
        <ele>1512.29</ele>
        <time>2022-01-16T13:27:48Z</time>
      </trkpt>
      <trkpt lat="45.98145" lon="6.45176">
        <ele>1510.85</ele>
        <time>2022-01-16T13:27:55Z</time>
      </trkpt>
      <trkpt lat="45.98145" lon="6.45176">
        <ele>1512.29</ele>
        <time>2022-01-16T13:27:58Z</time>
      </trkpt>
      <trkpt lat="45.98145" lon="6.45177">
        <ele>1509.89</ele>
        <time>2022-01-16T13:28:09Z</time>
      </trkpt>
      <trkpt lat="45.98144" lon="6.45197">
        <ele>1507.97</ele>
        <time>2022-01-16T13:28:14Z</time>
      </trkpt>
      <trkpt lat="45.98146" lon="6.45201">
        <ele>1507.97</ele>
        <time>2022-01-16T13:28:15Z</time>
      </trkpt>
      <trkpt lat="45.98154" lon="6.45217">
        <ele>1507</ele>
        <time>2022-01-16T13:28:20Z</time>
      </trkpt>
      <trkpt lat="45.98161" lon="6.45243">
        <ele>1504.12</ele>
        <time>2022-01-16T13:28:24Z</time>
      </trkpt>
      <trkpt lat="45.98167" lon="6.45254">
        <ele>1503.16</ele>
        <time>2022-01-16T13:28:26Z</time>
      </trkpt>
      <trkpt lat="45.98172" lon="6.45259">
        <ele>1501.72</ele>
        <time>2022-01-16T13:28:28Z</time>
      </trkpt>
      <trkpt lat="45.98184" lon="6.45281">
        <ele>1500.76</ele>
        <time>2022-01-16T13:28:34Z</time>
      </trkpt>
      <trkpt lat="45.98188" lon="6.45301">
        <ele>1497.39</ele>
        <time>2022-01-16T13:28:37Z</time>
      </trkpt>
      <trkpt lat="45.98191" lon="6.45314">
        <ele>1496.43</ele>
        <time>2022-01-16T13:28:39Z</time>
      </trkpt>
      <trkpt lat="45.98193" lon="6.4534">
        <ele>1492.58</ele>
        <time>2022-01-16T13:28:45Z</time>
      </trkpt>
      <trkpt lat="45.98178" lon="6.45333">
        <ele>1490.18</ele>
        <time>2022-01-16T13:28:49Z</time>
      </trkpt>
      <trkpt lat="45.98175" lon="6.45353">
        <ele>1487.3</ele>
        <time>2022-01-16T13:28:55Z</time>
      </trkpt>
      <trkpt lat="45.98177" lon="6.45357">
        <ele>1487.3</ele>
        <time>2022-01-16T13:28:56Z</time>
      </trkpt>
      <trkpt lat="45.98179" lon="6.45363">
        <ele>1488.74</ele>
        <time>2022-01-16T13:28:58Z</time>
      </trkpt>
      <trkpt lat="45.98185" lon="6.45373">
        <ele>1487.3</ele>
        <time>2022-01-16T13:29:05Z</time>
      </trkpt>
      <trkpt lat="45.9819" lon="6.45399">
        <ele>1484.89</ele>
        <time>2022-01-16T13:29:09Z</time>
      </trkpt>
      <trkpt lat="45.98192" lon="6.45409">
        <ele>1484.41</ele>
        <time>2022-01-16T13:29:11Z</time>
      </trkpt>
      <trkpt lat="45.98197" lon="6.45421">
        <ele>1483.93</ele>
        <time>2022-01-16T13:29:15Z</time>
      </trkpt>
      <trkpt lat="45.98198" lon="6.45434">
        <ele>1481.53</ele>
        <time>2022-01-16T13:29:18Z</time>
      </trkpt>
      <trkpt lat="45.98196" lon="6.45462">
        <ele>1479.61</ele>
        <time>2022-01-16T13:29:24Z</time>
      </trkpt>
      <trkpt lat="45.98196" lon="6.45487">
        <ele>1476.24</ele>
        <time>2022-01-16T13:29:27Z</time>
      </trkpt>
      <trkpt lat="45.98194" lon="6.45496">
        <ele>1476.24</ele>
        <time>2022-01-16T13:29:28Z</time>
      </trkpt>
      <trkpt lat="45.9819" lon="6.45521">
        <ele>1473.84</ele>
        <time>2022-01-16T13:29:31Z</time>
      </trkpt>
      <trkpt lat="45.98188" lon="6.45537">
        <ele>1472.88</ele>
        <time>2022-01-16T13:29:33Z</time>
      </trkpt>
      <trkpt lat="45.98175" lon="6.45561">
        <ele>1469.99</ele>
        <time>2022-01-16T13:29:38Z</time>
      </trkpt>
      <trkpt lat="45.98173" lon="6.45587">
        <ele>1466.63</ele>
        <time>2022-01-16T13:29:45Z</time>
      </trkpt>
      <trkpt lat="45.98175" lon="6.45588">
        <ele>1466.63</ele>
        <time>2022-01-16T13:29:53Z</time>
      </trkpt>
      <trkpt lat="45.98175" lon="6.45598">
        <ele>1465.67</ele>
        <time>2022-01-16T13:29:55Z</time>
      </trkpt>
      <trkpt lat="45.98168" lon="6.45637">
        <ele>1464.23</ele>
        <time>2022-01-16T13:30:04Z</time>
      </trkpt>
      <trkpt lat="45.98167" lon="6.45652">
        <ele>1460.86</ele>
        <time>2022-01-16T13:30:09Z</time>
      </trkpt>
      <trkpt lat="45.98166" lon="6.45656">
        <ele>1460.86</ele>
        <time>2022-01-16T13:30:10Z</time>
      </trkpt>
      <trkpt lat="45.98165" lon="6.45661">
        <ele>1462.3</ele>
        <time>2022-01-16T13:30:11Z</time>
      </trkpt>
      <trkpt lat="45.98155" lon="6.45671">
        <ele>1458.94</ele>
        <time>2022-01-16T13:30:14Z</time>
      </trkpt>
      <trkpt lat="45.98133" lon="6.4569">
        <ele>1453.65</ele>
        <time>2022-01-16T13:30:18Z</time>
      </trkpt>
      <trkpt lat="45.98122" lon="6.45725">
        <ele>1450.77</ele>
        <time>2022-01-16T13:30:24Z</time>
      </trkpt>
      <trkpt lat="45.98123" lon="6.4574">
        <ele>1450.77</ele>
        <time>2022-01-16T13:30:27Z</time>
      </trkpt>
      <trkpt lat="45.98122" lon="6.45749">
        <ele>1449.32</ele>
        <time>2022-01-16T13:30:29Z</time>
      </trkpt>
      <trkpt lat="45.98116" lon="6.45763">
        <ele>1446.92</ele>
        <time>2022-01-16T13:30:32Z</time>
      </trkpt>
      <trkpt lat="45.98112" lon="6.45772">
        <ele>1446.44</ele>
        <time>2022-01-16T13:30:35Z</time>
      </trkpt>
      <trkpt lat="45.98109" lon="6.45798">
        <ele>1442.6</ele>
        <time>2022-01-16T13:30:39Z</time>
      </trkpt>
      <trkpt lat="45.98111" lon="6.45806">
        <ele>1442.11</ele>
        <time>2022-01-16T13:30:40Z</time>
      </trkpt>
      <trkpt lat="45.98115" lon="6.45829">
        <ele>1440.67</ele>
        <time>2022-01-16T13:30:43Z</time>
      </trkpt>
      <trkpt lat="45.98113" lon="6.45853">
        <ele>1437.31</ele>
        <time>2022-01-16T13:30:46Z</time>
      </trkpt>
      <trkpt lat="45.98113" lon="6.4586">
        <ele>1437.31</ele>
        <time>2022-01-16T13:30:47Z</time>
      </trkpt>
      <trkpt lat="45.98106" lon="6.4587">
        <ele>1437.31</ele>
        <time>2022-01-16T13:30:51Z</time>
      </trkpt>
      <trkpt lat="45.98097" lon="6.4588">
        <ele>1434.91</ele>
        <time>2022-01-16T13:30:57Z</time>
      </trkpt>
      <trkpt lat="45.98081" lon="6.45876">
        <ele>1431.54</ele>
        <time>2022-01-16T13:31:01Z</time>
      </trkpt>
      <trkpt lat="45.98058" lon="6.45864">
        <ele>1430.58</ele>
        <time>2022-01-16T13:31:09Z</time>
      </trkpt>
      <trkpt lat="45.98039" lon="6.45845">
        <ele>1428.66</ele>
        <time>2022-01-16T13:31:19Z</time>
      </trkpt>
      <trkpt lat="45.98036" lon="6.45844">
        <ele>1427.21</ele>
        <time>2022-01-16T13:31:21Z</time>
      </trkpt>
      <trkpt lat="45.98034" lon="6.45844">
        <ele>1427.21</ele>
        <time>2022-01-16T13:31:23Z</time>
      </trkpt>
      <trkpt lat="45.98035" lon="6.45858">
        <ele>1424.81</ele>
        <time>2022-01-16T13:31:28Z</time>
      </trkpt>
      <trkpt lat="45.98037" lon="6.45865">
        <ele>1423.85</ele>
        <time>2022-01-16T13:31:30Z</time>
      </trkpt>
      <trkpt lat="45.98049" lon="6.45893">
        <ele>1420.97</ele>
        <time>2022-01-16T13:31:37Z</time>
      </trkpt>
      <trkpt lat="45.98065" lon="6.45922">
        <ele>1417.6</ele>
        <time>2022-01-16T13:31:43Z</time>
      </trkpt>
      <trkpt lat="45.98064" lon="6.45933">
        <ele>1416.16</ele>
        <time>2022-01-16T13:31:46Z</time>
      </trkpt>
      <trkpt lat="45.9806" lon="6.45932">
        <ele>1416.16</ele>
        <time>2022-01-16T13:31:47Z</time>
      </trkpt>
      <trkpt lat="45.98052" lon="6.4593">
        <ele>1413.76</ele>
        <time>2022-01-16T13:31:49Z</time>
      </trkpt>
      <trkpt lat="45.98043" lon="6.45927">
        <ele>1413.28</ele>
        <time>2022-01-16T13:31:51Z</time>
      </trkpt>
      <trkpt lat="45.9802" lon="6.45914">
        <ele>1411.35</ele>
        <time>2022-01-16T13:32:01Z</time>
      </trkpt>
      <trkpt lat="45.98011" lon="6.45909">
        <ele>1410.39</ele>
        <time>2022-01-16T13:32:05Z</time>
      </trkpt>
      <trkpt lat="45.98006" lon="6.45921">
        <ele>1406.55</ele>
        <time>2022-01-16T13:32:09Z</time>
      </trkpt>
      <trkpt lat="45.98008" lon="6.45925">
        <ele>1406.55</ele>
        <time>2022-01-16T13:32:10Z</time>
      </trkpt>
      <trkpt lat="45.98017" lon="6.45948">
        <ele>1403.66</ele>
        <time>2022-01-16T13:32:14Z</time>
      </trkpt>
      <trkpt lat="45.98022" lon="6.45956">
        <ele>1402.22</ele>
        <time>2022-01-16T13:32:16Z</time>
      </trkpt>
      <trkpt lat="45.9803" lon="6.45967">
        <ele>1404.14</ele>
        <time>2022-01-16T13:32:20Z</time>
      </trkpt>
      <trkpt lat="45.98028" lon="6.45972">
        <ele>1400.3</ele>
        <time>2022-01-16T13:32:22Z</time>
      </trkpt>
      <trkpt lat="45.98015" lon="6.45968">
        <ele>1397.89</ele>
        <time>2022-01-16T13:32:25Z</time>
      </trkpt>
      <trkpt lat="45.97995" lon="6.45956">
        <ele>1395.97</ele>
        <time>2022-01-16T13:32:30Z</time>
      </trkpt>
      <trkpt lat="45.97979" lon="6.45947">
        <ele>1395.49</ele>
        <time>2022-01-16T13:32:35Z</time>
      </trkpt>
      <trkpt lat="45.97965" lon="6.45934">
        <ele>1394.05</ele>
        <time>2022-01-16T13:32:40Z</time>
      </trkpt>
      <trkpt lat="45.97962" lon="6.45941">
        <ele>1392.61</ele>
        <time>2022-01-16T13:32:48Z</time>
      </trkpt>
      <trkpt lat="45.97965" lon="6.45941">
        <ele>1394.05</ele>
        <time>2022-01-16T13:32:51Z</time>
      </trkpt>
      <trkpt lat="45.97965" lon="6.45942">
        <ele>1392.61</ele>
        <time>2022-01-16T13:32:58Z</time>
      </trkpt>
      <trkpt lat="45.9797" lon="6.45954">
        <ele>1392.13</ele>
        <time>2022-01-16T13:33:18Z</time>
      </trkpt>
      <trkpt lat="45.97974" lon="6.45966">
        <ele>1390.68</ele>
        <time>2022-01-16T13:33:22Z</time>
      </trkpt>
      <trkpt lat="45.97968" lon="6.4597">
        <ele>1389.72</ele>
        <time>2022-01-16T13:33:25Z</time>
      </trkpt>
      <trkpt lat="45.97965" lon="6.45968">
        <ele>1389.24</ele>
        <time>2022-01-16T13:33:26Z</time>
      </trkpt>
      <trkpt lat="45.97961" lon="6.45963">
        <ele>1388.28</ele>
        <time>2022-01-16T13:33:28Z</time>
      </trkpt>
      <trkpt lat="45.97949" lon="6.45951">
        <ele>1386.36</ele>
        <time>2022-01-16T13:33:39Z</time>
      </trkpt>
      <trkpt lat="45.97931" lon="6.45952">
        <ele>1384.44</ele>
        <time>2022-01-16T13:33:45Z</time>
      </trkpt>
      <trkpt lat="45.97923" lon="6.45944">
        <ele>1380.59</ele>
        <time>2022-01-16T13:33:48Z</time>
      </trkpt>
      <trkpt lat="45.97917" lon="6.45944">
        <ele>1379.15</ele>
        <time>2022-01-16T13:33:51Z</time>
      </trkpt>
      <trkpt lat="45.97902" lon="6.45953">
        <ele>1374.34</ele>
        <time>2022-01-16T13:33:56Z</time>
      </trkpt>
      <trkpt lat="45.97898" lon="6.45962">
        <ele>1373.86</ele>
        <time>2022-01-16T13:33:58Z</time>
      </trkpt>
      <trkpt lat="45.97892" lon="6.45963">
        <ele>1370.5</ele>
        <time>2022-01-16T13:34:00Z</time>
      </trkpt>
      <trkpt lat="45.97891" lon="6.45971">
        <ele>1367.13</ele>
        <time>2022-01-16T13:34:02Z</time>
      </trkpt>
      <trkpt lat="45.9789" lon="6.45976">
        <ele>1370.02</ele>
        <time>2022-01-16T13:34:03Z</time>
      </trkpt>
      <trkpt lat="45.97888" lon="6.45978">
        <ele>1366.17</ele>
        <time>2022-01-16T13:34:04Z</time>
      </trkpt>
      <trkpt lat="45.97877" lon="6.45978">
        <ele>1361.84</ele>
        <time>2022-01-16T13:34:08Z</time>
      </trkpt>
      <trkpt lat="45.97872" lon="6.45991">
        <ele>1357.04</ele>
        <time>2022-01-16T13:34:12Z</time>
      </trkpt>
      <trkpt lat="45.9786" lon="6.4599">
        <ele>1354.63</ele>
        <time>2022-01-16T13:34:15Z</time>
      </trkpt>
      <trkpt lat="45.97857" lon="6.4601">
        <ele>1350.79</ele>
        <time>2022-01-16T13:34:19Z</time>
      </trkpt>
      <trkpt lat="45.97857" lon="6.46031">
        <ele>1347.43</ele>
        <time>2022-01-16T13:34:23Z</time>
      </trkpt>
      <trkpt lat="45.97851" lon="6.46031">
        <ele>1344.54</ele>
        <time>2022-01-16T13:34:25Z</time>
      </trkpt>
      <trkpt lat="45.97828" lon="6.46013">
        <ele>1343.1</ele>
        <time>2022-01-16T13:34:36Z</time>
      </trkpt>
      <trkpt lat="45.97826" lon="6.46032">
        <ele>1339.25</ele>
        <time>2022-01-16T13:34:41Z</time>
      </trkpt>
      <trkpt lat="45.97832" lon="6.46045">
        <ele>1339.25</ele>
        <time>2022-01-16T13:34:44Z</time>
      </trkpt>
      <trkpt lat="45.97823" lon="6.46055">
        <ele>1335.89</ele>
        <time>2022-01-16T13:34:49Z</time>
      </trkpt>
      <trkpt lat="45.9782" lon="6.46051">
        <ele>1335.89</ele>
        <time>2022-01-16T13:34:50Z</time>
      </trkpt>
      <trkpt lat="45.97814" lon="6.46044">
        <ele>1334.45</ele>
        <time>2022-01-16T13:34:52Z</time>
      </trkpt>
      <trkpt lat="45.97798" lon="6.46032">
        <ele>1331.56</ele>
        <time>2022-01-16T13:34:56Z</time>
      </trkpt>
      <trkpt lat="45.97774" lon="6.46015">
        <ele>1329.64</ele>
        <time>2022-01-16T13:35:03Z</time>
      </trkpt>
      <trkpt lat="45.97766" lon="6.46037">
        <ele>1327.24</ele>
        <time>2022-01-16T13:35:10Z</time>
      </trkpt>
      <trkpt lat="45.97767" lon="6.46048">
        <ele>1325.31</ele>
        <time>2022-01-16T13:35:13Z</time>
      </trkpt>
      <trkpt lat="45.97773" lon="6.46063">
        <ele>1322.91</ele>
        <time>2022-01-16T13:35:18Z</time>
      </trkpt>
      <trkpt lat="45.97767" lon="6.46069">
        <ele>1322.43</ele>
        <time>2022-01-16T13:35:22Z</time>
      </trkpt>
      <trkpt lat="45.97757" lon="6.46065">
        <ele>1319.07</ele>
        <time>2022-01-16T13:35:25Z</time>
      </trkpt>
      <trkpt lat="45.97745" lon="6.46061">
        <ele>1318.1</ele>
        <time>2022-01-16T13:35:36Z</time>
      </trkpt>
      <trkpt lat="45.97744" lon="6.46062">
        <ele>1317.14</ele>
        <time>2022-01-16T13:35:41Z</time>
      </trkpt>
      <trkpt lat="45.97748" lon="6.4608">
        <ele>1312.34</ele>
        <time>2022-01-16T13:35:47Z</time>
      </trkpt>
      <trkpt lat="45.97741" lon="6.46082">
        <ele>1312.34</ele>
        <time>2022-01-16T13:35:51Z</time>
      </trkpt>
      <trkpt lat="45.97724" lon="6.46064">
        <ele>1311.38</ele>
        <time>2022-01-16T13:36:02Z</time>
      </trkpt>
      <trkpt lat="45.97717" lon="6.46063">
        <ele>1308.01</ele>
        <time>2022-01-16T13:36:06Z</time>
      </trkpt>
      <trkpt lat="45.97721" lon="6.46075">
        <ele>1306.09</ele>
        <time>2022-01-16T13:36:10Z</time>
      </trkpt>
      <trkpt lat="45.97723" lon="6.46085">
        <ele>1306.09</ele>
        <time>2022-01-16T13:36:14Z</time>
      </trkpt>
      <trkpt lat="45.97722" lon="6.46093">
        <ele>1304.65</ele>
        <time>2022-01-16T13:36:17Z</time>
      </trkpt>
      <trkpt lat="45.97722" lon="6.46096">
        <ele>1304.65</ele>
        <time>2022-01-16T13:36:18Z</time>
      </trkpt>
      <trkpt lat="45.97721" lon="6.46099">
        <ele>1304.65</ele>
        <time>2022-01-16T13:36:20Z</time>
      </trkpt>
      <trkpt lat="45.97717" lon="6.46099">
        <ele>1303.2</ele>
        <time>2022-01-16T13:36:21Z</time>
      </trkpt>
      <trkpt lat="45.97715" lon="6.46094">
        <ele>1302.24</ele>
        <time>2022-01-16T13:36:23Z</time>
      </trkpt>
      <trkpt lat="45.97712" lon="6.46088">
        <ele>1300.8</ele>
        <time>2022-01-16T13:36:25Z</time>
      </trkpt>
      <trkpt lat="45.97708" lon="6.46086">
        <ele>1300.32</ele>
        <time>2022-01-16T13:36:27Z</time>
      </trkpt>
      <trkpt lat="45.977" lon="6.46069">
        <ele>1298.88</ele>
        <time>2022-01-16T13:36:32Z</time>
      </trkpt>
      <trkpt lat="45.97686" lon="6.46056">
        <ele>1298.4</ele>
        <time>2022-01-16T13:36:40Z</time>
      </trkpt>
      <trkpt lat="45.97666" lon="6.46049">
        <ele>1295.51</ele>
        <time>2022-01-16T13:36:48Z</time>
      </trkpt>
      <trkpt lat="45.97664" lon="6.46046">
        <ele>1295.99</ele>
        <time>2022-01-16T13:36:59Z</time>
      </trkpt>
      <trkpt lat="45.97666" lon="6.46037">
        <ele>1294.55</ele>
        <time>2022-01-16T13:37:12Z</time>
      </trkpt>
      <trkpt lat="45.97669" lon="6.46024">
        <ele>1295.51</ele>
        <time>2022-01-16T13:37:37Z</time>
      </trkpt>
      <trkpt lat="45.97669" lon="6.46029">
        <ele>1294.07</ele>
        <time>2022-01-16T13:37:54Z</time>
      </trkpt>
      <trkpt lat="45.97671" lon="6.4602">
        <ele>1294.55</ele>
        <time>2022-01-16T13:38:25Z</time>
      </trkpt>
      <trkpt lat="45.9767" lon="6.46024">
        <ele>1293.59</ele>
        <time>2022-01-16T13:39:04Z</time>
      </trkpt>
      <trkpt lat="45.97673" lon="6.46023">
        <ele>1295.03</ele>
        <time>2022-01-16T13:39:19Z</time>
      </trkpt>
      <trkpt lat="45.97655" lon="6.46037">
        <ele>1294.55</ele>
        <time>2022-01-16T13:39:38Z</time>
      </trkpt>
      <trkpt lat="45.97637" lon="6.46041">
        <ele>1293.11</ele>
        <time>2022-01-16T13:39:55Z</time>
      </trkpt>
      <trkpt lat="45.97636" lon="6.46038">
        <ele>1293.11</ele>
        <time>2022-01-16T13:39:58Z</time>
      </trkpt>
      <trkpt lat="45.97636" lon="6.46034">
        <ele>1292.63</ele>
        <time>2022-01-16T13:40:00Z</time>
      </trkpt>
      <trkpt lat="45.97628" lon="6.46028">
        <ele>1291.67</ele>
        <time>2022-01-16T13:40:12Z</time>
      </trkpt>
      <trkpt lat="45.97624" lon="6.4604">
        <ele>1292.63</ele>
        <time>2022-01-16T13:40:24Z</time>
      </trkpt>
      <trkpt lat="45.97625" lon="6.46049">
        <ele>1292.63</ele>
        <time>2022-01-16T13:40:31Z</time>
      </trkpt>
      <trkpt lat="45.97626" lon="6.46071">
        <ele>1293.11</ele>
        <time>2022-01-16T13:40:47Z</time>
      </trkpt>
      <trkpt lat="45.97626" lon="6.46089">
        <ele>1293.59</ele>
        <time>2022-01-16T13:41:01Z</time>
      </trkpt>
    </trkseg>
  </trk>
</gpx>